<?xml version="1.0" encoding="UTF-8" standalone="no" ?>
<gpx xmlns="http://www.topografix.com/GPX/1/1" xmlns:xsi="http://www.w3.org/2001/XMLSchema-instance" xsi:schemaLocation="http://www.topografix.com/GPX/1/1 http://www.topografix.com/GPX/1/1/gpx.xsd" version="1.1" creator="VisuGPX - https://www.visugpx.com">
  <metadata>
    <name>St Rivoal - lac de Brennilis</name>
    <desc><![CDATA[boucle au pays des Monts D'arrée en faisant le tour du lac de Brennilis - SUPERBE]]></desc>
  </metadata>
  <trk>
    <name><![CDATA[OR-5690156--Saint-Rivoal:j2 - St Rivoal - lac de Brennilis]]></name>
    <trkseg>
      <trkpt lat="48.34703" lon="-3.99316">
        <ele>171</ele>
        <time>2017-01-13T22:22:14Z</time>
      </trkpt>
      <trkpt lat="48.34695" lon="-3.99313">
        <ele>170</ele>
        <time>2017-01-13T22:24:14Z</time>
      </trkpt>
      <trkpt lat="48.34701" lon="-3.99308">
        <ele>171</ele>
        <time>2017-01-13T22:26:14Z</time>
      </trkpt>
      <trkpt lat="48.34701" lon="-3.99302">
        <ele>172</ele>
        <time>2017-01-13T22:28:14Z</time>
      </trkpt>
      <trkpt lat="48.34698" lon="-3.99288">
        <ele>173</ele>
        <time>2017-01-13T22:30:14Z</time>
      </trkpt>
      <trkpt lat="48.34697" lon="-3.99281">
        <ele>174</ele>
        <time>2017-01-13T22:32:14Z</time>
      </trkpt>
      <trkpt lat="48.34706" lon="-3.99257">
        <ele>177</ele>
        <time>2017-01-13T22:34:14Z</time>
      </trkpt>
      <trkpt lat="48.34715" lon="-3.99225">
        <ele>181</ele>
        <time>2017-01-13T22:36:14Z</time>
      </trkpt>
      <trkpt lat="48.34741" lon="-3.992">
        <ele>185</ele>
        <time>2017-01-13T22:38:14Z</time>
      </trkpt>
      <trkpt lat="48.34755" lon="-3.9918">
        <ele>188</ele>
        <time>2017-01-13T22:40:14Z</time>
      </trkpt>
      <trkpt lat="48.34758" lon="-3.9915">
        <ele>190</ele>
        <time>2017-01-13T22:42:14Z</time>
      </trkpt>
      <trkpt lat="48.34755" lon="-3.99132">
        <ele>190</ele>
        <time>2017-01-13T22:44:14Z</time>
      </trkpt>
      <trkpt lat="48.34749" lon="-3.99106">
        <ele>190</ele>
        <time>2017-01-13T22:46:14Z</time>
      </trkpt>
      <trkpt lat="48.34753" lon="-3.99066">
        <ele>192</ele>
        <time>2017-01-13T22:48:14Z</time>
      </trkpt>
      <trkpt lat="48.34741" lon="-3.99023">
        <ele>192</ele>
        <time>2017-01-13T22:50:14Z</time>
      </trkpt>
      <trkpt lat="48.34736" lon="-3.99004">
        <ele>193</ele>
        <time>2017-01-13T22:52:14Z</time>
      </trkpt>
      <trkpt lat="48.3473" lon="-3.98993">
        <ele>192</ele>
        <time>2017-01-13T22:54:14Z</time>
      </trkpt>
      <trkpt lat="48.34722" lon="-3.98969">
        <ele>193</ele>
        <time>2017-01-13T22:56:14Z</time>
      </trkpt>
      <trkpt lat="48.34723" lon="-3.98938">
        <ele>194</ele>
        <time>2017-01-13T22:58:14Z</time>
      </trkpt>
      <trkpt lat="48.34724" lon="-3.98915">
        <ele>195</ele>
        <time>2017-01-13T23:00:14Z</time>
      </trkpt>
      <trkpt lat="48.3472" lon="-3.98887">
        <ele>195</ele>
        <time>2017-01-13T23:02:14Z</time>
      </trkpt>
      <trkpt lat="48.34727" lon="-3.98861">
        <ele>195</ele>
        <time>2017-01-13T23:04:14Z</time>
      </trkpt>
      <trkpt lat="48.34722" lon="-3.98843">
        <ele>195</ele>
        <time>2017-01-13T23:06:14Z</time>
      </trkpt>
      <trkpt lat="48.34716" lon="-3.98787">
        <ele>195</ele>
        <time>2017-01-13T23:08:14Z</time>
      </trkpt>
      <trkpt lat="48.34698" lon="-3.98709">
        <ele>197</ele>
        <time>2017-01-13T23:10:14Z</time>
      </trkpt>
      <trkpt lat="48.34707" lon="-3.98703">
        <ele>198</ele>
        <time>2017-01-13T23:12:14Z</time>
      </trkpt>
      <trkpt lat="48.34734" lon="-3.98697">
        <ele>200</ele>
        <time>2017-01-13T23:14:14Z</time>
      </trkpt>
      <trkpt lat="48.34754" lon="-3.98688">
        <ele>202</ele>
        <time>2017-01-13T23:16:14Z</time>
      </trkpt>
      <trkpt lat="48.34768" lon="-3.98685">
        <ele>204</ele>
        <time>2017-01-13T23:18:14Z</time>
      </trkpt>
      <trkpt lat="48.34794" lon="-3.98674">
        <ele>207</ele>
        <time>2017-01-13T23:20:14Z</time>
      </trkpt>
      <trkpt lat="48.34816" lon="-3.9866">
        <ele>211</ele>
        <time>2017-01-13T23:22:14Z</time>
      </trkpt>
      <trkpt lat="48.34833" lon="-3.98656">
        <ele>213</ele>
        <time>2017-01-13T23:24:14Z</time>
      </trkpt>
      <trkpt lat="48.34842" lon="-3.98649">
        <ele>215</ele>
        <time>2017-01-13T23:26:14Z</time>
      </trkpt>
      <trkpt lat="48.34843" lon="-3.98646">
        <ele>215</ele>
        <time>2017-01-13T23:28:14Z</time>
      </trkpt>
      <trkpt lat="48.34837" lon="-3.9863">
        <ele>215</ele>
        <time>2017-01-13T23:30:14Z</time>
      </trkpt>
      <trkpt lat="48.34823" lon="-3.98608">
        <ele>214</ele>
        <time>2017-01-13T23:32:14Z</time>
      </trkpt>
      <trkpt lat="48.34805" lon="-3.98586">
        <ele>213</ele>
        <time>2017-01-13T23:34:14Z</time>
      </trkpt>
      <trkpt lat="48.34803" lon="-3.9858">
        <ele>213</ele>
        <time>2017-01-13T23:36:14Z</time>
      </trkpt>
      <trkpt lat="48.34789" lon="-3.98556">
        <ele>213</ele>
        <time>2017-01-13T23:38:14Z</time>
      </trkpt>
      <trkpt lat="48.34764" lon="-3.98512">
        <ele>215</ele>
        <time>2017-01-13T23:40:14Z</time>
      </trkpt>
      <trkpt lat="48.34752" lon="-3.98494">
        <ele>215</ele>
        <time>2017-01-13T23:42:14Z</time>
      </trkpt>
      <trkpt lat="48.34748" lon="-3.9849">
        <ele>215</ele>
        <time>2017-01-13T23:44:14Z</time>
      </trkpt>
      <trkpt lat="48.34736" lon="-3.98473">
        <ele>216</ele>
        <time>2017-01-13T23:46:14Z</time>
      </trkpt>
      <trkpt lat="48.34721" lon="-3.98452">
        <ele>216</ele>
        <time>2017-01-13T23:48:14Z</time>
      </trkpt>
      <trkpt lat="48.34709" lon="-3.9843">
        <ele>217</ele>
        <time>2017-01-13T23:50:14Z</time>
      </trkpt>
      <trkpt lat="48.34686" lon="-3.9839">
        <ele>220</ele>
        <time>2017-01-13T23:52:14Z</time>
      </trkpt>
      <trkpt lat="48.34675" lon="-3.9837">
        <ele>221</ele>
        <time>2017-01-13T23:54:14Z</time>
      </trkpt>
      <trkpt lat="48.34669" lon="-3.98358">
        <ele>222</ele>
        <time>2017-01-13T23:56:14Z</time>
      </trkpt>
      <trkpt lat="48.34658" lon="-3.98333">
        <ele>223</ele>
        <time>2017-01-13T23:58:14Z</time>
      </trkpt>
      <trkpt lat="48.34647" lon="-3.98315">
        <ele>223</ele>
        <time>2017-01-14T00:00:14Z</time>
      </trkpt>
      <trkpt lat="48.34634" lon="-3.98296">
        <ele>223</ele>
        <time>2017-01-14T00:02:14Z</time>
      </trkpt>
      <trkpt lat="48.34606" lon="-3.98244">
        <ele>225</ele>
        <time>2017-01-14T00:04:14Z</time>
      </trkpt>
      <trkpt lat="48.34592" lon="-3.98216">
        <ele>227</ele>
        <time>2017-01-14T00:06:14Z</time>
      </trkpt>
      <trkpt lat="48.34575" lon="-3.98188">
        <ele>228</ele>
        <time>2017-01-14T00:08:14Z</time>
      </trkpt>
      <trkpt lat="48.34561" lon="-3.98161">
        <ele>229</ele>
        <time>2017-01-14T00:10:14Z</time>
      </trkpt>
      <trkpt lat="48.34558" lon="-3.98157">
        <ele>229</ele>
        <time>2017-01-14T00:12:14Z</time>
      </trkpt>
      <trkpt lat="48.34553" lon="-3.98148">
        <ele>229</ele>
        <time>2017-01-14T00:14:14Z</time>
      </trkpt>
      <trkpt lat="48.34541" lon="-3.98116">
        <ele>230</ele>
        <time>2017-01-14T00:16:14Z</time>
      </trkpt>
      <trkpt lat="48.34525" lon="-3.9806">
        <ele>229</ele>
        <time>2017-01-14T00:18:14Z</time>
      </trkpt>
      <trkpt lat="48.34524" lon="-3.98029">
        <ele>229</ele>
        <time>2017-01-14T00:20:14Z</time>
      </trkpt>
      <trkpt lat="48.34519" lon="-3.97992">
        <ele>228</ele>
        <time>2017-01-14T00:22:14Z</time>
      </trkpt>
      <trkpt lat="48.34518" lon="-3.97984">
        <ele>228</ele>
        <time>2017-01-14T00:24:14Z</time>
      </trkpt>
      <trkpt lat="48.34512" lon="-3.97954">
        <ele>227</ele>
        <time>2017-01-14T00:26:14Z</time>
      </trkpt>
      <trkpt lat="48.34508" lon="-3.97919">
        <ele>227</ele>
        <time>2017-01-14T00:28:14Z</time>
      </trkpt>
      <trkpt lat="48.345" lon="-3.97866">
        <ele>225</ele>
        <time>2017-01-14T00:30:14Z</time>
      </trkpt>
      <trkpt lat="48.34497" lon="-3.97856">
        <ele>224</ele>
        <time>2017-01-14T00:32:14Z</time>
      </trkpt>
      <trkpt lat="48.34494" lon="-3.97821">
        <ele>223</ele>
        <time>2017-01-14T00:34:14Z</time>
      </trkpt>
      <trkpt lat="48.34494" lon="-3.97779">
        <ele>221</ele>
        <time>2017-01-14T00:36:14Z</time>
      </trkpt>
      <trkpt lat="48.34495" lon="-3.97766">
        <ele>221</ele>
        <time>2017-01-14T00:38:14Z</time>
      </trkpt>
      <trkpt lat="48.34494" lon="-3.97762">
        <ele>220</ele>
        <time>2017-01-14T00:40:14Z</time>
      </trkpt>
      <trkpt lat="48.34495" lon="-3.9775">
        <ele>220</ele>
        <time>2017-01-14T00:42:14Z</time>
      </trkpt>
      <trkpt lat="48.34498" lon="-3.97717">
        <ele>219</ele>
        <time>2017-01-14T00:44:14Z</time>
      </trkpt>
      <trkpt lat="48.34502" lon="-3.97672">
        <ele>218</ele>
        <time>2017-01-14T00:46:14Z</time>
      </trkpt>
      <trkpt lat="48.34504" lon="-3.97635">
        <ele>218</ele>
        <time>2017-01-14T00:48:14Z</time>
      </trkpt>
      <trkpt lat="48.34503" lon="-3.97607">
        <ele>218</ele>
        <time>2017-01-14T00:50:14Z</time>
      </trkpt>
      <trkpt lat="48.34498" lon="-3.9758">
        <ele>218</ele>
        <time>2017-01-14T00:52:14Z</time>
      </trkpt>
      <trkpt lat="48.34487" lon="-3.97553">
        <ele>218</ele>
        <time>2017-01-14T00:54:14Z</time>
      </trkpt>
      <trkpt lat="48.3447" lon="-3.9752">
        <ele>217</ele>
        <time>2017-01-14T00:56:14Z</time>
      </trkpt>
      <trkpt lat="48.34452" lon="-3.97488">
        <ele>217</ele>
        <time>2017-01-14T00:58:14Z</time>
      </trkpt>
      <trkpt lat="48.34434" lon="-3.97461">
        <ele>219</ele>
        <time>2017-01-14T01:00:14Z</time>
      </trkpt>
      <trkpt lat="48.34419" lon="-3.97434">
        <ele>220</ele>
        <time>2017-01-14T01:02:14Z</time>
      </trkpt>
      <trkpt lat="48.34401" lon="-3.97404">
        <ele>221</ele>
        <time>2017-01-14T01:04:14Z</time>
      </trkpt>
      <trkpt lat="48.34382" lon="-3.97378">
        <ele>221</ele>
        <time>2017-01-14T01:06:14Z</time>
      </trkpt>
      <trkpt lat="48.34377" lon="-3.97362">
        <ele>222</ele>
        <time>2017-01-14T01:08:14Z</time>
      </trkpt>
      <trkpt lat="48.34379" lon="-3.97353">
        <ele>222</ele>
        <time>2017-01-14T01:10:14Z</time>
      </trkpt>
      <trkpt lat="48.34391" lon="-3.97323">
        <ele>224</ele>
        <time>2017-01-14T01:12:14Z</time>
      </trkpt>
      <trkpt lat="48.34396" lon="-3.97291">
        <ele>224</ele>
        <time>2017-01-14T01:14:14Z</time>
      </trkpt>
      <trkpt lat="48.34404" lon="-3.97257">
        <ele>225</ele>
        <time>2017-01-14T01:16:14Z</time>
      </trkpt>
      <trkpt lat="48.34416" lon="-3.97216">
        <ele>226</ele>
        <time>2017-01-14T01:18:14Z</time>
      </trkpt>
      <trkpt lat="48.34437" lon="-3.97191">
        <ele>227</ele>
        <time>2017-01-14T01:20:14Z</time>
      </trkpt>
      <trkpt lat="48.34455" lon="-3.97173">
        <ele>228</ele>
        <time>2017-01-14T01:22:14Z</time>
      </trkpt>
      <trkpt lat="48.34466" lon="-3.97147">
        <ele>228</ele>
        <time>2017-01-14T01:24:14Z</time>
      </trkpt>
      <trkpt lat="48.34473" lon="-3.97109">
        <ele>227</ele>
        <time>2017-01-14T01:26:14Z</time>
      </trkpt>
      <trkpt lat="48.3448" lon="-3.97083">
        <ele>227</ele>
        <time>2017-01-14T01:28:14Z</time>
      </trkpt>
      <trkpt lat="48.34493" lon="-3.97048">
        <ele>228</ele>
        <time>2017-01-14T01:30:14Z</time>
      </trkpt>
      <trkpt lat="48.34508" lon="-3.97025">
        <ele>229</ele>
        <time>2017-01-14T01:32:14Z</time>
      </trkpt>
      <trkpt lat="48.34505" lon="-3.96996">
        <ele>229</ele>
        <time>2017-01-14T01:34:14Z</time>
      </trkpt>
      <trkpt lat="48.34504" lon="-3.96991">
        <ele>230</ele>
        <time>2017-01-14T01:36:14Z</time>
      </trkpt>
      <trkpt lat="48.34503" lon="-3.96991">
        <ele>230</ele>
        <time>2017-01-14T01:38:14Z</time>
      </trkpt>
      <trkpt lat="48.34503" lon="-3.96993">
        <ele>230</ele>
        <time>2017-01-14T01:40:14Z</time>
      </trkpt>
      <trkpt lat="48.34503" lon="-3.96992">
        <ele>230</ele>
        <time>2017-01-14T01:42:14Z</time>
      </trkpt>
      <trkpt lat="48.34499" lon="-3.96989">
        <ele>229</ele>
        <time>2017-01-14T01:44:14Z</time>
      </trkpt>
      <trkpt lat="48.34482" lon="-3.96973">
        <ele>229</ele>
        <time>2017-01-14T01:46:14Z</time>
      </trkpt>
      <trkpt lat="48.34468" lon="-3.96955">
        <ele>228</ele>
        <time>2017-01-14T01:48:14Z</time>
      </trkpt>
      <trkpt lat="48.3446" lon="-3.96926">
        <ele>229</ele>
        <time>2017-01-14T01:50:14Z</time>
      </trkpt>
      <trkpt lat="48.34458" lon="-3.96892">
        <ele>229</ele>
        <time>2017-01-14T01:52:14Z</time>
      </trkpt>
      <trkpt lat="48.34454" lon="-3.9685">
        <ele>229</ele>
        <time>2017-01-14T01:54:14Z</time>
      </trkpt>
      <trkpt lat="48.3445" lon="-3.96812">
        <ele>229</ele>
        <time>2017-01-14T01:56:14Z</time>
      </trkpt>
      <trkpt lat="48.34449" lon="-3.96773">
        <ele>230</ele>
        <time>2017-01-14T01:58:14Z</time>
      </trkpt>
      <trkpt lat="48.34446" lon="-3.96739">
        <ele>230</ele>
        <time>2017-01-14T02:00:14Z</time>
      </trkpt>
      <trkpt lat="48.34435" lon="-3.96665">
        <ele>229</ele>
        <time>2017-01-14T02:02:14Z</time>
      </trkpt>
      <trkpt lat="48.34435" lon="-3.96662">
        <ele>230</ele>
        <time>2017-01-14T02:04:14Z</time>
      </trkpt>
      <trkpt lat="48.34432" lon="-3.9665">
        <ele>230</ele>
        <time>2017-01-14T02:06:14Z</time>
      </trkpt>
      <trkpt lat="48.34429" lon="-3.9661">
        <ele>232</ele>
        <time>2017-01-14T02:08:14Z</time>
      </trkpt>
      <trkpt lat="48.3442" lon="-3.96567">
        <ele>233</ele>
        <time>2017-01-14T02:10:14Z</time>
      </trkpt>
      <trkpt lat="48.34408" lon="-3.96499">
        <ele>235</ele>
        <time>2017-01-14T02:12:14Z</time>
      </trkpt>
      <trkpt lat="48.34403" lon="-3.96456">
        <ele>237</ele>
        <time>2017-01-14T02:14:14Z</time>
      </trkpt>
      <trkpt lat="48.34399" lon="-3.96418">
        <ele>239</ele>
        <time>2017-01-14T02:16:14Z</time>
      </trkpt>
      <trkpt lat="48.34393" lon="-3.96378">
        <ele>237</ele>
        <time>2017-01-14T02:18:14Z</time>
      </trkpt>
      <trkpt lat="48.34387" lon="-3.96322">
        <ele>236</ele>
        <time>2017-01-14T02:20:14Z</time>
      </trkpt>
      <trkpt lat="48.34381" lon="-3.96291">
        <ele>235</ele>
        <time>2017-01-14T02:22:14Z</time>
      </trkpt>
      <trkpt lat="48.3438" lon="-3.9627">
        <ele>235</ele>
        <time>2017-01-14T02:24:14Z</time>
      </trkpt>
      <trkpt lat="48.34379" lon="-3.96253">
        <ele>235</ele>
        <time>2017-01-14T02:26:14Z</time>
      </trkpt>
      <trkpt lat="48.34375" lon="-3.96215">
        <ele>236</ele>
        <time>2017-01-14T02:28:14Z</time>
      </trkpt>
      <trkpt lat="48.34374" lon="-3.96197">
        <ele>237</ele>
        <time>2017-01-14T02:30:14Z</time>
      </trkpt>
      <trkpt lat="48.34372" lon="-3.96168">
        <ele>237</ele>
        <time>2017-01-14T02:32:14Z</time>
      </trkpt>
      <trkpt lat="48.3437" lon="-3.9614">
        <ele>238</ele>
        <time>2017-01-14T02:34:14Z</time>
      </trkpt>
      <trkpt lat="48.34369" lon="-3.96098">
        <ele>238</ele>
        <time>2017-01-14T02:36:14Z</time>
      </trkpt>
      <trkpt lat="48.34365" lon="-3.96064">
        <ele>238</ele>
        <time>2017-01-14T02:38:14Z</time>
      </trkpt>
      <trkpt lat="48.34361" lon="-3.96038">
        <ele>239</ele>
        <time>2017-01-14T02:40:14Z</time>
      </trkpt>
      <trkpt lat="48.3436" lon="-3.96005">
        <ele>239</ele>
        <time>2017-01-14T02:42:14Z</time>
      </trkpt>
      <trkpt lat="48.3436" lon="-3.95969">
        <ele>239</ele>
        <time>2017-01-14T02:44:14Z</time>
      </trkpt>
      <trkpt lat="48.34359" lon="-3.95932">
        <ele>239</ele>
        <time>2017-01-14T02:46:14Z</time>
      </trkpt>
      <trkpt lat="48.34356" lon="-3.95902">
        <ele>239</ele>
        <time>2017-01-14T02:48:14Z</time>
      </trkpt>
      <trkpt lat="48.34355" lon="-3.95867">
        <ele>240</ele>
        <time>2017-01-14T02:50:14Z</time>
      </trkpt>
      <trkpt lat="48.34355" lon="-3.95825">
        <ele>241</ele>
        <time>2017-01-14T02:52:14Z</time>
      </trkpt>
      <trkpt lat="48.34358" lon="-3.95794">
        <ele>242</ele>
        <time>2017-01-14T02:54:14Z</time>
      </trkpt>
      <trkpt lat="48.34354" lon="-3.95764">
        <ele>243</ele>
        <time>2017-01-14T02:56:14Z</time>
      </trkpt>
      <trkpt lat="48.34355" lon="-3.9575">
        <ele>243</ele>
        <time>2017-01-14T02:58:14Z</time>
      </trkpt>
      <trkpt lat="48.34352" lon="-3.95719">
        <ele>245</ele>
        <time>2017-01-14T03:00:14Z</time>
      </trkpt>
      <trkpt lat="48.34349" lon="-3.95669">
        <ele>247</ele>
        <time>2017-01-14T03:02:14Z</time>
      </trkpt>
      <trkpt lat="48.34351" lon="-3.95623">
        <ele>251</ele>
        <time>2017-01-14T03:04:14Z</time>
      </trkpt>
      <trkpt lat="48.34353" lon="-3.95586">
        <ele>255</ele>
        <time>2017-01-14T03:06:14Z</time>
      </trkpt>
      <trkpt lat="48.34352" lon="-3.95543">
        <ele>257</ele>
        <time>2017-01-14T03:08:14Z</time>
      </trkpt>
      <trkpt lat="48.34357" lon="-3.95503">
        <ele>258</ele>
        <time>2017-01-14T03:10:14Z</time>
      </trkpt>
      <trkpt lat="48.34358" lon="-3.95454">
        <ele>257</ele>
        <time>2017-01-14T03:12:14Z</time>
      </trkpt>
      <trkpt lat="48.34361" lon="-3.95407">
        <ele>257</ele>
        <time>2017-01-14T03:14:14Z</time>
      </trkpt>
      <trkpt lat="48.34359" lon="-3.95369">
        <ele>257</ele>
        <time>2017-01-14T03:16:14Z</time>
      </trkpt>
      <trkpt lat="48.34359" lon="-3.95325">
        <ele>258</ele>
        <time>2017-01-14T03:18:14Z</time>
      </trkpt>
      <trkpt lat="48.34361" lon="-3.95275">
        <ele>258</ele>
        <time>2017-01-14T03:20:14Z</time>
      </trkpt>
      <trkpt lat="48.34367" lon="-3.95201">
        <ele>260</ele>
        <time>2017-01-14T03:22:14Z</time>
      </trkpt>
      <trkpt lat="48.34367" lon="-3.95149">
        <ele>263</ele>
        <time>2017-01-14T03:24:14Z</time>
      </trkpt>
      <trkpt lat="48.34367" lon="-3.95111">
        <ele>265</ele>
        <time>2017-01-14T03:26:14Z</time>
      </trkpt>
      <trkpt lat="48.34363" lon="-3.9507">
        <ele>267</ele>
        <time>2017-01-14T03:28:14Z</time>
      </trkpt>
      <trkpt lat="48.3436" lon="-3.95019">
        <ele>268</ele>
        <time>2017-01-14T03:30:14Z</time>
      </trkpt>
      <trkpt lat="48.34362" lon="-3.94972">
        <ele>269</ele>
        <time>2017-01-14T03:32:14Z</time>
      </trkpt>
      <trkpt lat="48.34362" lon="-3.94931">
        <ele>271</ele>
        <time>2017-01-14T03:34:14Z</time>
      </trkpt>
      <trkpt lat="48.34361" lon="-3.94883">
        <ele>273</ele>
        <time>2017-01-14T03:36:14Z</time>
      </trkpt>
      <trkpt lat="48.34359" lon="-3.94837">
        <ele>275</ele>
        <time>2017-01-14T03:38:14Z</time>
      </trkpt>
      <trkpt lat="48.3436" lon="-3.94807">
        <ele>276</ele>
        <time>2017-01-14T03:40:14Z</time>
      </trkpt>
      <trkpt lat="48.34359" lon="-3.9476">
        <ele>277</ele>
        <time>2017-01-14T03:42:14Z</time>
      </trkpt>
      <trkpt lat="48.34353" lon="-3.94728">
        <ele>278</ele>
        <time>2017-01-14T03:44:14Z</time>
      </trkpt>
      <trkpt lat="48.34341" lon="-3.94679">
        <ele>280</ele>
        <time>2017-01-14T03:46:14Z</time>
      </trkpt>
      <trkpt lat="48.34326" lon="-3.94628">
        <ele>281</ele>
        <time>2017-01-14T03:48:14Z</time>
      </trkpt>
      <trkpt lat="48.34317" lon="-3.94603">
        <ele>282</ele>
        <time>2017-01-14T03:50:14Z</time>
      </trkpt>
      <trkpt lat="48.34304" lon="-3.94571">
        <ele>283</ele>
        <time>2017-01-14T03:52:14Z</time>
      </trkpt>
      <trkpt lat="48.34302" lon="-3.94559">
        <ele>284</ele>
        <time>2017-01-14T03:54:14Z</time>
      </trkpt>
      <trkpt lat="48.34304" lon="-3.94519">
        <ele>285</ele>
        <time>2017-01-14T03:56:14Z</time>
      </trkpt>
      <trkpt lat="48.343" lon="-3.94488">
        <ele>286</ele>
        <time>2017-01-14T03:58:14Z</time>
      </trkpt>
      <trkpt lat="48.34278" lon="-3.94455">
        <ele>287</ele>
        <time>2017-01-14T04:00:14Z</time>
      </trkpt>
      <trkpt lat="48.34248" lon="-3.94386">
        <ele>289</ele>
        <time>2017-01-14T04:02:14Z</time>
      </trkpt>
      <trkpt lat="48.34244" lon="-3.9434">
        <ele>290</ele>
        <time>2017-01-14T04:04:14Z</time>
      </trkpt>
      <trkpt lat="48.34241" lon="-3.94315">
        <ele>290</ele>
        <time>2017-01-14T04:06:14Z</time>
      </trkpt>
      <trkpt lat="48.34243" lon="-3.94283">
        <ele>291</ele>
        <time>2017-01-14T04:08:14Z</time>
      </trkpt>
      <trkpt lat="48.34244" lon="-3.94277">
        <ele>291</ele>
        <time>2017-01-14T04:10:14Z</time>
      </trkpt>
      <trkpt lat="48.34246" lon="-3.94274">
        <ele>291</ele>
        <time>2017-01-14T04:12:14Z</time>
      </trkpt>
      <trkpt lat="48.34261" lon="-3.94245">
        <ele>292</ele>
        <time>2017-01-14T04:14:14Z</time>
      </trkpt>
      <trkpt lat="48.34274" lon="-3.94205">
        <ele>293</ele>
        <time>2017-01-14T04:16:14Z</time>
      </trkpt>
      <trkpt lat="48.34288" lon="-3.94169">
        <ele>294</ele>
        <time>2017-01-14T04:18:14Z</time>
      </trkpt>
      <trkpt lat="48.34312" lon="-3.94079">
        <ele>295</ele>
        <time>2017-01-14T04:20:14Z</time>
      </trkpt>
      <trkpt lat="48.34321" lon="-3.94028">
        <ele>294</ele>
        <time>2017-01-14T04:22:14Z</time>
      </trkpt>
      <trkpt lat="48.34325" lon="-3.93982">
        <ele>293</ele>
        <time>2017-01-14T04:24:14Z</time>
      </trkpt>
      <trkpt lat="48.34331" lon="-3.93935">
        <ele>292</ele>
        <time>2017-01-14T04:26:14Z</time>
      </trkpt>
      <trkpt lat="48.34342" lon="-3.93883">
        <ele>291</ele>
        <time>2017-01-14T04:28:14Z</time>
      </trkpt>
      <trkpt lat="48.34352" lon="-3.93833">
        <ele>291</ele>
        <time>2017-01-14T04:30:14Z</time>
      </trkpt>
      <trkpt lat="48.34357" lon="-3.93789">
        <ele>291</ele>
        <time>2017-01-14T04:32:14Z</time>
      </trkpt>
      <trkpt lat="48.34364" lon="-3.93751">
        <ele>290</ele>
        <time>2017-01-14T04:34:14Z</time>
      </trkpt>
      <trkpt lat="48.34375" lon="-3.93704">
        <ele>290</ele>
        <time>2017-01-14T04:36:14Z</time>
      </trkpt>
      <trkpt lat="48.34375" lon="-3.93676">
        <ele>289</ele>
        <time>2017-01-14T04:38:14Z</time>
      </trkpt>
      <trkpt lat="48.34375" lon="-3.93676">
        <ele>289</ele>
        <time>2017-01-14T04:40:14Z</time>
      </trkpt>
      <trkpt lat="48.34375" lon="-3.93667">
        <ele>289</ele>
        <time>2017-01-14T04:42:14Z</time>
      </trkpt>
      <trkpt lat="48.34384" lon="-3.93626">
        <ele>288</ele>
        <time>2017-01-14T04:44:14Z</time>
      </trkpt>
      <trkpt lat="48.34399" lon="-3.93586">
        <ele>288</ele>
        <time>2017-01-14T04:46:14Z</time>
      </trkpt>
      <trkpt lat="48.34415" lon="-3.93549">
        <ele>288</ele>
        <time>2017-01-14T04:48:14Z</time>
      </trkpt>
      <trkpt lat="48.34433" lon="-3.9351">
        <ele>288</ele>
        <time>2017-01-14T04:50:14Z</time>
      </trkpt>
      <trkpt lat="48.3444" lon="-3.93494">
        <ele>287</ele>
        <time>2017-01-14T04:52:14Z</time>
      </trkpt>
      <trkpt lat="48.34444" lon="-3.93486">
        <ele>287</ele>
        <time>2017-01-14T04:54:14Z</time>
      </trkpt>
      <trkpt lat="48.34463" lon="-3.93437">
        <ele>285</ele>
        <time>2017-01-14T04:56:14Z</time>
      </trkpt>
      <trkpt lat="48.34472" lon="-3.93399">
        <ele>284</ele>
        <time>2017-01-14T04:58:14Z</time>
      </trkpt>
      <trkpt lat="48.34481" lon="-3.93365">
        <ele>284</ele>
        <time>2017-01-14T05:00:14Z</time>
      </trkpt>
      <trkpt lat="48.34482" lon="-3.93308">
        <ele>282</ele>
        <time>2017-01-14T05:02:14Z</time>
      </trkpt>
      <trkpt lat="48.34486" lon="-3.9326">
        <ele>281</ele>
        <time>2017-01-14T05:04:14Z</time>
      </trkpt>
      <trkpt lat="48.34493" lon="-3.93133">
        <ele>277</ele>
        <time>2017-01-14T05:06:14Z</time>
      </trkpt>
      <trkpt lat="48.34494" lon="-3.93087">
        <ele>275</ele>
        <time>2017-01-14T05:08:14Z</time>
      </trkpt>
      <trkpt lat="48.34497" lon="-3.93039">
        <ele>274</ele>
        <time>2017-01-14T05:10:14Z</time>
      </trkpt>
      <trkpt lat="48.34507" lon="-3.92977">
        <ele>274</ele>
        <time>2017-01-14T05:12:14Z</time>
      </trkpt>
      <trkpt lat="48.34512" lon="-3.9293">
        <ele>274</ele>
        <time>2017-01-14T05:14:14Z</time>
      </trkpt>
      <trkpt lat="48.34504" lon="-3.9288">
        <ele>274</ele>
        <time>2017-01-14T05:16:14Z</time>
      </trkpt>
      <trkpt lat="48.34496" lon="-3.92829">
        <ele>274</ele>
        <time>2017-01-14T05:18:14Z</time>
      </trkpt>
      <trkpt lat="48.34488" lon="-3.92786">
        <ele>274</ele>
        <time>2017-01-14T05:20:14Z</time>
      </trkpt>
      <trkpt lat="48.34478" lon="-3.92738">
        <ele>274</ele>
        <time>2017-01-14T05:22:14Z</time>
      </trkpt>
      <trkpt lat="48.34461" lon="-3.92697">
        <ele>275</ele>
        <time>2017-01-14T05:24:14Z</time>
      </trkpt>
      <trkpt lat="48.34444" lon="-3.92669">
        <ele>275</ele>
        <time>2017-01-14T05:26:14Z</time>
      </trkpt>
      <trkpt lat="48.34442" lon="-3.92668">
        <ele>275</ele>
        <time>2017-01-14T05:28:14Z</time>
      </trkpt>
      <trkpt lat="48.3446" lon="-3.92657">
        <ele>276</ele>
        <time>2017-01-14T05:30:14Z</time>
      </trkpt>
      <trkpt lat="48.34658" lon="-3.92639">
        <ele>278</ele>
        <time>2017-01-14T05:32:14Z</time>
      </trkpt>
      <trkpt lat="48.34868" lon="-3.9253">
        <ele>261</ele>
        <time>2017-01-14T05:34:14Z</time>
      </trkpt>
      <trkpt lat="48.34704" lon="-3.91813">
        <ele>264</ele>
        <time>2017-01-14T05:36:14Z</time>
      </trkpt>
      <trkpt lat="48.34649" lon="-3.91506">
        <ele>269</ele>
        <time>2017-01-14T05:38:14Z</time>
      </trkpt>
      <trkpt lat="48.34579" lon="-3.9108">
        <ele>263</ele>
        <time>2017-01-14T05:40:14Z</time>
      </trkpt>
      <trkpt lat="48.34412" lon="-3.90223">
        <ele>252</ele>
        <time>2017-01-14T05:42:14Z</time>
      </trkpt>
      <trkpt lat="48.34327" lon="-3.89819">
        <ele>249</ele>
        <time>2017-01-14T05:44:14Z</time>
      </trkpt>
      <trkpt lat="48.34243" lon="-3.89811">
        <ele>255</ele>
        <time>2017-01-14T05:46:14Z</time>
      </trkpt>
      <trkpt lat="48.34234" lon="-3.89808">
        <ele>256</ele>
        <time>2017-01-14T05:48:14Z</time>
      </trkpt>
      <trkpt lat="48.34051" lon="-3.89806">
        <ele>255</ele>
        <time>2017-01-14T05:50:14Z</time>
      </trkpt>
      <trkpt lat="48.34022" lon="-3.89822">
        <ele>253</ele>
        <time>2017-01-14T05:52:14Z</time>
      </trkpt>
      <trkpt lat="48.34027" lon="-3.89811">
        <ele>253</ele>
        <time>2017-01-14T05:54:14Z</time>
      </trkpt>
      <trkpt lat="48.34033" lon="-3.89798">
        <ele>254</ele>
        <time>2017-01-14T05:56:14Z</time>
      </trkpt>
      <trkpt lat="48.34034" lon="-3.89791">
        <ele>254</ele>
        <time>2017-01-14T05:58:14Z</time>
      </trkpt>
      <trkpt lat="48.34034" lon="-3.89788">
        <ele>254</ele>
        <time>2017-01-14T06:00:14Z</time>
      </trkpt>
      <trkpt lat="48.34032" lon="-3.89775">
        <ele>254</ele>
        <time>2017-01-14T06:02:14Z</time>
      </trkpt>
      <trkpt lat="48.34033" lon="-3.89773">
        <ele>254</ele>
        <time>2017-01-14T06:04:14Z</time>
      </trkpt>
      <trkpt lat="48.34035" lon="-3.89772">
        <ele>254</ele>
        <time>2017-01-14T06:06:14Z</time>
      </trkpt>
      <trkpt lat="48.34032" lon="-3.89767">
        <ele>254</ele>
        <time>2017-01-14T06:08:14Z</time>
      </trkpt>
      <trkpt lat="48.34026" lon="-3.89754">
        <ele>254</ele>
        <time>2017-01-14T06:10:14Z</time>
      </trkpt>
      <trkpt lat="48.34019" lon="-3.89731">
        <ele>254</ele>
        <time>2017-01-14T06:12:14Z</time>
      </trkpt>
      <trkpt lat="48.34006" lon="-3.89694">
        <ele>255</ele>
        <time>2017-01-14T06:14:14Z</time>
      </trkpt>
      <trkpt lat="48.34002" lon="-3.89665">
        <ele>255</ele>
        <time>2017-01-14T06:16:14Z</time>
      </trkpt>
      <trkpt lat="48.3399" lon="-3.89632">
        <ele>255</ele>
        <time>2017-01-14T06:18:14Z</time>
      </trkpt>
      <trkpt lat="48.3398" lon="-3.89598">
        <ele>255</ele>
        <time>2017-01-14T06:20:14Z</time>
      </trkpt>
      <trkpt lat="48.33967" lon="-3.89568">
        <ele>254</ele>
        <time>2017-01-14T06:22:14Z</time>
      </trkpt>
      <trkpt lat="48.33953" lon="-3.89534">
        <ele>254</ele>
        <time>2017-01-14T06:24:14Z</time>
      </trkpt>
      <trkpt lat="48.33947" lon="-3.89494">
        <ele>255</ele>
        <time>2017-01-14T06:26:14Z</time>
      </trkpt>
      <trkpt lat="48.33946" lon="-3.89492">
        <ele>255</ele>
        <time>2017-01-14T06:28:14Z</time>
      </trkpt>
      <trkpt lat="48.33946" lon="-3.89491">
        <ele>255</ele>
        <time>2017-01-14T06:30:14Z</time>
      </trkpt>
      <trkpt lat="48.33943" lon="-3.89482">
        <ele>255</ele>
        <time>2017-01-14T06:32:14Z</time>
      </trkpt>
      <trkpt lat="48.33942" lon="-3.8948">
        <ele>254</ele>
        <time>2017-01-14T06:34:14Z</time>
      </trkpt>
      <trkpt lat="48.33922" lon="-3.89451">
        <ele>254</ele>
        <time>2017-01-14T06:36:14Z</time>
      </trkpt>
      <trkpt lat="48.33917" lon="-3.89439">
        <ele>254</ele>
        <time>2017-01-14T06:38:14Z</time>
      </trkpt>
      <trkpt lat="48.33899" lon="-3.894">
        <ele>253</ele>
        <time>2017-01-14T06:40:14Z</time>
      </trkpt>
      <trkpt lat="48.33892" lon="-3.89375">
        <ele>253</ele>
        <time>2017-01-14T06:42:14Z</time>
      </trkpt>
      <trkpt lat="48.33876" lon="-3.89346">
        <ele>252</ele>
        <time>2017-01-14T06:44:14Z</time>
      </trkpt>
      <trkpt lat="48.33849" lon="-3.89307">
        <ele>252</ele>
        <time>2017-01-14T06:46:14Z</time>
      </trkpt>
      <trkpt lat="48.33846" lon="-3.89301">
        <ele>252</ele>
        <time>2017-01-14T06:48:14Z</time>
      </trkpt>
      <trkpt lat="48.33833" lon="-3.8926">
        <ele>253</ele>
        <time>2017-01-14T06:50:14Z</time>
      </trkpt>
      <trkpt lat="48.33811" lon="-3.89198">
        <ele>255</ele>
        <time>2017-01-14T06:52:14Z</time>
      </trkpt>
      <trkpt lat="48.3381" lon="-3.89191">
        <ele>255</ele>
        <time>2017-01-14T06:54:14Z</time>
      </trkpt>
      <trkpt lat="48.33804" lon="-3.8916">
        <ele>256</ele>
        <time>2017-01-14T06:56:14Z</time>
      </trkpt>
      <trkpt lat="48.33795" lon="-3.89127">
        <ele>257</ele>
        <time>2017-01-14T06:58:14Z</time>
      </trkpt>
      <trkpt lat="48.33796" lon="-3.89115">
        <ele>258</ele>
        <time>2017-01-14T07:00:14Z</time>
      </trkpt>
      <trkpt lat="48.33796" lon="-3.89109">
        <ele>258</ele>
        <time>2017-01-14T07:02:14Z</time>
      </trkpt>
      <trkpt lat="48.3379" lon="-3.89076">
        <ele>259</ele>
        <time>2017-01-14T07:04:14Z</time>
      </trkpt>
      <trkpt lat="48.33782" lon="-3.89029">
        <ele>260</ele>
        <time>2017-01-14T07:06:14Z</time>
      </trkpt>
      <trkpt lat="48.33776" lon="-3.89006">
        <ele>261</ele>
        <time>2017-01-14T07:08:14Z</time>
      </trkpt>
      <trkpt lat="48.3377" lon="-3.88981">
        <ele>261</ele>
        <time>2017-01-14T07:10:14Z</time>
      </trkpt>
      <trkpt lat="48.33762" lon="-3.88948">
        <ele>262</ele>
        <time>2017-01-14T07:12:14Z</time>
      </trkpt>
      <trkpt lat="48.33751" lon="-3.88917">
        <ele>262</ele>
        <time>2017-01-14T07:14:14Z</time>
      </trkpt>
      <trkpt lat="48.3374" lon="-3.88878">
        <ele>264</ele>
        <time>2017-01-14T07:16:14Z</time>
      </trkpt>
      <trkpt lat="48.33727" lon="-3.88841">
        <ele>265</ele>
        <time>2017-01-14T07:18:14Z</time>
      </trkpt>
      <trkpt lat="48.33701" lon="-3.88769">
        <ele>267</ele>
        <time>2017-01-14T07:20:14Z</time>
      </trkpt>
      <trkpt lat="48.33686" lon="-3.88735">
        <ele>267</ele>
        <time>2017-01-14T07:22:14Z</time>
      </trkpt>
      <trkpt lat="48.33673" lon="-3.88707">
        <ele>267</ele>
        <time>2017-01-14T07:24:14Z</time>
      </trkpt>
      <trkpt lat="48.33658" lon="-3.88679">
        <ele>267</ele>
        <time>2017-01-14T07:26:14Z</time>
      </trkpt>
      <trkpt lat="48.33646" lon="-3.88642">
        <ele>267</ele>
        <time>2017-01-14T07:28:14Z</time>
      </trkpt>
      <trkpt lat="48.33621" lon="-3.88578">
        <ele>266</ele>
        <time>2017-01-14T07:30:14Z</time>
      </trkpt>
      <trkpt lat="48.33609" lon="-3.88544">
        <ele>266</ele>
        <time>2017-01-14T07:32:14Z</time>
      </trkpt>
      <trkpt lat="48.33597" lon="-3.88514">
        <ele>266</ele>
        <time>2017-01-14T07:34:14Z</time>
      </trkpt>
      <trkpt lat="48.33583" lon="-3.88479">
        <ele>265</ele>
        <time>2017-01-14T07:36:14Z</time>
      </trkpt>
      <trkpt lat="48.33575" lon="-3.88453">
        <ele>266</ele>
        <time>2017-01-14T07:38:14Z</time>
      </trkpt>
      <trkpt lat="48.33561" lon="-3.88418">
        <ele>265</ele>
        <time>2017-01-14T07:40:14Z</time>
      </trkpt>
      <trkpt lat="48.33556" lon="-3.88402">
        <ele>266</ele>
        <time>2017-01-14T07:42:14Z</time>
      </trkpt>
      <trkpt lat="48.33543" lon="-3.88373">
        <ele>265</ele>
        <time>2017-01-14T07:44:14Z</time>
      </trkpt>
      <trkpt lat="48.3354" lon="-3.88364">
        <ele>265</ele>
        <time>2017-01-14T07:46:14Z</time>
      </trkpt>
      <trkpt lat="48.33531" lon="-3.88323">
        <ele>266</ele>
        <time>2017-01-14T07:48:14Z</time>
      </trkpt>
      <trkpt lat="48.3352" lon="-3.88292">
        <ele>265</ele>
        <time>2017-01-14T07:50:14Z</time>
      </trkpt>
      <trkpt lat="48.33501" lon="-3.88229">
        <ele>265</ele>
        <time>2017-01-14T07:52:14Z</time>
      </trkpt>
      <trkpt lat="48.33491" lon="-3.88201">
        <ele>265</ele>
        <time>2017-01-14T07:54:14Z</time>
      </trkpt>
      <trkpt lat="48.33483" lon="-3.88171">
        <ele>265</ele>
        <time>2017-01-14T07:56:14Z</time>
      </trkpt>
      <trkpt lat="48.33472" lon="-3.88136">
        <ele>266</ele>
        <time>2017-01-14T07:58:14Z</time>
      </trkpt>
      <trkpt lat="48.33463" lon="-3.88101">
        <ele>267</ele>
        <time>2017-01-14T08:00:14Z</time>
      </trkpt>
      <trkpt lat="48.33451" lon="-3.88068">
        <ele>267</ele>
        <time>2017-01-14T08:02:14Z</time>
      </trkpt>
      <trkpt lat="48.33441" lon="-3.88035">
        <ele>267</ele>
        <time>2017-01-14T08:04:14Z</time>
      </trkpt>
      <trkpt lat="48.33431" lon="-3.88001">
        <ele>266</ele>
        <time>2017-01-14T08:06:14Z</time>
      </trkpt>
      <trkpt lat="48.33421" lon="-3.87968">
        <ele>266</ele>
        <time>2017-01-14T08:08:14Z</time>
      </trkpt>
      <trkpt lat="48.33412" lon="-3.87933">
        <ele>266</ele>
        <time>2017-01-14T08:10:14Z</time>
      </trkpt>
      <trkpt lat="48.33401" lon="-3.87896">
        <ele>266</ele>
        <time>2017-01-14T08:12:14Z</time>
      </trkpt>
      <trkpt lat="48.33394" lon="-3.87866">
        <ele>266</ele>
        <time>2017-01-14T08:14:14Z</time>
      </trkpt>
      <trkpt lat="48.33386" lon="-3.8784">
        <ele>266</ele>
        <time>2017-01-14T08:16:14Z</time>
      </trkpt>
      <trkpt lat="48.33373" lon="-3.87802">
        <ele>266</ele>
        <time>2017-01-14T08:18:14Z</time>
      </trkpt>
      <trkpt lat="48.3336" lon="-3.8776">
        <ele>266</ele>
        <time>2017-01-14T08:20:14Z</time>
      </trkpt>
      <trkpt lat="48.33354" lon="-3.87735">
        <ele>265</ele>
        <time>2017-01-14T08:22:14Z</time>
      </trkpt>
      <trkpt lat="48.33354" lon="-3.87733">
        <ele>265</ele>
        <time>2017-01-14T08:24:14Z</time>
      </trkpt>
      <trkpt lat="48.33354" lon="-3.87731">
        <ele>265</ele>
        <time>2017-01-14T08:26:14Z</time>
      </trkpt>
      <trkpt lat="48.33353" lon="-3.87728">
        <ele>265</ele>
        <time>2017-01-14T08:28:14Z</time>
      </trkpt>
      <trkpt lat="48.33344" lon="-3.87682">
        <ele>265</ele>
        <time>2017-01-14T08:30:14Z</time>
      </trkpt>
      <trkpt lat="48.33343" lon="-3.87674">
        <ele>265</ele>
        <time>2017-01-14T08:32:14Z</time>
      </trkpt>
      <trkpt lat="48.33341" lon="-3.87653">
        <ele>266</ele>
        <time>2017-01-14T08:34:14Z</time>
      </trkpt>
      <trkpt lat="48.33333" lon="-3.87619">
        <ele>266</ele>
        <time>2017-01-14T08:36:14Z</time>
      </trkpt>
      <trkpt lat="48.33331" lon="-3.87613">
        <ele>266</ele>
        <time>2017-01-14T08:38:14Z</time>
      </trkpt>
      <trkpt lat="48.33333" lon="-3.876">
        <ele>267</ele>
        <time>2017-01-14T08:40:14Z</time>
      </trkpt>
      <trkpt lat="48.33333" lon="-3.87594">
        <ele>267</ele>
        <time>2017-01-14T08:42:14Z</time>
      </trkpt>
      <trkpt lat="48.33325" lon="-3.87562">
        <ele>267</ele>
        <time>2017-01-14T08:44:14Z</time>
      </trkpt>
      <trkpt lat="48.33324" lon="-3.87557">
        <ele>267</ele>
        <time>2017-01-14T08:46:14Z</time>
      </trkpt>
      <trkpt lat="48.33321" lon="-3.87547">
        <ele>268</ele>
        <time>2017-01-14T08:48:14Z</time>
      </trkpt>
      <trkpt lat="48.3332" lon="-3.87539">
        <ele>268</ele>
        <time>2017-01-14T08:50:14Z</time>
      </trkpt>
      <trkpt lat="48.33311" lon="-3.87498">
        <ele>269</ele>
        <time>2017-01-14T08:52:14Z</time>
      </trkpt>
      <trkpt lat="48.33302" lon="-3.87463">
        <ele>269</ele>
        <time>2017-01-14T08:54:14Z</time>
      </trkpt>
      <trkpt lat="48.33284" lon="-3.87407">
        <ele>270</ele>
        <time>2017-01-14T08:56:14Z</time>
      </trkpt>
      <trkpt lat="48.33277" lon="-3.87373">
        <ele>271</ele>
        <time>2017-01-14T08:58:14Z</time>
      </trkpt>
      <trkpt lat="48.33274" lon="-3.87359">
        <ele>272</ele>
        <time>2017-01-14T09:00:14Z</time>
      </trkpt>
      <trkpt lat="48.33275" lon="-3.87348">
        <ele>272</ele>
        <time>2017-01-14T09:02:14Z</time>
      </trkpt>
      <trkpt lat="48.33276" lon="-3.87332">
        <ele>273</ele>
        <time>2017-01-14T09:04:14Z</time>
      </trkpt>
      <trkpt lat="48.33272" lon="-3.87292">
        <ele>273</ele>
        <time>2017-01-14T09:06:14Z</time>
      </trkpt>
      <trkpt lat="48.33268" lon="-3.87261">
        <ele>274</ele>
        <time>2017-01-14T09:08:14Z</time>
      </trkpt>
      <trkpt lat="48.33258" lon="-3.87231">
        <ele>275</ele>
        <time>2017-01-14T09:10:14Z</time>
      </trkpt>
      <trkpt lat="48.33248" lon="-3.87193">
        <ele>276</ele>
        <time>2017-01-14T09:12:14Z</time>
      </trkpt>
      <trkpt lat="48.33228" lon="-3.87133">
        <ele>279</ele>
        <time>2017-01-14T09:14:14Z</time>
      </trkpt>
      <trkpt lat="48.33208" lon="-3.87055">
        <ele>282</ele>
        <time>2017-01-14T09:16:14Z</time>
      </trkpt>
      <trkpt lat="48.33199" lon="-3.8703">
        <ele>283</ele>
        <time>2017-01-14T09:18:14Z</time>
      </trkpt>
      <trkpt lat="48.33189" lon="-3.86995">
        <ele>285</ele>
        <time>2017-01-14T09:20:14Z</time>
      </trkpt>
      <trkpt lat="48.33184" lon="-3.8697">
        <ele>285</ele>
        <time>2017-01-14T09:22:14Z</time>
      </trkpt>
      <trkpt lat="48.33181" lon="-3.86946">
        <ele>286</ele>
        <time>2017-01-14T09:24:14Z</time>
      </trkpt>
      <trkpt lat="48.33167" lon="-3.86909">
        <ele>286</ele>
        <time>2017-01-14T09:26:14Z</time>
      </trkpt>
      <trkpt lat="48.33158" lon="-3.86885">
        <ele>286</ele>
        <time>2017-01-14T09:28:14Z</time>
      </trkpt>
      <trkpt lat="48.33141" lon="-3.86853">
        <ele>285</ele>
        <time>2017-01-14T09:30:14Z</time>
      </trkpt>
      <trkpt lat="48.33135" lon="-3.86836">
        <ele>285</ele>
        <time>2017-01-14T09:32:14Z</time>
      </trkpt>
      <trkpt lat="48.33125" lon="-3.86812">
        <ele>285</ele>
        <time>2017-01-14T09:34:14Z</time>
      </trkpt>
      <trkpt lat="48.33112" lon="-3.86771">
        <ele>285</ele>
        <time>2017-01-14T09:36:14Z</time>
      </trkpt>
      <trkpt lat="48.33109" lon="-3.86763">
        <ele>285</ele>
        <time>2017-01-14T09:38:14Z</time>
      </trkpt>
      <trkpt lat="48.33096" lon="-3.86723">
        <ele>285</ele>
        <time>2017-01-14T09:40:14Z</time>
      </trkpt>
      <trkpt lat="48.33087" lon="-3.86691">
        <ele>285</ele>
        <time>2017-01-14T09:42:14Z</time>
      </trkpt>
      <trkpt lat="48.33074" lon="-3.86654">
        <ele>285</ele>
        <time>2017-01-14T09:44:14Z</time>
      </trkpt>
      <trkpt lat="48.33065" lon="-3.86621">
        <ele>284</ele>
        <time>2017-01-14T09:46:14Z</time>
      </trkpt>
      <trkpt lat="48.33055" lon="-3.86586">
        <ele>283</ele>
        <time>2017-01-14T09:48:14Z</time>
      </trkpt>
      <trkpt lat="48.33049" lon="-3.86553">
        <ele>282</ele>
        <time>2017-01-14T09:50:14Z</time>
      </trkpt>
      <trkpt lat="48.33043" lon="-3.86534">
        <ele>281</ele>
        <time>2017-01-14T09:52:14Z</time>
      </trkpt>
      <trkpt lat="48.33042" lon="-3.86522">
        <ele>281</ele>
        <time>2017-01-14T09:54:14Z</time>
      </trkpt>
      <trkpt lat="48.33031" lon="-3.86483">
        <ele>279</ele>
        <time>2017-01-14T09:56:14Z</time>
      </trkpt>
      <trkpt lat="48.33023" lon="-3.86453">
        <ele>278</ele>
        <time>2017-01-14T09:58:14Z</time>
      </trkpt>
      <trkpt lat="48.33008" lon="-3.86413">
        <ele>277</ele>
        <time>2017-01-14T10:00:14Z</time>
      </trkpt>
      <trkpt lat="48.32978" lon="-3.86352">
        <ele>274</ele>
        <time>2017-01-14T10:02:14Z</time>
      </trkpt>
      <trkpt lat="48.32958" lon="-3.86278">
        <ele>272</ele>
        <time>2017-01-14T10:04:14Z</time>
      </trkpt>
      <trkpt lat="48.32951" lon="-3.86244">
        <ele>271</ele>
        <time>2017-01-14T10:06:14Z</time>
      </trkpt>
      <trkpt lat="48.32943" lon="-3.8621">
        <ele>271</ele>
        <time>2017-01-14T10:08:14Z</time>
      </trkpt>
      <trkpt lat="48.32934" lon="-3.86165">
        <ele>270</ele>
        <time>2017-01-14T10:10:14Z</time>
      </trkpt>
      <trkpt lat="48.32923" lon="-3.86127">
        <ele>268</ele>
        <time>2017-01-14T10:12:14Z</time>
      </trkpt>
      <trkpt lat="48.32912" lon="-3.86087">
        <ele>267</ele>
        <time>2017-01-14T10:14:14Z</time>
      </trkpt>
      <trkpt lat="48.32903" lon="-3.86062">
        <ele>266</ele>
        <time>2017-01-14T10:16:14Z</time>
      </trkpt>
      <trkpt lat="48.32899" lon="-3.86054">
        <ele>265</ele>
        <time>2017-01-14T10:18:14Z</time>
      </trkpt>
      <trkpt lat="48.32875" lon="-3.85983">
        <ele>263</ele>
        <time>2017-01-14T10:20:14Z</time>
      </trkpt>
      <trkpt lat="48.32863" lon="-3.85936">
        <ele>263</ele>
        <time>2017-01-14T10:22:14Z</time>
      </trkpt>
      <trkpt lat="48.32853" lon="-3.85898">
        <ele>263</ele>
        <time>2017-01-14T10:24:14Z</time>
      </trkpt>
      <trkpt lat="48.32838" lon="-3.85858">
        <ele>263</ele>
        <time>2017-01-14T10:26:14Z</time>
      </trkpt>
      <trkpt lat="48.32827" lon="-3.85814">
        <ele>262</ele>
        <time>2017-01-14T10:28:14Z</time>
      </trkpt>
      <trkpt lat="48.32818" lon="-3.85777">
        <ele>262</ele>
        <time>2017-01-14T10:30:14Z</time>
      </trkpt>
      <trkpt lat="48.32815" lon="-3.85732">
        <ele>262</ele>
        <time>2017-01-14T10:32:14Z</time>
      </trkpt>
      <trkpt lat="48.32807" lon="-3.85684">
        <ele>261</ele>
        <time>2017-01-14T10:34:14Z</time>
      </trkpt>
      <trkpt lat="48.32805" lon="-3.85673">
        <ele>261</ele>
        <time>2017-01-14T10:36:14Z</time>
      </trkpt>
      <trkpt lat="48.32796" lon="-3.85635">
        <ele>262</ele>
        <time>2017-01-14T10:38:14Z</time>
      </trkpt>
      <trkpt lat="48.32784" lon="-3.85592">
        <ele>262</ele>
        <time>2017-01-14T10:40:14Z</time>
      </trkpt>
      <trkpt lat="48.32776" lon="-3.85553">
        <ele>262</ele>
        <time>2017-01-14T10:42:14Z</time>
      </trkpt>
      <trkpt lat="48.32771" lon="-3.85506">
        <ele>261</ele>
        <time>2017-01-14T10:44:14Z</time>
      </trkpt>
      <trkpt lat="48.32763" lon="-3.85487">
        <ele>260</ele>
        <time>2017-01-14T10:46:14Z</time>
      </trkpt>
      <trkpt lat="48.32739" lon="-3.85441">
        <ele>260</ele>
        <time>2017-01-14T10:48:14Z</time>
      </trkpt>
      <trkpt lat="48.32736" lon="-3.8543">
        <ele>260</ele>
        <time>2017-01-14T10:50:14Z</time>
      </trkpt>
      <trkpt lat="48.32731" lon="-3.85414">
        <ele>259</ele>
        <time>2017-01-14T10:52:14Z</time>
      </trkpt>
      <trkpt lat="48.32731" lon="-3.85412">
        <ele>259</ele>
        <time>2017-01-14T10:54:14Z</time>
      </trkpt>
      <trkpt lat="48.3273" lon="-3.85404">
        <ele>259</ele>
        <time>2017-01-14T10:56:14Z</time>
      </trkpt>
      <trkpt lat="48.32709" lon="-3.85373">
        <ele>260</ele>
        <time>2017-01-14T10:58:14Z</time>
      </trkpt>
      <trkpt lat="48.32691" lon="-3.85335">
        <ele>260</ele>
        <time>2017-01-14T11:00:14Z</time>
      </trkpt>
      <trkpt lat="48.32682" lon="-3.85308">
        <ele>261</ele>
        <time>2017-01-14T11:02:14Z</time>
      </trkpt>
      <trkpt lat="48.32674" lon="-3.85265">
        <ele>263</ele>
        <time>2017-01-14T11:04:14Z</time>
      </trkpt>
      <trkpt lat="48.3267" lon="-3.85207">
        <ele>264</ele>
        <time>2017-01-14T11:06:14Z</time>
      </trkpt>
      <trkpt lat="48.32663" lon="-3.85171">
        <ele>264</ele>
        <time>2017-01-14T11:08:14Z</time>
      </trkpt>
      <trkpt lat="48.32654" lon="-3.85128">
        <ele>264</ele>
        <time>2017-01-14T11:10:14Z</time>
      </trkpt>
      <trkpt lat="48.32654" lon="-3.85127">
        <ele>264</ele>
        <time>2017-01-14T11:12:14Z</time>
      </trkpt>
      <trkpt lat="48.32649" lon="-3.85093">
        <ele>263</ele>
        <time>2017-01-14T11:14:14Z</time>
      </trkpt>
      <trkpt lat="48.32651" lon="-3.85087">
        <ele>263</ele>
        <time>2017-01-14T11:16:14Z</time>
      </trkpt>
      <trkpt lat="48.32656" lon="-3.85079">
        <ele>263</ele>
        <time>2017-01-14T11:18:14Z</time>
      </trkpt>
      <trkpt lat="48.32672" lon="-3.85064">
        <ele>263</ele>
        <time>2017-01-14T11:20:14Z</time>
      </trkpt>
      <trkpt lat="48.32674" lon="-3.85061">
        <ele>263</ele>
        <time>2017-01-14T11:22:14Z</time>
      </trkpt>
      <trkpt lat="48.32695" lon="-3.85034">
        <ele>262</ele>
        <time>2017-01-14T11:24:14Z</time>
      </trkpt>
      <trkpt lat="48.32698" lon="-3.8503">
        <ele>262</ele>
        <time>2017-01-14T11:26:14Z</time>
      </trkpt>
      <trkpt lat="48.32719" lon="-3.85002">
        <ele>260</ele>
        <time>2017-01-14T11:28:14Z</time>
      </trkpt>
      <trkpt lat="48.32742" lon="-3.84973">
        <ele>259</ele>
        <time>2017-01-14T11:30:14Z</time>
      </trkpt>
      <trkpt lat="48.32771" lon="-3.8493">
        <ele>259</ele>
        <time>2017-01-14T11:32:14Z</time>
      </trkpt>
      <trkpt lat="48.32771" lon="-3.84928">
        <ele>259</ele>
        <time>2017-01-14T11:34:14Z</time>
      </trkpt>
      <trkpt lat="48.32773" lon="-3.84928">
        <ele>259</ele>
        <time>2017-01-14T11:36:14Z</time>
      </trkpt>
      <trkpt lat="48.32774" lon="-3.84927">
        <ele>259</ele>
        <time>2017-01-14T11:38:14Z</time>
      </trkpt>
      <trkpt lat="48.32779" lon="-3.84924">
        <ele>259</ele>
        <time>2017-01-14T11:40:14Z</time>
      </trkpt>
      <trkpt lat="48.32803" lon="-3.84913">
        <ele>258</ele>
        <time>2017-01-14T11:42:14Z</time>
      </trkpt>
      <trkpt lat="48.32833" lon="-3.84897">
        <ele>257</ele>
        <time>2017-01-14T11:44:14Z</time>
      </trkpt>
      <trkpt lat="48.32834" lon="-3.84897">
        <ele>257</ele>
        <time>2017-01-14T11:46:14Z</time>
      </trkpt>
      <trkpt lat="48.32849" lon="-3.84907">
        <ele>256</ele>
        <time>2017-01-14T11:48:14Z</time>
      </trkpt>
      <trkpt lat="48.32884" lon="-3.84897">
        <ele>255</ele>
        <time>2017-01-14T11:50:14Z</time>
      </trkpt>
      <trkpt lat="48.32916" lon="-3.84887">
        <ele>254</ele>
        <time>2017-01-14T11:52:14Z</time>
      </trkpt>
      <trkpt lat="48.32942" lon="-3.84881">
        <ele>253</ele>
        <time>2017-01-14T11:54:14Z</time>
      </trkpt>
      <trkpt lat="48.32971" lon="-3.84879">
        <ele>252</ele>
        <time>2017-01-14T11:56:14Z</time>
      </trkpt>
      <trkpt lat="48.3299" lon="-3.84874">
        <ele>252</ele>
        <time>2017-01-14T11:58:14Z</time>
      </trkpt>
      <trkpt lat="48.33022" lon="-3.8487">
        <ele>251</ele>
        <time>2017-01-14T12:00:14Z</time>
      </trkpt>
      <trkpt lat="48.33047" lon="-3.84861">
        <ele>250</ele>
        <time>2017-01-14T12:02:14Z</time>
      </trkpt>
      <trkpt lat="48.33075" lon="-3.84845">
        <ele>249</ele>
        <time>2017-01-14T12:04:14Z</time>
      </trkpt>
      <trkpt lat="48.33101" lon="-3.84828">
        <ele>248</ele>
        <time>2017-01-14T12:06:14Z</time>
      </trkpt>
      <trkpt lat="48.33123" lon="-3.84806">
        <ele>247</ele>
        <time>2017-01-14T12:08:14Z</time>
      </trkpt>
      <trkpt lat="48.33149" lon="-3.84773">
        <ele>246</ele>
        <time>2017-01-14T12:10:14Z</time>
      </trkpt>
      <trkpt lat="48.33175" lon="-3.84756">
        <ele>246</ele>
        <time>2017-01-14T12:12:14Z</time>
      </trkpt>
      <trkpt lat="48.33175" lon="-3.84755">
        <ele>246</ele>
        <time>2017-01-14T12:14:14Z</time>
      </trkpt>
      <trkpt lat="48.33175" lon="-3.84749">
        <ele>246</ele>
        <time>2017-01-14T12:16:14Z</time>
      </trkpt>
      <trkpt lat="48.33203" lon="-3.84726">
        <ele>244</ele>
        <time>2017-01-14T12:18:14Z</time>
      </trkpt>
      <trkpt lat="48.33228" lon="-3.84718">
        <ele>243</ele>
        <time>2017-01-14T12:20:14Z</time>
      </trkpt>
      <trkpt lat="48.33231" lon="-3.8472">
        <ele>243</ele>
        <time>2017-01-14T12:22:14Z</time>
      </trkpt>
      <trkpt lat="48.33256" lon="-3.84722">
        <ele>242</ele>
        <time>2017-01-14T12:24:14Z</time>
      </trkpt>
      <trkpt lat="48.33287" lon="-3.84729">
        <ele>241</ele>
        <time>2017-01-14T12:26:14Z</time>
      </trkpt>
      <trkpt lat="48.3332" lon="-3.84752">
        <ele>240</ele>
        <time>2017-01-14T12:28:14Z</time>
      </trkpt>
      <trkpt lat="48.33353" lon="-3.84766">
        <ele>240</ele>
        <time>2017-01-14T12:30:14Z</time>
      </trkpt>
      <trkpt lat="48.33376" lon="-3.84782">
        <ele>239</ele>
        <time>2017-01-14T12:32:14Z</time>
      </trkpt>
      <trkpt lat="48.33402" lon="-3.8481">
        <ele>238</ele>
        <time>2017-01-14T12:34:14Z</time>
      </trkpt>
      <trkpt lat="48.33421" lon="-3.8484">
        <ele>238</ele>
        <time>2017-01-14T12:36:14Z</time>
      </trkpt>
      <trkpt lat="48.33445" lon="-3.84872">
        <ele>238</ele>
        <time>2017-01-14T12:38:14Z</time>
      </trkpt>
      <trkpt lat="48.33459" lon="-3.8489">
        <ele>237</ele>
        <time>2017-01-14T12:40:14Z</time>
      </trkpt>
      <trkpt lat="48.33484" lon="-3.84924">
        <ele>236</ele>
        <time>2017-01-14T12:42:14Z</time>
      </trkpt>
      <trkpt lat="48.33502" lon="-3.84947">
        <ele>236</ele>
        <time>2017-01-14T12:44:14Z</time>
      </trkpt>
      <trkpt lat="48.33521" lon="-3.84974">
        <ele>235</ele>
        <time>2017-01-14T12:46:14Z</time>
      </trkpt>
      <trkpt lat="48.33541" lon="-3.85004">
        <ele>235</ele>
        <time>2017-01-14T12:48:14Z</time>
      </trkpt>
      <trkpt lat="48.33563" lon="-3.85032">
        <ele>235</ele>
        <time>2017-01-14T12:50:14Z</time>
      </trkpt>
      <trkpt lat="48.3358" lon="-3.85049">
        <ele>235</ele>
        <time>2017-01-14T12:52:14Z</time>
      </trkpt>
      <trkpt lat="48.33599" lon="-3.85063">
        <ele>234</ele>
        <time>2017-01-14T12:54:14Z</time>
      </trkpt>
      <trkpt lat="48.33605" lon="-3.85066">
        <ele>234</ele>
        <time>2017-01-14T12:56:14Z</time>
      </trkpt>
      <trkpt lat="48.33617" lon="-3.85067">
        <ele>234</ele>
        <time>2017-01-14T12:58:14Z</time>
      </trkpt>
      <trkpt lat="48.3365" lon="-3.85058">
        <ele>234</ele>
        <time>2017-01-14T13:00:14Z</time>
      </trkpt>
      <trkpt lat="48.33672" lon="-3.85039">
        <ele>234</ele>
        <time>2017-01-14T13:02:14Z</time>
      </trkpt>
      <trkpt lat="48.33692" lon="-3.85014">
        <ele>233</ele>
        <time>2017-01-14T13:04:14Z</time>
      </trkpt>
      <trkpt lat="48.33705" lon="-3.84987">
        <ele>232</ele>
        <time>2017-01-14T13:06:14Z</time>
      </trkpt>
      <trkpt lat="48.33721" lon="-3.84951">
        <ele>231</ele>
        <time>2017-01-14T13:08:14Z</time>
      </trkpt>
      <trkpt lat="48.33735" lon="-3.84917">
        <ele>230</ele>
        <time>2017-01-14T13:10:14Z</time>
      </trkpt>
      <trkpt lat="48.33744" lon="-3.84889">
        <ele>228</ele>
        <time>2017-01-14T13:12:14Z</time>
      </trkpt>
      <trkpt lat="48.3376" lon="-3.8485">
        <ele>227</ele>
        <time>2017-01-14T13:14:14Z</time>
      </trkpt>
      <trkpt lat="48.33771" lon="-3.84818">
        <ele>226</ele>
        <time>2017-01-14T13:16:14Z</time>
      </trkpt>
      <trkpt lat="48.33784" lon="-3.84789">
        <ele>225</ele>
        <time>2017-01-14T13:18:14Z</time>
      </trkpt>
      <trkpt lat="48.33801" lon="-3.84756">
        <ele>224</ele>
        <time>2017-01-14T13:20:14Z</time>
      </trkpt>
      <trkpt lat="48.33819" lon="-3.84734">
        <ele>224</ele>
        <time>2017-01-14T13:22:14Z</time>
      </trkpt>
      <trkpt lat="48.3384" lon="-3.84713">
        <ele>224</ele>
        <time>2017-01-14T13:24:14Z</time>
      </trkpt>
      <trkpt lat="48.33868" lon="-3.84695">
        <ele>225</ele>
        <time>2017-01-14T13:26:14Z</time>
      </trkpt>
      <trkpt lat="48.33899" lon="-3.84692">
        <ele>224</ele>
        <time>2017-01-14T13:28:14Z</time>
      </trkpt>
      <trkpt lat="48.33933" lon="-3.8469">
        <ele>224</ele>
        <time>2017-01-14T13:30:14Z</time>
      </trkpt>
      <trkpt lat="48.33963" lon="-3.84689">
        <ele>224</ele>
        <time>2017-01-14T13:32:14Z</time>
      </trkpt>
      <trkpt lat="48.33996" lon="-3.84688">
        <ele>224</ele>
        <time>2017-01-14T13:34:14Z</time>
      </trkpt>
      <trkpt lat="48.34024" lon="-3.84685">
        <ele>223</ele>
        <time>2017-01-14T13:36:14Z</time>
      </trkpt>
      <trkpt lat="48.34057" lon="-3.84687">
        <ele>223</ele>
        <time>2017-01-14T13:38:14Z</time>
      </trkpt>
      <trkpt lat="48.34087" lon="-3.84681">
        <ele>223</ele>
        <time>2017-01-14T13:40:14Z</time>
      </trkpt>
      <trkpt lat="48.34121" lon="-3.84683">
        <ele>223</ele>
        <time>2017-01-14T13:42:14Z</time>
      </trkpt>
      <trkpt lat="48.34145" lon="-3.84682">
        <ele>224</ele>
        <time>2017-01-14T13:44:14Z</time>
      </trkpt>
      <trkpt lat="48.34148" lon="-3.84682">
        <ele>224</ele>
        <time>2017-01-14T13:46:14Z</time>
      </trkpt>
      <trkpt lat="48.34153" lon="-3.84683">
        <ele>224</ele>
        <time>2017-01-14T13:48:14Z</time>
      </trkpt>
      <trkpt lat="48.34184" lon="-3.8468">
        <ele>224</ele>
        <time>2017-01-14T13:50:14Z</time>
      </trkpt>
      <trkpt lat="48.34208" lon="-3.84684">
        <ele>223</ele>
        <time>2017-01-14T13:52:14Z</time>
      </trkpt>
      <trkpt lat="48.3424" lon="-3.84696">
        <ele>222</ele>
        <time>2017-01-14T13:54:14Z</time>
      </trkpt>
      <trkpt lat="48.34281" lon="-3.84707">
        <ele>220</ele>
        <time>2017-01-14T13:56:14Z</time>
      </trkpt>
      <trkpt lat="48.34313" lon="-3.84718">
        <ele>219</ele>
        <time>2017-01-14T13:58:14Z</time>
      </trkpt>
      <trkpt lat="48.34345" lon="-3.84727">
        <ele>219</ele>
        <time>2017-01-14T14:00:14Z</time>
      </trkpt>
      <trkpt lat="48.34368" lon="-3.84737">
        <ele>218</ele>
        <time>2017-01-14T14:02:14Z</time>
      </trkpt>
      <trkpt lat="48.34394" lon="-3.84745">
        <ele>218</ele>
        <time>2017-01-14T14:04:14Z</time>
      </trkpt>
      <trkpt lat="48.34403" lon="-3.84751">
        <ele>218</ele>
        <time>2017-01-14T14:06:14Z</time>
      </trkpt>
      <trkpt lat="48.34414" lon="-3.84749">
        <ele>218</ele>
        <time>2017-01-14T14:08:14Z</time>
      </trkpt>
      <trkpt lat="48.34451" lon="-3.84765">
        <ele>217</ele>
        <time>2017-01-14T14:10:14Z</time>
      </trkpt>
      <trkpt lat="48.34456" lon="-3.84764">
        <ele>217</ele>
        <time>2017-01-14T14:12:14Z</time>
      </trkpt>
      <trkpt lat="48.34488" lon="-3.84773">
        <ele>217</ele>
        <time>2017-01-14T14:14:14Z</time>
      </trkpt>
      <trkpt lat="48.3452" lon="-3.8478">
        <ele>218</ele>
        <time>2017-01-14T14:16:14Z</time>
      </trkpt>
      <trkpt lat="48.34555" lon="-3.84792">
        <ele>219</ele>
        <time>2017-01-14T14:18:14Z</time>
      </trkpt>
      <trkpt lat="48.34584" lon="-3.84804">
        <ele>220</ele>
        <time>2017-01-14T14:20:14Z</time>
      </trkpt>
      <trkpt lat="48.34613" lon="-3.84813">
        <ele>221</ele>
        <time>2017-01-14T14:22:14Z</time>
      </trkpt>
      <trkpt lat="48.34644" lon="-3.84815">
        <ele>222</ele>
        <time>2017-01-14T14:24:14Z</time>
      </trkpt>
      <trkpt lat="48.34681" lon="-3.84818">
        <ele>223</ele>
        <time>2017-01-14T14:26:14Z</time>
      </trkpt>
      <trkpt lat="48.34702" lon="-3.84823">
        <ele>224</ele>
        <time>2017-01-14T14:28:14Z</time>
      </trkpt>
      <trkpt lat="48.3474" lon="-3.84828">
        <ele>225</ele>
        <time>2017-01-14T14:30:14Z</time>
      </trkpt>
      <trkpt lat="48.34749" lon="-3.84827">
        <ele>225</ele>
        <time>2017-01-14T14:32:14Z</time>
      </trkpt>
      <trkpt lat="48.3478" lon="-3.84822">
        <ele>225</ele>
        <time>2017-01-14T14:34:14Z</time>
      </trkpt>
      <trkpt lat="48.34806" lon="-3.84808">
        <ele>224</ele>
        <time>2017-01-14T14:36:14Z</time>
      </trkpt>
      <trkpt lat="48.34836" lon="-3.84786">
        <ele>223</ele>
        <time>2017-01-14T14:38:14Z</time>
      </trkpt>
      <trkpt lat="48.34859" lon="-3.84762">
        <ele>223</ele>
        <time>2017-01-14T14:40:14Z</time>
      </trkpt>
      <trkpt lat="48.34883" lon="-3.84737">
        <ele>223</ele>
        <time>2017-01-14T14:42:14Z</time>
      </trkpt>
      <trkpt lat="48.34901" lon="-3.84717">
        <ele>223</ele>
        <time>2017-01-14T14:44:14Z</time>
      </trkpt>
      <trkpt lat="48.34919" lon="-3.84695">
        <ele>224</ele>
        <time>2017-01-14T14:46:14Z</time>
      </trkpt>
      <trkpt lat="48.34942" lon="-3.84685">
        <ele>224</ele>
        <time>2017-01-14T14:48:14Z</time>
      </trkpt>
      <trkpt lat="48.34962" lon="-3.84682">
        <ele>224</ele>
        <time>2017-01-14T14:50:14Z</time>
      </trkpt>
      <trkpt lat="48.3499" lon="-3.84681">
        <ele>224</ele>
        <time>2017-01-14T14:52:14Z</time>
      </trkpt>
      <trkpt lat="48.3502" lon="-3.84685">
        <ele>224</ele>
        <time>2017-01-14T14:54:14Z</time>
      </trkpt>
      <trkpt lat="48.35044" lon="-3.84685">
        <ele>223</ele>
        <time>2017-01-14T14:56:14Z</time>
      </trkpt>
      <trkpt lat="48.35072" lon="-3.84681">
        <ele>223</ele>
        <time>2017-01-14T14:58:14Z</time>
      </trkpt>
      <trkpt lat="48.35097" lon="-3.84672">
        <ele>223</ele>
        <time>2017-01-14T15:00:14Z</time>
      </trkpt>
      <trkpt lat="48.35132" lon="-3.84646">
        <ele>224</ele>
        <time>2017-01-14T15:02:14Z</time>
      </trkpt>
      <trkpt lat="48.35156" lon="-3.84623">
        <ele>225</ele>
        <time>2017-01-14T15:04:14Z</time>
      </trkpt>
      <trkpt lat="48.35176" lon="-3.84602">
        <ele>226</ele>
        <time>2017-01-14T15:06:14Z</time>
      </trkpt>
      <trkpt lat="48.35202" lon="-3.84583">
        <ele>226</ele>
        <time>2017-01-14T15:08:14Z</time>
      </trkpt>
      <trkpt lat="48.35225" lon="-3.84577">
        <ele>227</ele>
        <time>2017-01-14T15:10:14Z</time>
      </trkpt>
      <trkpt lat="48.35253" lon="-3.84579">
        <ele>228</ele>
        <time>2017-01-14T15:12:14Z</time>
      </trkpt>
      <trkpt lat="48.35288" lon="-3.84589">
        <ele>229</ele>
        <time>2017-01-14T15:14:14Z</time>
      </trkpt>
      <trkpt lat="48.35321" lon="-3.8459">
        <ele>229</ele>
        <time>2017-01-14T15:16:14Z</time>
      </trkpt>
      <trkpt lat="48.35351" lon="-3.84601">
        <ele>230</ele>
        <time>2017-01-14T15:18:14Z</time>
      </trkpt>
      <trkpt lat="48.35373" lon="-3.84619">
        <ele>231</ele>
        <time>2017-01-14T15:20:14Z</time>
      </trkpt>
      <trkpt lat="48.35395" lon="-3.84644">
        <ele>232</ele>
        <time>2017-01-14T15:22:14Z</time>
      </trkpt>
      <trkpt lat="48.35418" lon="-3.84678">
        <ele>234</ele>
        <time>2017-01-14T15:24:14Z</time>
      </trkpt>
      <trkpt lat="48.35438" lon="-3.84702">
        <ele>237</ele>
        <time>2017-01-14T15:26:14Z</time>
      </trkpt>
      <trkpt lat="48.35458" lon="-3.84711">
        <ele>237</ele>
        <time>2017-01-14T15:28:14Z</time>
      </trkpt>
      <trkpt lat="48.3547" lon="-3.84724">
        <ele>238</ele>
        <time>2017-01-14T15:30:14Z</time>
      </trkpt>
      <trkpt lat="48.35499" lon="-3.84739">
        <ele>239</ele>
        <time>2017-01-14T15:32:14Z</time>
      </trkpt>
      <trkpt lat="48.35506" lon="-3.8474">
        <ele>239</ele>
        <time>2017-01-14T15:34:14Z</time>
      </trkpt>
      <trkpt lat="48.35497" lon="-3.84739">
        <ele>239</ele>
        <time>2017-01-14T15:36:14Z</time>
      </trkpt>
      <trkpt lat="48.35479" lon="-3.84723">
        <ele>238</ele>
        <time>2017-01-14T15:38:14Z</time>
      </trkpt>
      <trkpt lat="48.35475" lon="-3.84722">
        <ele>238</ele>
        <time>2017-01-14T15:40:14Z</time>
      </trkpt>
      <trkpt lat="48.35472" lon="-3.84699">
        <ele>235</ele>
        <time>2017-01-14T15:42:14Z</time>
      </trkpt>
      <trkpt lat="48.35478" lon="-3.84674">
        <ele>232</ele>
        <time>2017-01-14T15:44:14Z</time>
      </trkpt>
      <trkpt lat="48.35476" lon="-3.84675">
        <ele>233</ele>
        <time>2017-01-14T15:46:14Z</time>
      </trkpt>
      <trkpt lat="48.35473" lon="-3.84669">
        <ele>232</ele>
        <time>2017-01-14T15:48:14Z</time>
      </trkpt>
      <trkpt lat="48.35476" lon="-3.84679">
        <ele>233</ele>
        <time>2017-01-14T15:50:14Z</time>
      </trkpt>
      <trkpt lat="48.35477" lon="-3.84681">
        <ele>233</ele>
        <time>2017-01-14T15:52:14Z</time>
      </trkpt>
      <trkpt lat="48.35478" lon="-3.84681">
        <ele>233</ele>
        <time>2017-01-14T15:54:14Z</time>
      </trkpt>
      <trkpt lat="48.35477" lon="-3.8468">
        <ele>233</ele>
        <time>2017-01-14T15:56:14Z</time>
      </trkpt>
      <trkpt lat="48.35478" lon="-3.84678">
        <ele>233</ele>
        <time>2017-01-14T15:58:14Z</time>
      </trkpt>
      <trkpt lat="48.35477" lon="-3.84692">
        <ele>234</ele>
        <time>2017-01-14T16:00:14Z</time>
      </trkpt>
      <trkpt lat="48.35472" lon="-3.84703">
        <ele>236</ele>
        <time>2017-01-14T16:02:14Z</time>
      </trkpt>
      <trkpt lat="48.35471" lon="-3.84703">
        <ele>236</ele>
        <time>2017-01-14T16:04:14Z</time>
      </trkpt>
      <trkpt lat="48.35471" lon="-3.84711">
        <ele>237</ele>
        <time>2017-01-14T16:06:14Z</time>
      </trkpt>
      <trkpt lat="48.3548" lon="-3.84725">
        <ele>238</ele>
        <time>2017-01-14T16:08:14Z</time>
      </trkpt>
      <trkpt lat="48.35483" lon="-3.84731">
        <ele>239</ele>
        <time>2017-01-14T16:10:14Z</time>
      </trkpt>
      <trkpt lat="48.35484" lon="-3.84732">
        <ele>239</ele>
        <time>2017-01-14T16:12:14Z</time>
      </trkpt>
      <trkpt lat="48.3549" lon="-3.8474">
        <ele>239</ele>
        <time>2017-01-14T16:14:14Z</time>
      </trkpt>
      <trkpt lat="48.35494" lon="-3.84742">
        <ele>239</ele>
        <time>2017-01-14T16:16:14Z</time>
      </trkpt>
      <trkpt lat="48.35501" lon="-3.84743">
        <ele>239</ele>
        <time>2017-01-14T16:18:14Z</time>
      </trkpt>
      <trkpt lat="48.35536" lon="-3.84762">
        <ele>242</ele>
        <time>2017-01-14T16:20:14Z</time>
      </trkpt>
      <trkpt lat="48.35543" lon="-3.84765">
        <ele>242</ele>
        <time>2017-01-14T16:22:14Z</time>
      </trkpt>
      <trkpt lat="48.35553" lon="-3.84766">
        <ele>242</ele>
        <time>2017-01-14T16:24:14Z</time>
      </trkpt>
      <trkpt lat="48.35554" lon="-3.84766">
        <ele>242</ele>
        <time>2017-01-14T16:26:14Z</time>
      </trkpt>
      <trkpt lat="48.35557" lon="-3.84768">
        <ele>243</ele>
        <time>2017-01-14T16:28:14Z</time>
      </trkpt>
      <trkpt lat="48.35574" lon="-3.84773">
        <ele>243</ele>
        <time>2017-01-14T16:30:14Z</time>
      </trkpt>
      <trkpt lat="48.3559" lon="-3.84785">
        <ele>245</ele>
        <time>2017-01-14T16:32:14Z</time>
      </trkpt>
      <trkpt lat="48.35597" lon="-3.84782">
        <ele>244</ele>
        <time>2017-01-14T16:34:14Z</time>
      </trkpt>
      <trkpt lat="48.3563" lon="-3.84788">
        <ele>243</ele>
        <time>2017-01-14T16:36:14Z</time>
      </trkpt>
      <trkpt lat="48.35647" lon="-3.84785">
        <ele>242</ele>
        <time>2017-01-14T16:38:14Z</time>
      </trkpt>
      <trkpt lat="48.35652" lon="-3.84785">
        <ele>242</ele>
        <time>2017-01-14T16:40:14Z</time>
      </trkpt>
      <trkpt lat="48.35684" lon="-3.84792">
        <ele>242</ele>
        <time>2017-01-14T16:42:14Z</time>
      </trkpt>
      <trkpt lat="48.35706" lon="-3.84791">
        <ele>242</ele>
        <time>2017-01-14T16:44:14Z</time>
      </trkpt>
      <trkpt lat="48.35734" lon="-3.84787">
        <ele>241</ele>
        <time>2017-01-14T16:46:14Z</time>
      </trkpt>
      <trkpt lat="48.3576" lon="-3.84784">
        <ele>241</ele>
        <time>2017-01-14T16:48:14Z</time>
      </trkpt>
      <trkpt lat="48.35787" lon="-3.84776">
        <ele>241</ele>
        <time>2017-01-14T16:50:14Z</time>
      </trkpt>
      <trkpt lat="48.35814" lon="-3.84771">
        <ele>241</ele>
        <time>2017-01-14T16:52:14Z</time>
      </trkpt>
      <trkpt lat="48.35816" lon="-3.84771">
        <ele>241</ele>
        <time>2017-01-14T16:54:14Z</time>
      </trkpt>
      <trkpt lat="48.35847" lon="-3.8478">
        <ele>242</ele>
        <time>2017-01-14T16:56:14Z</time>
      </trkpt>
      <trkpt lat="48.35872" lon="-3.84799">
        <ele>244</ele>
        <time>2017-01-14T16:58:14Z</time>
      </trkpt>
      <trkpt lat="48.35896" lon="-3.84824">
        <ele>246</ele>
        <time>2017-01-14T17:00:14Z</time>
      </trkpt>
      <trkpt lat="48.35928" lon="-3.84852">
        <ele>248</ele>
        <time>2017-01-14T17:02:14Z</time>
      </trkpt>
      <trkpt lat="48.35952" lon="-3.84872">
        <ele>249</ele>
        <time>2017-01-14T17:04:14Z</time>
      </trkpt>
      <trkpt lat="48.3597" lon="-3.84899">
        <ele>249</ele>
        <time>2017-01-14T17:06:14Z</time>
      </trkpt>
      <trkpt lat="48.35998" lon="-3.84924">
        <ele>249</ele>
        <time>2017-01-14T17:08:14Z</time>
      </trkpt>
      <trkpt lat="48.36045" lon="-3.84974">
        <ele>250</ele>
        <time>2017-01-14T17:10:14Z</time>
      </trkpt>
      <trkpt lat="48.36051" lon="-3.84982">
        <ele>251</ele>
        <time>2017-01-14T17:12:14Z</time>
      </trkpt>
      <trkpt lat="48.36059" lon="-3.84987">
        <ele>251</ele>
        <time>2017-01-14T17:14:14Z</time>
      </trkpt>
      <trkpt lat="48.36097" lon="-3.85023">
        <ele>252</ele>
        <time>2017-01-14T17:16:14Z</time>
      </trkpt>
      <trkpt lat="48.3611" lon="-3.85029">
        <ele>252</ele>
        <time>2017-01-14T17:18:14Z</time>
      </trkpt>
      <trkpt lat="48.36116" lon="-3.85027">
        <ele>252</ele>
        <time>2017-01-14T17:20:14Z</time>
      </trkpt>
      <trkpt lat="48.36143" lon="-3.85026">
        <ele>251</ele>
        <time>2017-01-14T17:22:14Z</time>
      </trkpt>
      <trkpt lat="48.36145" lon="-3.85026">
        <ele>251</ele>
        <time>2017-01-14T17:24:14Z</time>
      </trkpt>
      <trkpt lat="48.36184" lon="-3.85022">
        <ele>251</ele>
        <time>2017-01-14T17:26:14Z</time>
      </trkpt>
      <trkpt lat="48.3621" lon="-3.8502">
        <ele>251</ele>
        <time>2017-01-14T17:28:14Z</time>
      </trkpt>
      <trkpt lat="48.36244" lon="-3.85016">
        <ele>252</ele>
        <time>2017-01-14T17:30:14Z</time>
      </trkpt>
      <trkpt lat="48.36272" lon="-3.85012">
        <ele>252</ele>
        <time>2017-01-14T17:32:14Z</time>
      </trkpt>
      <trkpt lat="48.36304" lon="-3.85012">
        <ele>254</ele>
        <time>2017-01-14T17:34:14Z</time>
      </trkpt>
      <trkpt lat="48.36333" lon="-3.85002">
        <ele>255</ele>
        <time>2017-01-14T17:36:14Z</time>
      </trkpt>
      <trkpt lat="48.36359" lon="-3.84996">
        <ele>257</ele>
        <time>2017-01-14T17:38:14Z</time>
      </trkpt>
      <trkpt lat="48.36391" lon="-3.84994">
        <ele>259</ele>
        <time>2017-01-14T17:40:14Z</time>
      </trkpt>
      <trkpt lat="48.36422" lon="-3.84982">
        <ele>261</ele>
        <time>2017-01-14T17:42:14Z</time>
      </trkpt>
      <trkpt lat="48.36449" lon="-3.8497">
        <ele>264</ele>
        <time>2017-01-14T17:44:14Z</time>
      </trkpt>
      <trkpt lat="48.36472" lon="-3.84952">
        <ele>265</ele>
        <time>2017-01-14T17:46:14Z</time>
      </trkpt>
      <trkpt lat="48.36497" lon="-3.84926">
        <ele>267</ele>
        <time>2017-01-14T17:48:14Z</time>
      </trkpt>
      <trkpt lat="48.36515" lon="-3.84903">
        <ele>268</ele>
        <time>2017-01-14T17:50:14Z</time>
      </trkpt>
      <trkpt lat="48.3654" lon="-3.84879">
        <ele>269</ele>
        <time>2017-01-14T17:52:14Z</time>
      </trkpt>
      <trkpt lat="48.36543" lon="-3.84875">
        <ele>269</ele>
        <time>2017-01-14T17:54:14Z</time>
      </trkpt>
      <trkpt lat="48.36563" lon="-3.84854">
        <ele>270</ele>
        <time>2017-01-14T17:56:14Z</time>
      </trkpt>
      <trkpt lat="48.36585" lon="-3.84832">
        <ele>271</ele>
        <time>2017-01-14T17:58:14Z</time>
      </trkpt>
      <trkpt lat="48.36608" lon="-3.84812">
        <ele>270</ele>
        <time>2017-01-14T18:00:14Z</time>
      </trkpt>
      <trkpt lat="48.36628" lon="-3.84798">
        <ele>269</ele>
        <time>2017-01-14T18:02:14Z</time>
      </trkpt>
      <trkpt lat="48.36652" lon="-3.84786">
        <ele>269</ele>
        <time>2017-01-14T18:04:14Z</time>
      </trkpt>
      <trkpt lat="48.36668" lon="-3.8478">
        <ele>268</ele>
        <time>2017-01-14T18:06:14Z</time>
      </trkpt>
      <trkpt lat="48.36693" lon="-3.84767">
        <ele>267</ele>
        <time>2017-01-14T18:08:14Z</time>
      </trkpt>
      <trkpt lat="48.36699" lon="-3.84765">
        <ele>266</ele>
        <time>2017-01-14T18:10:14Z</time>
      </trkpt>
      <trkpt lat="48.36714" lon="-3.84759">
        <ele>265</ele>
        <time>2017-01-14T18:12:14Z</time>
      </trkpt>
      <trkpt lat="48.36717" lon="-3.84756">
        <ele>265</ele>
        <time>2017-01-14T18:14:14Z</time>
      </trkpt>
      <trkpt lat="48.36725" lon="-3.84752">
        <ele>265</ele>
        <time>2017-01-14T18:16:14Z</time>
      </trkpt>
      <trkpt lat="48.36729" lon="-3.8475">
        <ele>265</ele>
        <time>2017-01-14T18:18:14Z</time>
      </trkpt>
      <trkpt lat="48.36737" lon="-3.84749">
        <ele>264</ele>
        <time>2017-01-14T18:20:14Z</time>
      </trkpt>
      <trkpt lat="48.36762" lon="-3.84745">
        <ele>262</ele>
        <time>2017-01-14T18:22:14Z</time>
      </trkpt>
      <trkpt lat="48.36782" lon="-3.84754">
        <ele>259</ele>
        <time>2017-01-14T18:24:14Z</time>
      </trkpt>
      <trkpt lat="48.3679" lon="-3.84745">
        <ele>259</ele>
        <time>2017-01-14T18:26:14Z</time>
      </trkpt>
      <trkpt lat="48.36797" lon="-3.84744">
        <ele>259</ele>
        <time>2017-01-14T18:28:14Z</time>
      </trkpt>
      <trkpt lat="48.368" lon="-3.84743">
        <ele>258</ele>
        <time>2017-01-14T18:30:14Z</time>
      </trkpt>
      <trkpt lat="48.36802" lon="-3.84741">
        <ele>258</ele>
        <time>2017-01-14T18:32:14Z</time>
      </trkpt>
      <trkpt lat="48.36845" lon="-3.84727">
        <ele>255</ele>
        <time>2017-01-14T18:34:14Z</time>
      </trkpt>
      <trkpt lat="48.36872" lon="-3.84712">
        <ele>253</ele>
        <time>2017-01-14T18:36:14Z</time>
      </trkpt>
      <trkpt lat="48.36903" lon="-3.84705">
        <ele>250</ele>
        <time>2017-01-14T18:38:14Z</time>
      </trkpt>
      <trkpt lat="48.36929" lon="-3.847">
        <ele>248</ele>
        <time>2017-01-14T18:40:14Z</time>
      </trkpt>
      <trkpt lat="48.36964" lon="-3.84696">
        <ele>247</ele>
        <time>2017-01-14T18:42:14Z</time>
      </trkpt>
      <trkpt lat="48.36975" lon="-3.84697">
        <ele>246</ele>
        <time>2017-01-14T18:44:14Z</time>
      </trkpt>
      <trkpt lat="48.36979" lon="-3.84702">
        <ele>246</ele>
        <time>2017-01-14T18:46:14Z</time>
      </trkpt>
      <trkpt lat="48.36995" lon="-3.84698">
        <ele>246</ele>
        <time>2017-01-14T18:48:14Z</time>
      </trkpt>
      <trkpt lat="48.37025" lon="-3.84694">
        <ele>245</ele>
        <time>2017-01-14T18:50:14Z</time>
      </trkpt>
      <trkpt lat="48.3705" lon="-3.84688">
        <ele>244</ele>
        <time>2017-01-14T18:52:14Z</time>
      </trkpt>
      <trkpt lat="48.37064" lon="-3.84682">
        <ele>244</ele>
        <time>2017-01-14T18:54:14Z</time>
      </trkpt>
      <trkpt lat="48.37086" lon="-3.84711">
        <ele>243</ele>
        <time>2017-01-14T18:56:14Z</time>
      </trkpt>
      <trkpt lat="48.37091" lon="-3.84722">
        <ele>243</ele>
        <time>2017-01-14T18:58:14Z</time>
      </trkpt>
      <trkpt lat="48.37133" lon="-3.84801">
        <ele>241</ele>
        <time>2017-01-14T19:00:14Z</time>
      </trkpt>
      <trkpt lat="48.37172" lon="-3.84863">
        <ele>239</ele>
        <time>2017-01-14T19:02:14Z</time>
      </trkpt>
      <trkpt lat="48.37193" lon="-3.84895">
        <ele>237</ele>
        <time>2017-01-14T19:04:14Z</time>
      </trkpt>
      <trkpt lat="48.37215" lon="-3.84927">
        <ele>236</ele>
        <time>2017-01-14T19:06:14Z</time>
      </trkpt>
      <trkpt lat="48.37235" lon="-3.84961">
        <ele>236</ele>
        <time>2017-01-14T19:08:14Z</time>
      </trkpt>
      <trkpt lat="48.37253" lon="-3.85006">
        <ele>236</ele>
        <time>2017-01-14T19:10:14Z</time>
      </trkpt>
      <trkpt lat="48.37271" lon="-3.85039">
        <ele>234</ele>
        <time>2017-01-14T19:12:14Z</time>
      </trkpt>
      <trkpt lat="48.3729" lon="-3.85092">
        <ele>233</ele>
        <time>2017-01-14T19:14:14Z</time>
      </trkpt>
      <trkpt lat="48.3731" lon="-3.85119">
        <ele>233</ele>
        <time>2017-01-14T19:16:14Z</time>
      </trkpt>
      <trkpt lat="48.37335" lon="-3.85114">
        <ele>233</ele>
        <time>2017-01-14T19:18:14Z</time>
      </trkpt>
      <trkpt lat="48.37353" lon="-3.8509">
        <ele>233</ele>
        <time>2017-01-14T19:20:14Z</time>
      </trkpt>
      <trkpt lat="48.37372" lon="-3.85067">
        <ele>233</ele>
        <time>2017-01-14T19:22:14Z</time>
      </trkpt>
      <trkpt lat="48.37379" lon="-3.85063">
        <ele>233</ele>
        <time>2017-01-14T19:24:14Z</time>
      </trkpt>
      <trkpt lat="48.37382" lon="-3.85065">
        <ele>233</ele>
        <time>2017-01-14T19:26:14Z</time>
      </trkpt>
      <trkpt lat="48.37403" lon="-3.85075">
        <ele>233</ele>
        <time>2017-01-14T19:28:14Z</time>
      </trkpt>
      <trkpt lat="48.37428" lon="-3.85084">
        <ele>233</ele>
        <time>2017-01-14T19:30:14Z</time>
      </trkpt>
      <trkpt lat="48.3745" lon="-3.85106">
        <ele>234</ele>
        <time>2017-01-14T19:32:14Z</time>
      </trkpt>
      <trkpt lat="48.37467" lon="-3.85138">
        <ele>235</ele>
        <time>2017-01-14T19:34:14Z</time>
      </trkpt>
      <trkpt lat="48.37484" lon="-3.85174">
        <ele>236</ele>
        <time>2017-01-14T19:36:14Z</time>
      </trkpt>
      <trkpt lat="48.37498" lon="-3.85209">
        <ele>238</ele>
        <time>2017-01-14T19:38:14Z</time>
      </trkpt>
      <trkpt lat="48.3751" lon="-3.85245">
        <ele>239</ele>
        <time>2017-01-14T19:40:14Z</time>
      </trkpt>
      <trkpt lat="48.37526" lon="-3.8528">
        <ele>241</ele>
        <time>2017-01-14T19:42:14Z</time>
      </trkpt>
      <trkpt lat="48.37539" lon="-3.85313">
        <ele>244</ele>
        <time>2017-01-14T19:44:14Z</time>
      </trkpt>
      <trkpt lat="48.37553" lon="-3.85343">
        <ele>246</ele>
        <time>2017-01-14T19:46:14Z</time>
      </trkpt>
      <trkpt lat="48.37566" lon="-3.8538">
        <ele>247</ele>
        <time>2017-01-14T19:48:14Z</time>
      </trkpt>
      <trkpt lat="48.37578" lon="-3.85417">
        <ele>247</ele>
        <time>2017-01-14T19:50:14Z</time>
      </trkpt>
      <trkpt lat="48.37582" lon="-3.85438">
        <ele>248</ele>
        <time>2017-01-14T19:52:14Z</time>
      </trkpt>
      <trkpt lat="48.37578" lon="-3.85456">
        <ele>248</ele>
        <time>2017-01-14T19:54:14Z</time>
      </trkpt>
      <trkpt lat="48.37585" lon="-3.85489">
        <ele>249</ele>
        <time>2017-01-14T19:56:14Z</time>
      </trkpt>
      <trkpt lat="48.37598" lon="-3.85527">
        <ele>250</ele>
        <time>2017-01-14T19:58:14Z</time>
      </trkpt>
      <trkpt lat="48.37609" lon="-3.85552">
        <ele>251</ele>
        <time>2017-01-14T20:00:14Z</time>
      </trkpt>
      <trkpt lat="48.37613" lon="-3.85559">
        <ele>251</ele>
        <time>2017-01-14T20:02:14Z</time>
      </trkpt>
      <trkpt lat="48.37629" lon="-3.8558">
        <ele>252</ele>
        <time>2017-01-14T20:04:14Z</time>
      </trkpt>
      <trkpt lat="48.37645" lon="-3.8562">
        <ele>254</ele>
        <time>2017-01-14T20:06:14Z</time>
      </trkpt>
      <trkpt lat="48.37657" lon="-3.85653">
        <ele>255</ele>
        <time>2017-01-14T20:08:14Z</time>
      </trkpt>
      <trkpt lat="48.37666" lon="-3.85686">
        <ele>257</ele>
        <time>2017-01-14T20:10:14Z</time>
      </trkpt>
      <trkpt lat="48.37671" lon="-3.85725">
        <ele>259</ele>
        <time>2017-01-14T20:12:14Z</time>
      </trkpt>
      <trkpt lat="48.37676" lon="-3.85763">
        <ele>261</ele>
        <time>2017-01-14T20:14:14Z</time>
      </trkpt>
      <trkpt lat="48.37686" lon="-3.858">
        <ele>261</ele>
        <time>2017-01-14T20:16:14Z</time>
      </trkpt>
      <trkpt lat="48.37696" lon="-3.85832">
        <ele>262</ele>
        <time>2017-01-14T20:18:14Z</time>
      </trkpt>
      <trkpt lat="48.37709" lon="-3.85864">
        <ele>261</ele>
        <time>2017-01-14T20:20:14Z</time>
      </trkpt>
      <trkpt lat="48.37713" lon="-3.85879">
        <ele>261</ele>
        <time>2017-01-14T20:22:14Z</time>
      </trkpt>
      <trkpt lat="48.37733" lon="-3.85917">
        <ele>260</ele>
        <time>2017-01-14T20:24:14Z</time>
      </trkpt>
      <trkpt lat="48.37748" lon="-3.85943">
        <ele>259</ele>
        <time>2017-01-14T20:26:14Z</time>
      </trkpt>
      <trkpt lat="48.37767" lon="-3.85971">
        <ele>259</ele>
        <time>2017-01-14T20:28:14Z</time>
      </trkpt>
      <trkpt lat="48.37792" lon="-3.86009">
        <ele>259</ele>
        <time>2017-01-14T20:30:14Z</time>
      </trkpt>
      <trkpt lat="48.37837" lon="-3.86068">
        <ele>260</ele>
        <time>2017-01-14T20:32:14Z</time>
      </trkpt>
      <trkpt lat="48.37858" lon="-3.86099">
        <ele>259</ele>
        <time>2017-01-14T20:34:14Z</time>
      </trkpt>
      <trkpt lat="48.37877" lon="-3.86125">
        <ele>258</ele>
        <time>2017-01-14T20:36:14Z</time>
      </trkpt>
      <trkpt lat="48.37897" lon="-3.86163">
        <ele>257</ele>
        <time>2017-01-14T20:38:14Z</time>
      </trkpt>
      <trkpt lat="48.37912" lon="-3.86206">
        <ele>256</ele>
        <time>2017-01-14T20:40:14Z</time>
      </trkpt>
      <trkpt lat="48.3792" lon="-3.86271">
        <ele>255</ele>
        <time>2017-01-14T20:42:14Z</time>
      </trkpt>
      <trkpt lat="48.37919" lon="-3.86284">
        <ele>255</ele>
        <time>2017-01-14T20:44:14Z</time>
      </trkpt>
      <trkpt lat="48.37925" lon="-3.86323">
        <ele>256</ele>
        <time>2017-01-14T20:46:14Z</time>
      </trkpt>
      <trkpt lat="48.37924" lon="-3.86371">
        <ele>255</ele>
        <time>2017-01-14T20:48:14Z</time>
      </trkpt>
      <trkpt lat="48.37925" lon="-3.8644">
        <ele>253</ele>
        <time>2017-01-14T20:50:14Z</time>
      </trkpt>
      <trkpt lat="48.37922" lon="-3.86468">
        <ele>252</ele>
        <time>2017-01-14T20:52:14Z</time>
      </trkpt>
      <trkpt lat="48.37918" lon="-3.86502">
        <ele>250</ele>
        <time>2017-01-14T20:54:14Z</time>
      </trkpt>
      <trkpt lat="48.37917" lon="-3.86518">
        <ele>249</ele>
        <time>2017-01-14T20:56:14Z</time>
      </trkpt>
      <trkpt lat="48.37916" lon="-3.86523">
        <ele>249</ele>
        <time>2017-01-14T20:58:14Z</time>
      </trkpt>
      <trkpt lat="48.37917" lon="-3.86563">
        <ele>247</ele>
        <time>2017-01-14T21:00:14Z</time>
      </trkpt>
      <trkpt lat="48.37914" lon="-3.86594">
        <ele>245</ele>
        <time>2017-01-14T21:02:14Z</time>
      </trkpt>
      <trkpt lat="48.37932" lon="-3.86625">
        <ele>243</ele>
        <time>2017-01-14T21:04:14Z</time>
      </trkpt>
      <trkpt lat="48.37946" lon="-3.86635">
        <ele>242</ele>
        <time>2017-01-14T21:06:14Z</time>
      </trkpt>
      <trkpt lat="48.37954" lon="-3.86645">
        <ele>241</ele>
        <time>2017-01-14T21:08:14Z</time>
      </trkpt>
      <trkpt lat="48.37958" lon="-3.86646">
        <ele>241</ele>
        <time>2017-01-14T21:10:14Z</time>
      </trkpt>
      <trkpt lat="48.37962" lon="-3.86648">
        <ele>241</ele>
        <time>2017-01-14T21:12:14Z</time>
      </trkpt>
      <trkpt lat="48.3798" lon="-3.86673">
        <ele>240</ele>
        <time>2017-01-14T21:14:14Z</time>
      </trkpt>
      <trkpt lat="48.37982" lon="-3.86708">
        <ele>237</ele>
        <time>2017-01-14T21:16:14Z</time>
      </trkpt>
      <trkpt lat="48.37982" lon="-3.86724">
        <ele>236</ele>
        <time>2017-01-14T21:18:14Z</time>
      </trkpt>
      <trkpt lat="48.37979" lon="-3.86768">
        <ele>233</ele>
        <time>2017-01-14T21:20:14Z</time>
      </trkpt>
      <trkpt lat="48.37976" lon="-3.86801">
        <ele>231</ele>
        <time>2017-01-14T21:22:14Z</time>
      </trkpt>
      <trkpt lat="48.37976" lon="-3.86813">
        <ele>231</ele>
        <time>2017-01-14T21:24:14Z</time>
      </trkpt>
      <trkpt lat="48.37974" lon="-3.86838">
        <ele>229</ele>
        <time>2017-01-14T21:26:14Z</time>
      </trkpt>
      <trkpt lat="48.37975" lon="-3.86838">
        <ele>229</ele>
        <time>2017-01-14T21:28:14Z</time>
      </trkpt>
      <trkpt lat="48.37973" lon="-3.86854">
        <ele>229</ele>
        <time>2017-01-14T21:30:14Z</time>
      </trkpt>
      <trkpt lat="48.37967" lon="-3.86878">
        <ele>229</ele>
        <time>2017-01-14T21:32:14Z</time>
      </trkpt>
      <trkpt lat="48.37967" lon="-3.86907">
        <ele>229</ele>
        <time>2017-01-14T21:34:14Z</time>
      </trkpt>
      <trkpt lat="48.37969" lon="-3.86948">
        <ele>230</ele>
        <time>2017-01-14T21:36:14Z</time>
      </trkpt>
      <trkpt lat="48.37987" lon="-3.87005">
        <ele>231</ele>
        <time>2017-01-14T21:38:14Z</time>
      </trkpt>
      <trkpt lat="48.37991" lon="-3.87059">
        <ele>232</ele>
        <time>2017-01-14T21:40:14Z</time>
      </trkpt>
      <trkpt lat="48.37998" lon="-3.87106">
        <ele>234</ele>
        <time>2017-01-14T21:42:14Z</time>
      </trkpt>
      <trkpt lat="48.37997" lon="-3.87146">
        <ele>234</ele>
        <time>2017-01-14T21:44:14Z</time>
      </trkpt>
      <trkpt lat="48.37997" lon="-3.8716">
        <ele>235</ele>
        <time>2017-01-14T21:46:14Z</time>
      </trkpt>
      <trkpt lat="48.38008" lon="-3.87184">
        <ele>235</ele>
        <time>2017-01-14T21:48:14Z</time>
      </trkpt>
      <trkpt lat="48.3801" lon="-3.87186">
        <ele>235</ele>
        <time>2017-01-14T21:50:14Z</time>
      </trkpt>
      <trkpt lat="48.38015" lon="-3.87192">
        <ele>235</ele>
        <time>2017-01-14T21:52:14Z</time>
      </trkpt>
      <trkpt lat="48.38034" lon="-3.87222">
        <ele>235</ele>
        <time>2017-01-14T21:54:14Z</time>
      </trkpt>
      <trkpt lat="48.38068" lon="-3.87264">
        <ele>235</ele>
        <time>2017-01-14T21:56:14Z</time>
      </trkpt>
      <trkpt lat="48.38084" lon="-3.8729">
        <ele>235</ele>
        <time>2017-01-14T21:58:14Z</time>
      </trkpt>
      <trkpt lat="48.38093" lon="-3.87323">
        <ele>235</ele>
        <time>2017-01-14T22:00:14Z</time>
      </trkpt>
      <trkpt lat="48.38098" lon="-3.87333">
        <ele>235</ele>
        <time>2017-01-14T22:02:14Z</time>
      </trkpt>
      <trkpt lat="48.3811" lon="-3.87378">
        <ele>235</ele>
        <time>2017-01-14T22:04:14Z</time>
      </trkpt>
      <trkpt lat="48.38122" lon="-3.87405">
        <ele>236</ele>
        <time>2017-01-14T22:06:14Z</time>
      </trkpt>
      <trkpt lat="48.38135" lon="-3.87434">
        <ele>237</ele>
        <time>2017-01-14T22:08:14Z</time>
      </trkpt>
      <trkpt lat="48.38135" lon="-3.87439">
        <ele>237</ele>
        <time>2017-01-14T22:10:14Z</time>
      </trkpt>
      <trkpt lat="48.38148" lon="-3.87478">
        <ele>237</ele>
        <time>2017-01-14T22:12:14Z</time>
      </trkpt>
      <trkpt lat="48.38148" lon="-3.8748">
        <ele>237</ele>
        <time>2017-01-14T22:14:14Z</time>
      </trkpt>
      <trkpt lat="48.38158" lon="-3.87522">
        <ele>238</ele>
        <time>2017-01-14T22:16:14Z</time>
      </trkpt>
      <trkpt lat="48.38168" lon="-3.87561">
        <ele>239</ele>
        <time>2017-01-14T22:18:14Z</time>
      </trkpt>
      <trkpt lat="48.3817" lon="-3.87567">
        <ele>239</ele>
        <time>2017-01-14T22:20:14Z</time>
      </trkpt>
      <trkpt lat="48.38173" lon="-3.87613">
        <ele>240</ele>
        <time>2017-01-14T22:22:14Z</time>
      </trkpt>
      <trkpt lat="48.38184" lon="-3.87649">
        <ele>241</ele>
        <time>2017-01-14T22:24:14Z</time>
      </trkpt>
      <trkpt lat="48.38203" lon="-3.87682">
        <ele>242</ele>
        <time>2017-01-14T22:26:14Z</time>
      </trkpt>
      <trkpt lat="48.38217" lon="-3.87714">
        <ele>242</ele>
        <time>2017-01-14T22:28:14Z</time>
      </trkpt>
      <trkpt lat="48.38231" lon="-3.87745">
        <ele>242</ele>
        <time>2017-01-14T22:30:14Z</time>
      </trkpt>
      <trkpt lat="48.38245" lon="-3.8778">
        <ele>242</ele>
        <time>2017-01-14T22:32:14Z</time>
      </trkpt>
      <trkpt lat="48.38257" lon="-3.87804">
        <ele>243</ele>
        <time>2017-01-14T22:34:14Z</time>
      </trkpt>
      <trkpt lat="48.38267" lon="-3.87832">
        <ele>243</ele>
        <time>2017-01-14T22:36:14Z</time>
      </trkpt>
      <trkpt lat="48.38276" lon="-3.87848">
        <ele>243</ele>
        <time>2017-01-14T22:38:14Z</time>
      </trkpt>
      <trkpt lat="48.38292" lon="-3.87877">
        <ele>243</ele>
        <time>2017-01-14T22:40:14Z</time>
      </trkpt>
      <trkpt lat="48.38308" lon="-3.87908">
        <ele>242</ele>
        <time>2017-01-14T22:42:14Z</time>
      </trkpt>
      <trkpt lat="48.38316" lon="-3.87908">
        <ele>242</ele>
        <time>2017-01-14T22:44:14Z</time>
      </trkpt>
      <trkpt lat="48.38323" lon="-3.87903">
        <ele>242</ele>
        <time>2017-01-14T22:46:14Z</time>
      </trkpt>
      <trkpt lat="48.3833" lon="-3.87899">
        <ele>243</ele>
        <time>2017-01-14T22:48:14Z</time>
      </trkpt>
      <trkpt lat="48.38348" lon="-3.87892">
        <ele>243</ele>
        <time>2017-01-14T22:50:14Z</time>
      </trkpt>
      <trkpt lat="48.38374" lon="-3.87939">
        <ele>242</ele>
        <time>2017-01-14T22:52:14Z</time>
      </trkpt>
      <trkpt lat="48.38381" lon="-3.87986">
        <ele>242</ele>
        <time>2017-01-14T22:54:14Z</time>
      </trkpt>
      <trkpt lat="48.38383" lon="-3.87994">
        <ele>242</ele>
        <time>2017-01-14T22:56:14Z</time>
      </trkpt>
      <trkpt lat="48.38385" lon="-3.87998">
        <ele>242</ele>
        <time>2017-01-14T22:58:14Z</time>
      </trkpt>
      <trkpt lat="48.38397" lon="-3.88045">
        <ele>241</ele>
        <time>2017-01-14T23:00:14Z</time>
      </trkpt>
      <trkpt lat="48.3841" lon="-3.88097">
        <ele>240</ele>
        <time>2017-01-14T23:02:14Z</time>
      </trkpt>
      <trkpt lat="48.38421" lon="-3.88137">
        <ele>240</ele>
        <time>2017-01-14T23:04:14Z</time>
      </trkpt>
      <trkpt lat="48.38442" lon="-3.88233">
        <ele>241</ele>
        <time>2017-01-14T23:06:14Z</time>
      </trkpt>
      <trkpt lat="48.38452" lon="-3.88285">
        <ele>242</ele>
        <time>2017-01-14T23:08:14Z</time>
      </trkpt>
      <trkpt lat="48.38455" lon="-3.8829">
        <ele>242</ele>
        <time>2017-01-14T23:10:14Z</time>
      </trkpt>
      <trkpt lat="48.38475" lon="-3.88332">
        <ele>243</ele>
        <time>2017-01-14T23:12:14Z</time>
      </trkpt>
      <trkpt lat="48.38488" lon="-3.88366">
        <ele>243</ele>
        <time>2017-01-14T23:14:14Z</time>
      </trkpt>
      <trkpt lat="48.38514" lon="-3.88408">
        <ele>243</ele>
        <time>2017-01-14T23:16:14Z</time>
      </trkpt>
      <trkpt lat="48.38535" lon="-3.88455">
        <ele>244</ele>
        <time>2017-01-14T23:18:14Z</time>
      </trkpt>
      <trkpt lat="48.38555" lon="-3.88487">
        <ele>244</ele>
        <time>2017-01-14T23:20:14Z</time>
      </trkpt>
      <trkpt lat="48.38572" lon="-3.88522">
        <ele>246</ele>
        <time>2017-01-14T23:22:14Z</time>
      </trkpt>
      <trkpt lat="48.38592" lon="-3.88565">
        <ele>248</ele>
        <time>2017-01-14T23:24:14Z</time>
      </trkpt>
      <trkpt lat="48.38602" lon="-3.88609">
        <ele>250</ele>
        <time>2017-01-14T23:26:14Z</time>
      </trkpt>
      <trkpt lat="48.38609" lon="-3.88644">
        <ele>250</ele>
        <time>2017-01-14T23:28:14Z</time>
      </trkpt>
      <trkpt lat="48.38638" lon="-3.88622">
        <ele>252</ele>
        <time>2017-01-14T23:30:14Z</time>
      </trkpt>
      <trkpt lat="48.38655" lon="-3.88586">
        <ele>252</ele>
        <time>2017-01-14T23:32:14Z</time>
      </trkpt>
      <trkpt lat="48.38673" lon="-3.88557">
        <ele>250</ele>
        <time>2017-01-14T23:34:14Z</time>
      </trkpt>
      <trkpt lat="48.38673" lon="-3.88556">
        <ele>250</ele>
        <time>2017-01-14T23:36:14Z</time>
      </trkpt>
      <trkpt lat="48.38674" lon="-3.88556">
        <ele>250</ele>
        <time>2017-01-14T23:38:14Z</time>
      </trkpt>
      <trkpt lat="48.38674" lon="-3.88556">
        <ele>250</ele>
        <time>2017-01-14T23:40:14Z</time>
      </trkpt>
      <trkpt lat="48.38674" lon="-3.88556">
        <ele>250</ele>
        <time>2017-01-14T23:42:14Z</time>
      </trkpt>
      <trkpt lat="48.38674" lon="-3.88556">
        <ele>250</ele>
        <time>2017-01-14T23:44:14Z</time>
      </trkpt>
      <trkpt lat="48.38674" lon="-3.88556">
        <ele>250</ele>
        <time>2017-01-14T23:46:14Z</time>
      </trkpt>
      <trkpt lat="48.38676" lon="-3.88555">
        <ele>250</ele>
        <time>2017-01-14T23:48:14Z</time>
      </trkpt>
      <trkpt lat="48.3868" lon="-3.88541">
        <ele>249</ele>
        <time>2017-01-14T23:50:14Z</time>
      </trkpt>
      <trkpt lat="48.38697" lon="-3.885">
        <ele>246</ele>
        <time>2017-01-14T23:52:14Z</time>
      </trkpt>
      <trkpt lat="48.38701" lon="-3.88487">
        <ele>247</ele>
        <time>2017-01-14T23:54:14Z</time>
      </trkpt>
      <trkpt lat="48.38706" lon="-3.88477">
        <ele>247</ele>
        <time>2017-01-14T23:56:14Z</time>
      </trkpt>
      <trkpt lat="48.38708" lon="-3.88471">
        <ele>247</ele>
        <time>2017-01-14T23:58:14Z</time>
      </trkpt>
      <trkpt lat="48.38725" lon="-3.88443">
        <ele>248</ele>
        <time>2017-01-15T00:00:14Z</time>
      </trkpt>
      <trkpt lat="48.38752" lon="-3.88404">
        <ele>249</ele>
        <time>2017-01-15T00:02:14Z</time>
      </trkpt>
      <trkpt lat="48.38776" lon="-3.88367">
        <ele>250</ele>
        <time>2017-01-15T00:04:14Z</time>
      </trkpt>
      <trkpt lat="48.38791" lon="-3.88327">
        <ele>251</ele>
        <time>2017-01-15T00:06:14Z</time>
      </trkpt>
      <trkpt lat="48.38813" lon="-3.88288">
        <ele>251</ele>
        <time>2017-01-15T00:08:14Z</time>
      </trkpt>
      <trkpt lat="48.38835" lon="-3.88257">
        <ele>252</ele>
        <time>2017-01-15T00:10:14Z</time>
      </trkpt>
      <trkpt lat="48.38855" lon="-3.88218">
        <ele>251</ele>
        <time>2017-01-15T00:12:14Z</time>
      </trkpt>
      <trkpt lat="48.38873" lon="-3.88179">
        <ele>249</ele>
        <time>2017-01-15T00:14:14Z</time>
      </trkpt>
      <trkpt lat="48.38894" lon="-3.88141">
        <ele>248</ele>
        <time>2017-01-15T00:16:14Z</time>
      </trkpt>
      <trkpt lat="48.38911" lon="-3.88093">
        <ele>247</ele>
        <time>2017-01-15T00:18:14Z</time>
      </trkpt>
      <trkpt lat="48.38929" lon="-3.88052">
        <ele>247</ele>
        <time>2017-01-15T00:20:14Z</time>
      </trkpt>
      <trkpt lat="48.38945" lon="-3.88009">
        <ele>247</ele>
        <time>2017-01-15T00:22:14Z</time>
      </trkpt>
      <trkpt lat="48.38965" lon="-3.8797">
        <ele>246</ele>
        <time>2017-01-15T00:24:14Z</time>
      </trkpt>
      <trkpt lat="48.3898" lon="-3.87947">
        <ele>247</ele>
        <time>2017-01-15T00:26:14Z</time>
      </trkpt>
      <trkpt lat="48.39009" lon="-3.87908">
        <ele>247</ele>
        <time>2017-01-15T00:28:14Z</time>
      </trkpt>
      <trkpt lat="48.39013" lon="-3.87904">
        <ele>246</ele>
        <time>2017-01-15T00:30:14Z</time>
      </trkpt>
      <trkpt lat="48.39039" lon="-3.87881">
        <ele>245</ele>
        <time>2017-01-15T00:32:14Z</time>
      </trkpt>
      <trkpt lat="48.39043" lon="-3.87888">
        <ele>245</ele>
        <time>2017-01-15T00:34:14Z</time>
      </trkpt>
      <trkpt lat="48.39047" lon="-3.87901">
        <ele>246</ele>
        <time>2017-01-15T00:36:14Z</time>
      </trkpt>
      <trkpt lat="48.39057" lon="-3.87954">
        <ele>248</ele>
        <time>2017-01-15T00:38:14Z</time>
      </trkpt>
      <trkpt lat="48.39073" lon="-3.87996">
        <ele>250</ele>
        <time>2017-01-15T00:40:14Z</time>
      </trkpt>
      <trkpt lat="48.39079" lon="-3.88007">
        <ele>251</ele>
        <time>2017-01-15T00:42:14Z</time>
      </trkpt>
      <trkpt lat="48.39088" lon="-3.88054">
        <ele>250</ele>
        <time>2017-01-15T00:44:14Z</time>
      </trkpt>
      <trkpt lat="48.39086" lon="-3.88073">
        <ele>249</ele>
        <time>2017-01-15T00:46:14Z</time>
      </trkpt>
      <trkpt lat="48.39086" lon="-3.88076">
        <ele>249</ele>
        <time>2017-01-15T00:48:14Z</time>
      </trkpt>
      <trkpt lat="48.39107" lon="-3.88101">
        <ele>250</ele>
        <time>2017-01-15T00:50:14Z</time>
      </trkpt>
      <trkpt lat="48.39119" lon="-3.88126">
        <ele>250</ele>
        <time>2017-01-15T00:52:14Z</time>
      </trkpt>
      <trkpt lat="48.39133" lon="-3.88151">
        <ele>249</ele>
        <time>2017-01-15T00:54:14Z</time>
      </trkpt>
      <trkpt lat="48.39152" lon="-3.88171">
        <ele>249</ele>
        <time>2017-01-15T00:56:14Z</time>
      </trkpt>
      <trkpt lat="48.39167" lon="-3.88196">
        <ele>249</ele>
        <time>2017-01-15T00:58:14Z</time>
      </trkpt>
      <trkpt lat="48.3917" lon="-3.88201">
        <ele>249</ele>
        <time>2017-01-15T01:00:14Z</time>
      </trkpt>
      <trkpt lat="48.39193" lon="-3.88237">
        <ele>249</ele>
        <time>2017-01-15T01:02:14Z</time>
      </trkpt>
      <trkpt lat="48.39212" lon="-3.88259">
        <ele>249</ele>
        <time>2017-01-15T01:04:14Z</time>
      </trkpt>
      <trkpt lat="48.39232" lon="-3.88276">
        <ele>249</ele>
        <time>2017-01-15T01:06:14Z</time>
      </trkpt>
      <trkpt lat="48.39233" lon="-3.88285">
        <ele>249</ele>
        <time>2017-01-15T01:08:14Z</time>
      </trkpt>
      <trkpt lat="48.39247" lon="-3.88315">
        <ele>248</ele>
        <time>2017-01-15T01:10:14Z</time>
      </trkpt>
      <trkpt lat="48.39259" lon="-3.88345">
        <ele>247</ele>
        <time>2017-01-15T01:12:14Z</time>
      </trkpt>
      <trkpt lat="48.3926" lon="-3.88347">
        <ele>247</ele>
        <time>2017-01-15T01:14:14Z</time>
      </trkpt>
      <trkpt lat="48.39264" lon="-3.88357">
        <ele>247</ele>
        <time>2017-01-15T01:16:14Z</time>
      </trkpt>
      <trkpt lat="48.39278" lon="-3.88395">
        <ele>248</ele>
        <time>2017-01-15T01:18:14Z</time>
      </trkpt>
      <trkpt lat="48.3929" lon="-3.88436">
        <ele>248</ele>
        <time>2017-01-15T01:20:14Z</time>
      </trkpt>
      <trkpt lat="48.39302" lon="-3.88467">
        <ele>249</ele>
        <time>2017-01-15T01:22:14Z</time>
      </trkpt>
      <trkpt lat="48.39315" lon="-3.88506">
        <ele>249</ele>
        <time>2017-01-15T01:24:14Z</time>
      </trkpt>
      <trkpt lat="48.39325" lon="-3.88543">
        <ele>248</ele>
        <time>2017-01-15T01:26:14Z</time>
      </trkpt>
      <trkpt lat="48.3933" lon="-3.88562">
        <ele>248</ele>
        <time>2017-01-15T01:28:14Z</time>
      </trkpt>
      <trkpt lat="48.39332" lon="-3.88576">
        <ele>248</ele>
        <time>2017-01-15T01:30:14Z</time>
      </trkpt>
      <trkpt lat="48.39339" lon="-3.88602">
        <ele>248</ele>
        <time>2017-01-15T01:32:14Z</time>
      </trkpt>
      <trkpt lat="48.39343" lon="-3.88611">
        <ele>248</ele>
        <time>2017-01-15T01:34:14Z</time>
      </trkpt>
      <trkpt lat="48.39345" lon="-3.88617">
        <ele>248</ele>
        <time>2017-01-15T01:36:14Z</time>
      </trkpt>
      <trkpt lat="48.39346" lon="-3.88632">
        <ele>247</ele>
        <time>2017-01-15T01:38:14Z</time>
      </trkpt>
      <trkpt lat="48.3935" lon="-3.88664">
        <ele>247</ele>
        <time>2017-01-15T01:40:14Z</time>
      </trkpt>
      <trkpt lat="48.39349" lon="-3.88673">
        <ele>247</ele>
        <time>2017-01-15T01:42:14Z</time>
      </trkpt>
      <trkpt lat="48.39349" lon="-3.88688">
        <ele>247</ele>
        <time>2017-01-15T01:44:14Z</time>
      </trkpt>
      <trkpt lat="48.39348" lon="-3.88691">
        <ele>247</ele>
        <time>2017-01-15T01:46:14Z</time>
      </trkpt>
      <trkpt lat="48.39349" lon="-3.88695">
        <ele>247</ele>
        <time>2017-01-15T01:48:14Z</time>
      </trkpt>
      <trkpt lat="48.3935" lon="-3.88695">
        <ele>247</ele>
        <time>2017-01-15T01:50:14Z</time>
      </trkpt>
      <trkpt lat="48.39351" lon="-3.88697">
        <ele>247</ele>
        <time>2017-01-15T01:52:14Z</time>
      </trkpt>
      <trkpt lat="48.39357" lon="-3.88711">
        <ele>247</ele>
        <time>2017-01-15T01:54:14Z</time>
      </trkpt>
      <trkpt lat="48.39369" lon="-3.88742">
        <ele>246</ele>
        <time>2017-01-15T01:56:14Z</time>
      </trkpt>
      <trkpt lat="48.3938" lon="-3.88776">
        <ele>247</ele>
        <time>2017-01-15T01:58:14Z</time>
      </trkpt>
      <trkpt lat="48.39382" lon="-3.88781">
        <ele>248</ele>
        <time>2017-01-15T02:00:14Z</time>
      </trkpt>
      <trkpt lat="48.39389" lon="-3.88794">
        <ele>248</ele>
        <time>2017-01-15T02:02:14Z</time>
      </trkpt>
      <trkpt lat="48.39392" lon="-3.88805">
        <ele>248</ele>
        <time>2017-01-15T02:04:14Z</time>
      </trkpt>
      <trkpt lat="48.39394" lon="-3.88809">
        <ele>249</ele>
        <time>2017-01-15T02:06:14Z</time>
      </trkpt>
      <trkpt lat="48.39396" lon="-3.88814">
        <ele>249</ele>
        <time>2017-01-15T02:08:14Z</time>
      </trkpt>
      <trkpt lat="48.39396" lon="-3.88825">
        <ele>249</ele>
        <time>2017-01-15T02:10:14Z</time>
      </trkpt>
      <trkpt lat="48.3937" lon="-3.88827">
        <ele>249</ele>
        <time>2017-01-15T02:12:14Z</time>
      </trkpt>
      <trkpt lat="48.39348" lon="-3.88831">
        <ele>248</ele>
        <time>2017-01-15T02:14:14Z</time>
      </trkpt>
      <trkpt lat="48.39341" lon="-3.88836">
        <ele>248</ele>
        <time>2017-01-15T02:16:14Z</time>
      </trkpt>
      <trkpt lat="48.3933" lon="-3.88844">
        <ele>248</ele>
        <time>2017-01-15T02:18:14Z</time>
      </trkpt>
      <trkpt lat="48.39327" lon="-3.88852">
        <ele>248</ele>
        <time>2017-01-15T02:20:14Z</time>
      </trkpt>
      <trkpt lat="48.39328" lon="-3.88891">
        <ele>249</ele>
        <time>2017-01-15T02:22:14Z</time>
      </trkpt>
      <trkpt lat="48.39327" lon="-3.8894">
        <ele>250</ele>
        <time>2017-01-15T02:24:14Z</time>
      </trkpt>
      <trkpt lat="48.39336" lon="-3.88981">
        <ele>252</ele>
        <time>2017-01-15T02:26:14Z</time>
      </trkpt>
      <trkpt lat="48.39348" lon="-3.89024">
        <ele>254</ele>
        <time>2017-01-15T02:28:14Z</time>
      </trkpt>
      <trkpt lat="48.39364" lon="-3.89036">
        <ele>255</ele>
        <time>2017-01-15T02:30:14Z</time>
      </trkpt>
      <trkpt lat="48.3937" lon="-3.89035">
        <ele>256</ele>
        <time>2017-01-15T02:32:14Z</time>
      </trkpt>
      <trkpt lat="48.39399" lon="-3.8903">
        <ele>258</ele>
        <time>2017-01-15T02:34:14Z</time>
      </trkpt>
      <trkpt lat="48.39406" lon="-3.89036">
        <ele>259</ele>
        <time>2017-01-15T02:36:14Z</time>
      </trkpt>
      <trkpt lat="48.39427" lon="-3.89062">
        <ele>262</ele>
        <time>2017-01-15T02:38:14Z</time>
      </trkpt>
      <trkpt lat="48.39444" lon="-3.89099">
        <ele>263</ele>
        <time>2017-01-15T02:40:14Z</time>
      </trkpt>
      <trkpt lat="48.39473" lon="-3.89121">
        <ele>263</ele>
        <time>2017-01-15T02:42:14Z</time>
      </trkpt>
      <trkpt lat="48.39486" lon="-3.89123">
        <ele>264</ele>
        <time>2017-01-15T02:44:14Z</time>
      </trkpt>
      <trkpt lat="48.39511" lon="-3.89119">
        <ele>264</ele>
        <time>2017-01-15T02:46:14Z</time>
      </trkpt>
      <trkpt lat="48.39545" lon="-3.89112">
        <ele>265</ele>
        <time>2017-01-15T02:48:14Z</time>
      </trkpt>
      <trkpt lat="48.3957" lon="-3.89123">
        <ele>264</ele>
        <time>2017-01-15T02:50:14Z</time>
      </trkpt>
      <trkpt lat="48.39614" lon="-3.89135">
        <ele>264</ele>
        <time>2017-01-15T02:52:14Z</time>
      </trkpt>
      <trkpt lat="48.39621" lon="-3.89135">
        <ele>264</ele>
        <time>2017-01-15T02:54:14Z</time>
      </trkpt>
      <trkpt lat="48.39632" lon="-3.89135">
        <ele>264</ele>
        <time>2017-01-15T02:56:14Z</time>
      </trkpt>
      <trkpt lat="48.39634" lon="-3.89134">
        <ele>264</ele>
        <time>2017-01-15T02:58:14Z</time>
      </trkpt>
      <trkpt lat="48.39644" lon="-3.89135">
        <ele>263</ele>
        <time>2017-01-15T03:00:14Z</time>
      </trkpt>
      <trkpt lat="48.39655" lon="-3.89139">
        <ele>263</ele>
        <time>2017-01-15T03:02:14Z</time>
      </trkpt>
      <trkpt lat="48.39683" lon="-3.8914">
        <ele>263</ele>
        <time>2017-01-15T03:04:14Z</time>
      </trkpt>
      <trkpt lat="48.3971" lon="-3.8915">
        <ele>264</ele>
        <time>2017-01-15T03:06:14Z</time>
      </trkpt>
      <trkpt lat="48.3972" lon="-3.89171">
        <ele>264</ele>
        <time>2017-01-15T03:08:14Z</time>
      </trkpt>
      <trkpt lat="48.39752" lon="-3.8917">
        <ele>265</ele>
        <time>2017-01-15T03:10:14Z</time>
      </trkpt>
      <trkpt lat="48.39775" lon="-3.89161">
        <ele>265</ele>
        <time>2017-01-15T03:12:14Z</time>
      </trkpt>
      <trkpt lat="48.39806" lon="-3.89152">
        <ele>266</ele>
        <time>2017-01-15T03:14:14Z</time>
      </trkpt>
      <trkpt lat="48.39816" lon="-3.8915">
        <ele>266</ele>
        <time>2017-01-15T03:16:14Z</time>
      </trkpt>
      <trkpt lat="48.39819" lon="-3.89151">
        <ele>266</ele>
        <time>2017-01-15T03:18:14Z</time>
      </trkpt>
      <trkpt lat="48.39838" lon="-3.8915">
        <ele>267</ele>
        <time>2017-01-15T03:20:14Z</time>
      </trkpt>
      <trkpt lat="48.39861" lon="-3.89172">
        <ele>268</ele>
        <time>2017-01-15T03:22:14Z</time>
      </trkpt>
      <trkpt lat="48.39877" lon="-3.89203">
        <ele>270</ele>
        <time>2017-01-15T03:24:14Z</time>
      </trkpt>
      <trkpt lat="48.39897" lon="-3.89225">
        <ele>271</ele>
        <time>2017-01-15T03:26:14Z</time>
      </trkpt>
      <trkpt lat="48.39913" lon="-3.89254">
        <ele>272</ele>
        <time>2017-01-15T03:28:14Z</time>
      </trkpt>
      <trkpt lat="48.39923" lon="-3.89283">
        <ele>274</ele>
        <time>2017-01-15T03:30:14Z</time>
      </trkpt>
      <trkpt lat="48.39928" lon="-3.89315">
        <ele>276</ele>
        <time>2017-01-15T03:32:14Z</time>
      </trkpt>
      <trkpt lat="48.3993" lon="-3.89318">
        <ele>276</ele>
        <time>2017-01-15T03:34:14Z</time>
      </trkpt>
      <trkpt lat="48.39932" lon="-3.89324">
        <ele>276</ele>
        <time>2017-01-15T03:36:14Z</time>
      </trkpt>
      <trkpt lat="48.39932" lon="-3.89326">
        <ele>276</ele>
        <time>2017-01-15T03:38:14Z</time>
      </trkpt>
      <trkpt lat="48.39932" lon="-3.89331">
        <ele>276</ele>
        <time>2017-01-15T03:40:14Z</time>
      </trkpt>
      <trkpt lat="48.39942" lon="-3.8938">
        <ele>278</ele>
        <time>2017-01-15T03:42:14Z</time>
      </trkpt>
      <trkpt lat="48.39957" lon="-3.89411">
        <ele>279</ele>
        <time>2017-01-15T03:44:14Z</time>
      </trkpt>
      <trkpt lat="48.3997" lon="-3.89419">
        <ele>280</ele>
        <time>2017-01-15T03:46:14Z</time>
      </trkpt>
      <trkpt lat="48.39966" lon="-3.89415">
        <ele>279</ele>
        <time>2017-01-15T03:48:14Z</time>
      </trkpt>
      <trkpt lat="48.39965" lon="-3.89411">
        <ele>279</ele>
        <time>2017-01-15T03:50:14Z</time>
      </trkpt>
      <trkpt lat="48.39967" lon="-3.89405">
        <ele>279</ele>
        <time>2017-01-15T03:52:14Z</time>
      </trkpt>
      <trkpt lat="48.39976" lon="-3.89384">
        <ele>279</ele>
        <time>2017-01-15T03:54:14Z</time>
      </trkpt>
      <trkpt lat="48.3998" lon="-3.89379">
        <ele>279</ele>
        <time>2017-01-15T03:56:14Z</time>
      </trkpt>
      <trkpt lat="48.39998" lon="-3.89359">
        <ele>280</ele>
        <time>2017-01-15T03:58:14Z</time>
      </trkpt>
      <trkpt lat="48.40017" lon="-3.89336">
        <ele>280</ele>
        <time>2017-01-15T04:00:14Z</time>
      </trkpt>
      <trkpt lat="48.40044" lon="-3.893">
        <ele>281</ele>
        <time>2017-01-15T04:02:14Z</time>
      </trkpt>
      <trkpt lat="48.40059" lon="-3.89276">
        <ele>282</ele>
        <time>2017-01-15T04:04:14Z</time>
      </trkpt>
      <trkpt lat="48.40063" lon="-3.89268">
        <ele>283</ele>
        <time>2017-01-15T04:06:14Z</time>
      </trkpt>
      <trkpt lat="48.40083" lon="-3.89235">
        <ele>284</ele>
        <time>2017-01-15T04:08:14Z</time>
      </trkpt>
      <trkpt lat="48.40104" lon="-3.8922">
        <ele>285</ele>
        <time>2017-01-15T04:10:14Z</time>
      </trkpt>
      <trkpt lat="48.40137" lon="-3.89219">
        <ele>286</ele>
        <time>2017-01-15T04:12:14Z</time>
      </trkpt>
      <trkpt lat="48.40141" lon="-3.89221">
        <ele>286</ele>
        <time>2017-01-15T04:14:14Z</time>
      </trkpt>
      <trkpt lat="48.4016" lon="-3.89237">
        <ele>287</ele>
        <time>2017-01-15T04:16:14Z</time>
      </trkpt>
      <trkpt lat="48.40171" lon="-3.89249">
        <ele>287</ele>
        <time>2017-01-15T04:18:14Z</time>
      </trkpt>
      <trkpt lat="48.40174" lon="-3.89241">
        <ele>287</ele>
        <time>2017-01-15T04:20:14Z</time>
      </trkpt>
      <trkpt lat="48.40174" lon="-3.89201">
        <ele>287</ele>
        <time>2017-01-15T04:22:14Z</time>
      </trkpt>
      <trkpt lat="48.40168" lon="-3.8916">
        <ele>287</ele>
        <time>2017-01-15T04:24:14Z</time>
      </trkpt>
      <trkpt lat="48.40158" lon="-3.89108">
        <ele>286</ele>
        <time>2017-01-15T04:26:14Z</time>
      </trkpt>
      <trkpt lat="48.40155" lon="-3.89054">
        <ele>285</ele>
        <time>2017-01-15T04:28:14Z</time>
      </trkpt>
      <trkpt lat="48.40148" lon="-3.89023">
        <ele>284</ele>
        <time>2017-01-15T04:30:14Z</time>
      </trkpt>
      <trkpt lat="48.4015" lon="-3.89018">
        <ele>284</ele>
        <time>2017-01-15T04:32:14Z</time>
      </trkpt>
      <trkpt lat="48.40175" lon="-3.89015">
        <ele>284</ele>
        <time>2017-01-15T04:34:14Z</time>
      </trkpt>
      <trkpt lat="48.40241" lon="-3.89016">
        <ele>284</ele>
        <time>2017-01-15T04:36:14Z</time>
      </trkpt>
      <trkpt lat="48.40259" lon="-3.89031">
        <ele>284</ele>
        <time>2017-01-15T04:38:14Z</time>
      </trkpt>
      <trkpt lat="48.4026" lon="-3.89038">
        <ele>284</ele>
        <time>2017-01-15T04:40:14Z</time>
      </trkpt>
      <trkpt lat="48.40261" lon="-3.89046">
        <ele>284</ele>
        <time>2017-01-15T04:42:14Z</time>
      </trkpt>
      <trkpt lat="48.40266" lon="-3.89082">
        <ele>284</ele>
        <time>2017-01-15T04:44:14Z</time>
      </trkpt>
      <trkpt lat="48.4027" lon="-3.89105">
        <ele>284</ele>
        <time>2017-01-15T04:46:14Z</time>
      </trkpt>
      <trkpt lat="48.40279" lon="-3.89143">
        <ele>284</ele>
        <time>2017-01-15T04:48:14Z</time>
      </trkpt>
      <trkpt lat="48.40285" lon="-3.89176">
        <ele>285</ele>
        <time>2017-01-15T04:50:14Z</time>
      </trkpt>
      <trkpt lat="48.4029" lon="-3.89211">
        <ele>286</ele>
        <time>2017-01-15T04:52:14Z</time>
      </trkpt>
      <trkpt lat="48.40293" lon="-3.89248">
        <ele>287</ele>
        <time>2017-01-15T04:54:14Z</time>
      </trkpt>
      <trkpt lat="48.40302" lon="-3.89278">
        <ele>288</ele>
        <time>2017-01-15T04:56:14Z</time>
      </trkpt>
      <trkpt lat="48.40306" lon="-3.89315">
        <ele>289</ele>
        <time>2017-01-15T04:58:14Z</time>
      </trkpt>
      <trkpt lat="48.40313" lon="-3.89353">
        <ele>290</ele>
        <time>2017-01-15T05:00:14Z</time>
      </trkpt>
      <trkpt lat="48.40317" lon="-3.89382">
        <ele>290</ele>
        <time>2017-01-15T05:02:14Z</time>
      </trkpt>
      <trkpt lat="48.40325" lon="-3.89411">
        <ele>291</ele>
        <time>2017-01-15T05:04:14Z</time>
      </trkpt>
      <trkpt lat="48.40327" lon="-3.89433">
        <ele>292</ele>
        <time>2017-01-15T05:06:14Z</time>
      </trkpt>
      <trkpt lat="48.40327" lon="-3.89444">
        <ele>292</ele>
        <time>2017-01-15T05:08:14Z</time>
      </trkpt>
      <trkpt lat="48.40333" lon="-3.89479">
        <ele>293</ele>
        <time>2017-01-15T05:10:14Z</time>
      </trkpt>
      <trkpt lat="48.40337" lon="-3.89513">
        <ele>293</ele>
        <time>2017-01-15T05:12:14Z</time>
      </trkpt>
      <trkpt lat="48.40342" lon="-3.89529">
        <ele>294</ele>
        <time>2017-01-15T05:14:14Z</time>
      </trkpt>
      <trkpt lat="48.40348" lon="-3.89562">
        <ele>294</ele>
        <time>2017-01-15T05:16:14Z</time>
      </trkpt>
      <trkpt lat="48.40353" lon="-3.89595">
        <ele>295</ele>
        <time>2017-01-15T05:18:14Z</time>
      </trkpt>
      <trkpt lat="48.40358" lon="-3.89634">
        <ele>296</ele>
        <time>2017-01-15T05:20:14Z</time>
      </trkpt>
      <trkpt lat="48.4036" lon="-3.89642">
        <ele>296</ele>
        <time>2017-01-15T05:22:14Z</time>
      </trkpt>
      <trkpt lat="48.40367" lon="-3.89677">
        <ele>297</ele>
        <time>2017-01-15T05:24:14Z</time>
      </trkpt>
      <trkpt lat="48.40368" lon="-3.89683">
        <ele>297</ele>
        <time>2017-01-15T05:26:14Z</time>
      </trkpt>
      <trkpt lat="48.40369" lon="-3.89685">
        <ele>297</ele>
        <time>2017-01-15T05:28:14Z</time>
      </trkpt>
      <trkpt lat="48.40369" lon="-3.89691">
        <ele>297</ele>
        <time>2017-01-15T05:30:14Z</time>
      </trkpt>
      <trkpt lat="48.40369" lon="-3.89696">
        <ele>298</ele>
        <time>2017-01-15T05:32:14Z</time>
      </trkpt>
      <trkpt lat="48.4037" lon="-3.89698">
        <ele>298</ele>
        <time>2017-01-15T05:34:14Z</time>
      </trkpt>
      <trkpt lat="48.4037" lon="-3.897">
        <ele>298</ele>
        <time>2017-01-15T05:36:14Z</time>
      </trkpt>
      <trkpt lat="48.40371" lon="-3.89705">
        <ele>298</ele>
        <time>2017-01-15T05:38:14Z</time>
      </trkpt>
      <trkpt lat="48.40372" lon="-3.89709">
        <ele>298</ele>
        <time>2017-01-15T05:40:14Z</time>
      </trkpt>
      <trkpt lat="48.40373" lon="-3.89711">
        <ele>298</ele>
        <time>2017-01-15T05:42:14Z</time>
      </trkpt>
      <trkpt lat="48.40374" lon="-3.89716">
        <ele>298</ele>
        <time>2017-01-15T05:44:14Z</time>
      </trkpt>
      <trkpt lat="48.4038" lon="-3.89757">
        <ele>299</ele>
        <time>2017-01-15T05:46:14Z</time>
      </trkpt>
      <trkpt lat="48.40384" lon="-3.89793">
        <ele>300</ele>
        <time>2017-01-15T05:48:14Z</time>
      </trkpt>
      <trkpt lat="48.40389" lon="-3.89821">
        <ele>301</ele>
        <time>2017-01-15T05:50:14Z</time>
      </trkpt>
      <trkpt lat="48.40394" lon="-3.89855">
        <ele>303</ele>
        <time>2017-01-15T05:52:14Z</time>
      </trkpt>
      <trkpt lat="48.40402" lon="-3.89892">
        <ele>305</ele>
        <time>2017-01-15T05:54:14Z</time>
      </trkpt>
      <trkpt lat="48.40408" lon="-3.89924">
        <ele>307</ele>
        <time>2017-01-15T05:56:14Z</time>
      </trkpt>
      <trkpt lat="48.40417" lon="-3.89959">
        <ele>309</ele>
        <time>2017-01-15T05:58:14Z</time>
      </trkpt>
      <trkpt lat="48.40423" lon="-3.8999">
        <ele>310</ele>
        <time>2017-01-15T06:00:14Z</time>
      </trkpt>
      <trkpt lat="48.40422" lon="-3.89998">
        <ele>311</ele>
        <time>2017-01-15T06:02:14Z</time>
      </trkpt>
      <trkpt lat="48.40428" lon="-3.90044">
        <ele>312</ele>
        <time>2017-01-15T06:04:14Z</time>
      </trkpt>
      <trkpt lat="48.40435" lon="-3.90093">
        <ele>313</ele>
        <time>2017-01-15T06:06:14Z</time>
      </trkpt>
      <trkpt lat="48.40443" lon="-3.90149">
        <ele>317</ele>
        <time>2017-01-15T06:08:14Z</time>
      </trkpt>
      <trkpt lat="48.4045" lon="-3.90185">
        <ele>320</ele>
        <time>2017-01-15T06:10:14Z</time>
      </trkpt>
      <trkpt lat="48.40451" lon="-3.90191">
        <ele>320</ele>
        <time>2017-01-15T06:12:14Z</time>
      </trkpt>
      <trkpt lat="48.40454" lon="-3.9023">
        <ele>323</ele>
        <time>2017-01-15T06:14:14Z</time>
      </trkpt>
      <trkpt lat="48.40456" lon="-3.90262">
        <ele>325</ele>
        <time>2017-01-15T06:16:14Z</time>
      </trkpt>
      <trkpt lat="48.40464" lon="-3.90297">
        <ele>328</ele>
        <time>2017-01-15T06:18:14Z</time>
      </trkpt>
      <trkpt lat="48.40466" lon="-3.9031">
        <ele>329</ele>
        <time>2017-01-15T06:20:14Z</time>
      </trkpt>
      <trkpt lat="48.40467" lon="-3.90314">
        <ele>329</ele>
        <time>2017-01-15T06:22:14Z</time>
      </trkpt>
      <trkpt lat="48.40475" lon="-3.90355">
        <ele>332</ele>
        <time>2017-01-15T06:24:14Z</time>
      </trkpt>
      <trkpt lat="48.40478" lon="-3.90409">
        <ele>335</ele>
        <time>2017-01-15T06:26:14Z</time>
      </trkpt>
      <trkpt lat="48.40473" lon="-3.90441">
        <ele>335</ele>
        <time>2017-01-15T06:28:14Z</time>
      </trkpt>
      <trkpt lat="48.40466" lon="-3.90476">
        <ele>335</ele>
        <time>2017-01-15T06:30:14Z</time>
      </trkpt>
      <trkpt lat="48.40463" lon="-3.90498">
        <ele>335</ele>
        <time>2017-01-15T06:32:14Z</time>
      </trkpt>
      <trkpt lat="48.40456" lon="-3.90537">
        <ele>336</ele>
        <time>2017-01-15T06:34:14Z</time>
      </trkpt>
      <trkpt lat="48.40455" lon="-3.90546">
        <ele>336</ele>
        <time>2017-01-15T06:36:14Z</time>
      </trkpt>
      <trkpt lat="48.40453" lon="-3.90554">
        <ele>336</ele>
        <time>2017-01-15T06:38:14Z</time>
      </trkpt>
      <trkpt lat="48.40452" lon="-3.90563">
        <ele>336</ele>
        <time>2017-01-15T06:40:14Z</time>
      </trkpt>
      <trkpt lat="48.40451" lon="-3.90571">
        <ele>336</ele>
        <time>2017-01-15T06:42:14Z</time>
      </trkpt>
      <trkpt lat="48.40437" lon="-3.90654">
        <ele>336</ele>
        <time>2017-01-15T06:44:14Z</time>
      </trkpt>
      <trkpt lat="48.40436" lon="-3.90663">
        <ele>336</ele>
        <time>2017-01-15T06:46:14Z</time>
      </trkpt>
      <trkpt lat="48.40414" lon="-3.90795">
        <ele>339</ele>
        <time>2017-01-15T06:48:14Z</time>
      </trkpt>
      <trkpt lat="48.40409" lon="-3.90827">
        <ele>340</ele>
        <time>2017-01-15T06:50:14Z</time>
      </trkpt>
      <trkpt lat="48.40399" lon="-3.90899">
        <ele>341</ele>
        <time>2017-01-15T06:52:14Z</time>
      </trkpt>
      <trkpt lat="48.40396" lon="-3.90945">
        <ele>342</ele>
        <time>2017-01-15T06:54:14Z</time>
      </trkpt>
      <trkpt lat="48.40402" lon="-3.90974">
        <ele>344</ele>
        <time>2017-01-15T06:56:14Z</time>
      </trkpt>
      <trkpt lat="48.40401" lon="-3.91014">
        <ele>345</ele>
        <time>2017-01-15T06:58:14Z</time>
      </trkpt>
      <trkpt lat="48.40401" lon="-3.91018">
        <ele>345</ele>
        <time>2017-01-15T07:00:14Z</time>
      </trkpt>
      <trkpt lat="48.40402" lon="-3.91021">
        <ele>345</ele>
        <time>2017-01-15T07:02:14Z</time>
      </trkpt>
      <trkpt lat="48.40403" lon="-3.91023">
        <ele>345</ele>
        <time>2017-01-15T07:04:14Z</time>
      </trkpt>
      <trkpt lat="48.40405" lon="-3.91023">
        <ele>345</ele>
        <time>2017-01-15T07:06:14Z</time>
      </trkpt>
      <trkpt lat="48.40406" lon="-3.91023">
        <ele>345</ele>
        <time>2017-01-15T07:08:14Z</time>
      </trkpt>
      <trkpt lat="48.40408" lon="-3.91022">
        <ele>346</ele>
        <time>2017-01-15T07:10:14Z</time>
      </trkpt>
      <trkpt lat="48.40412" lon="-3.91016">
        <ele>346</ele>
        <time>2017-01-15T07:12:14Z</time>
      </trkpt>
      <trkpt lat="48.40413" lon="-3.91015">
        <ele>346</ele>
        <time>2017-01-15T07:14:14Z</time>
      </trkpt>
      <trkpt lat="48.40424" lon="-3.91015">
        <ele>347</ele>
        <time>2017-01-15T07:16:14Z</time>
      </trkpt>
      <trkpt lat="48.40426" lon="-3.91017">
        <ele>348</ele>
        <time>2017-01-15T07:18:14Z</time>
      </trkpt>
      <trkpt lat="48.40428" lon="-3.91018">
        <ele>348</ele>
        <time>2017-01-15T07:20:14Z</time>
      </trkpt>
      <trkpt lat="48.40432" lon="-3.9102">
        <ele>349</ele>
        <time>2017-01-15T07:22:14Z</time>
      </trkpt>
      <trkpt lat="48.40434" lon="-3.9102">
        <ele>349</ele>
        <time>2017-01-15T07:24:14Z</time>
      </trkpt>
      <trkpt lat="48.40438" lon="-3.91018">
        <ele>349</ele>
        <time>2017-01-15T07:26:14Z</time>
      </trkpt>
      <trkpt lat="48.40442" lon="-3.91017">
        <ele>350</ele>
        <time>2017-01-15T07:28:14Z</time>
      </trkpt>
      <trkpt lat="48.40444" lon="-3.91016">
        <ele>350</ele>
        <time>2017-01-15T07:30:14Z</time>
      </trkpt>
      <trkpt lat="48.40462" lon="-3.91012">
        <ele>353</ele>
        <time>2017-01-15T07:32:14Z</time>
      </trkpt>
      <trkpt lat="48.40464" lon="-3.9101">
        <ele>353</ele>
        <time>2017-01-15T07:34:14Z</time>
      </trkpt>
      <trkpt lat="48.40467" lon="-3.91008">
        <ele>354</ele>
        <time>2017-01-15T07:36:14Z</time>
      </trkpt>
      <trkpt lat="48.40491" lon="-3.91006">
        <ele>358</ele>
        <time>2017-01-15T07:38:14Z</time>
      </trkpt>
      <trkpt lat="48.40494" lon="-3.91008">
        <ele>358</ele>
        <time>2017-01-15T07:40:14Z</time>
      </trkpt>
      <trkpt lat="48.40503" lon="-3.9101">
        <ele>359</ele>
        <time>2017-01-15T07:42:14Z</time>
      </trkpt>
      <trkpt lat="48.40507" lon="-3.91013">
        <ele>360</ele>
        <time>2017-01-15T07:44:14Z</time>
      </trkpt>
      <trkpt lat="48.40517" lon="-3.91023">
        <ele>361</ele>
        <time>2017-01-15T07:46:14Z</time>
      </trkpt>
      <trkpt lat="48.40524" lon="-3.9103">
        <ele>362</ele>
        <time>2017-01-15T07:48:14Z</time>
      </trkpt>
      <trkpt lat="48.40531" lon="-3.91035">
        <ele>363</ele>
        <time>2017-01-15T07:50:14Z</time>
      </trkpt>
      <trkpt lat="48.40539" lon="-3.9104">
        <ele>364</ele>
        <time>2017-01-15T07:52:14Z</time>
      </trkpt>
      <trkpt lat="48.40542" lon="-3.91042">
        <ele>365</ele>
        <time>2017-01-15T07:54:14Z</time>
      </trkpt>
      <trkpt lat="48.40544" lon="-3.91043">
        <ele>365</ele>
        <time>2017-01-15T07:56:14Z</time>
      </trkpt>
      <trkpt lat="48.40557" lon="-3.91044">
        <ele>366</ele>
        <time>2017-01-15T07:58:14Z</time>
      </trkpt>
      <trkpt lat="48.40576" lon="-3.91042">
        <ele>369</ele>
        <time>2017-01-15T08:00:14Z</time>
      </trkpt>
      <trkpt lat="48.40597" lon="-3.91044">
        <ele>368</ele>
        <time>2017-01-15T08:02:14Z</time>
      </trkpt>
      <trkpt lat="48.40606" lon="-3.91048">
        <ele>367</ele>
        <time>2017-01-15T08:04:14Z</time>
      </trkpt>
      <trkpt lat="48.40608" lon="-3.91051">
        <ele>367</ele>
        <time>2017-01-15T08:06:14Z</time>
      </trkpt>
      <trkpt lat="48.40608" lon="-3.91056">
        <ele>366</ele>
        <time>2017-01-15T08:08:14Z</time>
      </trkpt>
      <trkpt lat="48.40607" lon="-3.91058">
        <ele>366</ele>
        <time>2017-01-15T08:10:14Z</time>
      </trkpt>
      <trkpt lat="48.40607" lon="-3.9106">
        <ele>366</ele>
        <time>2017-01-15T08:12:14Z</time>
      </trkpt>
      <trkpt lat="48.40592" lon="-3.91078">
        <ele>368</ele>
        <time>2017-01-15T08:14:14Z</time>
      </trkpt>
      <trkpt lat="48.4059" lon="-3.91087">
        <ele>368</ele>
        <time>2017-01-15T08:16:14Z</time>
      </trkpt>
      <trkpt lat="48.40585" lon="-3.9111">
        <ele>366</ele>
        <time>2017-01-15T08:18:14Z</time>
      </trkpt>
      <trkpt lat="48.40586" lon="-3.91119">
        <ele>365</ele>
        <time>2017-01-15T08:20:14Z</time>
      </trkpt>
      <trkpt lat="48.40581" lon="-3.91127">
        <ele>365</ele>
        <time>2017-01-15T08:22:14Z</time>
      </trkpt>
      <trkpt lat="48.40579" lon="-3.91136">
        <ele>364</ele>
        <time>2017-01-15T08:24:14Z</time>
      </trkpt>
      <trkpt lat="48.40579" lon="-3.91138">
        <ele>363</ele>
        <time>2017-01-15T08:26:14Z</time>
      </trkpt>
      <trkpt lat="48.40579" lon="-3.91147">
        <ele>363</ele>
        <time>2017-01-15T08:28:14Z</time>
      </trkpt>
      <trkpt lat="48.40581" lon="-3.91157">
        <ele>362</ele>
        <time>2017-01-15T08:30:14Z</time>
      </trkpt>
      <trkpt lat="48.40573" lon="-3.91186">
        <ele>358</ele>
        <time>2017-01-15T08:32:14Z</time>
      </trkpt>
      <trkpt lat="48.40561" lon="-3.91211">
        <ele>354</ele>
        <time>2017-01-15T08:34:14Z</time>
      </trkpt>
      <trkpt lat="48.40557" lon="-3.91221">
        <ele>353</ele>
        <time>2017-01-15T08:36:14Z</time>
      </trkpt>
      <trkpt lat="48.40554" lon="-3.91225">
        <ele>353</ele>
        <time>2017-01-15T08:38:14Z</time>
      </trkpt>
      <trkpt lat="48.40554" lon="-3.91228">
        <ele>352</ele>
        <time>2017-01-15T08:40:14Z</time>
      </trkpt>
      <trkpt lat="48.40538" lon="-3.9125">
        <ele>351</ele>
        <time>2017-01-15T08:42:14Z</time>
      </trkpt>
      <trkpt lat="48.40524" lon="-3.91278">
        <ele>350</ele>
        <time>2017-01-15T08:44:14Z</time>
      </trkpt>
      <trkpt lat="48.40508" lon="-3.91315">
        <ele>348</ele>
        <time>2017-01-15T08:46:14Z</time>
      </trkpt>
      <trkpt lat="48.40506" lon="-3.91317">
        <ele>348</ele>
        <time>2017-01-15T08:48:14Z</time>
      </trkpt>
      <trkpt lat="48.40503" lon="-3.91322">
        <ele>348</ele>
        <time>2017-01-15T08:50:14Z</time>
      </trkpt>
      <trkpt lat="48.40501" lon="-3.91326">
        <ele>348</ele>
        <time>2017-01-15T08:52:14Z</time>
      </trkpt>
      <trkpt lat="48.40498" lon="-3.91331">
        <ele>348</ele>
        <time>2017-01-15T08:54:14Z</time>
      </trkpt>
      <trkpt lat="48.40493" lon="-3.91336">
        <ele>348</ele>
        <time>2017-01-15T08:56:14Z</time>
      </trkpt>
      <trkpt lat="48.40491" lon="-3.9134">
        <ele>348</ele>
        <time>2017-01-15T08:58:14Z</time>
      </trkpt>
      <trkpt lat="48.40486" lon="-3.91347">
        <ele>348</ele>
        <time>2017-01-15T09:00:14Z</time>
      </trkpt>
      <trkpt lat="48.40483" lon="-3.91352">
        <ele>348</ele>
        <time>2017-01-15T09:02:14Z</time>
      </trkpt>
      <trkpt lat="48.40467" lon="-3.91382">
        <ele>348</ele>
        <time>2017-01-15T09:04:14Z</time>
      </trkpt>
      <trkpt lat="48.40448" lon="-3.91412">
        <ele>349</ele>
        <time>2017-01-15T09:06:14Z</time>
      </trkpt>
      <trkpt lat="48.40421" lon="-3.91453">
        <ele>349</ele>
        <time>2017-01-15T09:08:14Z</time>
      </trkpt>
      <trkpt lat="48.40408" lon="-3.91489">
        <ele>349</ele>
        <time>2017-01-15T09:10:14Z</time>
      </trkpt>
      <trkpt lat="48.40407" lon="-3.91526">
        <ele>349</ele>
        <time>2017-01-15T09:12:14Z</time>
      </trkpt>
      <trkpt lat="48.40405" lon="-3.91531">
        <ele>349</ele>
        <time>2017-01-15T09:14:14Z</time>
      </trkpt>
      <trkpt lat="48.40404" lon="-3.91555">
        <ele>348</ele>
        <time>2017-01-15T09:16:14Z</time>
      </trkpt>
      <trkpt lat="48.40399" lon="-3.91594">
        <ele>348</ele>
        <time>2017-01-15T09:18:14Z</time>
      </trkpt>
      <trkpt lat="48.40392" lon="-3.91622">
        <ele>348</ele>
        <time>2017-01-15T09:20:14Z</time>
      </trkpt>
      <trkpt lat="48.40378" lon="-3.91639">
        <ele>348</ele>
        <time>2017-01-15T09:22:14Z</time>
      </trkpt>
      <trkpt lat="48.40376" lon="-3.9164">
        <ele>348</ele>
        <time>2017-01-15T09:24:14Z</time>
      </trkpt>
      <trkpt lat="48.40361" lon="-3.91665">
        <ele>347</ele>
        <time>2017-01-15T09:26:14Z</time>
      </trkpt>
      <trkpt lat="48.40356" lon="-3.91687">
        <ele>346</ele>
        <time>2017-01-15T09:28:14Z</time>
      </trkpt>
      <trkpt lat="48.40347" lon="-3.91716">
        <ele>345</ele>
        <time>2017-01-15T09:30:14Z</time>
      </trkpt>
      <trkpt lat="48.40335" lon="-3.91749">
        <ele>344</ele>
        <time>2017-01-15T09:32:14Z</time>
      </trkpt>
      <trkpt lat="48.40322" lon="-3.91789">
        <ele>343</ele>
        <time>2017-01-15T09:34:14Z</time>
      </trkpt>
      <trkpt lat="48.40312" lon="-3.91826">
        <ele>341</ele>
        <time>2017-01-15T09:36:14Z</time>
      </trkpt>
      <trkpt lat="48.40303" lon="-3.91874">
        <ele>341</ele>
        <time>2017-01-15T09:38:14Z</time>
      </trkpt>
      <trkpt lat="48.40301" lon="-3.91917">
        <ele>341</ele>
        <time>2017-01-15T09:40:14Z</time>
      </trkpt>
      <trkpt lat="48.40289" lon="-3.91933">
        <ele>341</ele>
        <time>2017-01-15T09:42:14Z</time>
      </trkpt>
      <trkpt lat="48.40271" lon="-3.91929">
        <ele>342</ele>
        <time>2017-01-15T09:44:14Z</time>
      </trkpt>
      <trkpt lat="48.40266" lon="-3.91947">
        <ele>341</ele>
        <time>2017-01-15T09:46:14Z</time>
      </trkpt>
      <trkpt lat="48.40266" lon="-3.91949">
        <ele>341</ele>
        <time>2017-01-15T09:48:14Z</time>
      </trkpt>
      <trkpt lat="48.40265" lon="-3.91963">
        <ele>341</ele>
        <time>2017-01-15T09:50:14Z</time>
      </trkpt>
      <trkpt lat="48.40263" lon="-3.91983">
        <ele>341</ele>
        <time>2017-01-15T09:52:14Z</time>
      </trkpt>
      <trkpt lat="48.40263" lon="-3.91988">
        <ele>341</ele>
        <time>2017-01-15T09:54:14Z</time>
      </trkpt>
      <trkpt lat="48.40263" lon="-3.91983">
        <ele>341</ele>
        <time>2017-01-15T09:56:14Z</time>
      </trkpt>
      <trkpt lat="48.40263" lon="-3.91981">
        <ele>341</ele>
        <time>2017-01-15T09:58:14Z</time>
      </trkpt>
      <trkpt lat="48.40264" lon="-3.91946">
        <ele>341</ele>
        <time>2017-01-15T10:00:14Z</time>
      </trkpt>
      <trkpt lat="48.40259" lon="-3.91946">
        <ele>341</ele>
        <time>2017-01-15T10:02:14Z</time>
      </trkpt>
      <trkpt lat="48.40256" lon="-3.91947">
        <ele>342</ele>
        <time>2017-01-15T10:04:14Z</time>
      </trkpt>
      <trkpt lat="48.40254" lon="-3.91949">
        <ele>342</ele>
        <time>2017-01-15T10:06:14Z</time>
      </trkpt>
      <trkpt lat="48.40241" lon="-3.91975">
        <ele>341</ele>
        <time>2017-01-15T10:08:14Z</time>
      </trkpt>
      <trkpt lat="48.40226" lon="-3.92007">
        <ele>340</ele>
        <time>2017-01-15T10:10:14Z</time>
      </trkpt>
      <trkpt lat="48.402" lon="-3.92043">
        <ele>340</ele>
        <time>2017-01-15T10:12:14Z</time>
      </trkpt>
      <trkpt lat="48.40189" lon="-3.92077">
        <ele>341</ele>
        <time>2017-01-15T10:14:14Z</time>
      </trkpt>
      <trkpt lat="48.40188" lon="-3.92124">
        <ele>341</ele>
        <time>2017-01-15T10:16:14Z</time>
      </trkpt>
      <trkpt lat="48.40182" lon="-3.92162">
        <ele>342</ele>
        <time>2017-01-15T10:18:14Z</time>
      </trkpt>
      <trkpt lat="48.40173" lon="-3.92206">
        <ele>341</ele>
        <time>2017-01-15T10:20:14Z</time>
      </trkpt>
      <trkpt lat="48.40167" lon="-3.92247">
        <ele>341</ele>
        <time>2017-01-15T10:22:14Z</time>
      </trkpt>
      <trkpt lat="48.40158" lon="-3.92282">
        <ele>340</ele>
        <time>2017-01-15T10:24:14Z</time>
      </trkpt>
      <trkpt lat="48.40142" lon="-3.92321">
        <ele>340</ele>
        <time>2017-01-15T10:26:14Z</time>
      </trkpt>
      <trkpt lat="48.40125" lon="-3.92356">
        <ele>340</ele>
        <time>2017-01-15T10:28:14Z</time>
      </trkpt>
      <trkpt lat="48.40112" lon="-3.924">
        <ele>339</ele>
        <time>2017-01-15T10:30:14Z</time>
      </trkpt>
      <trkpt lat="48.40098" lon="-3.92437">
        <ele>339</ele>
        <time>2017-01-15T10:32:14Z</time>
      </trkpt>
      <trkpt lat="48.40084" lon="-3.92475">
        <ele>339</ele>
        <time>2017-01-15T10:34:14Z</time>
      </trkpt>
      <trkpt lat="48.40073" lon="-3.92506">
        <ele>338</ele>
        <time>2017-01-15T10:36:14Z</time>
      </trkpt>
      <trkpt lat="48.40057" lon="-3.92544">
        <ele>339</ele>
        <time>2017-01-15T10:38:14Z</time>
      </trkpt>
      <trkpt lat="48.40042" lon="-3.92592">
        <ele>339</ele>
        <time>2017-01-15T10:40:14Z</time>
      </trkpt>
      <trkpt lat="48.40025" lon="-3.92632">
        <ele>340</ele>
        <time>2017-01-15T10:42:14Z</time>
      </trkpt>
      <trkpt lat="48.40017" lon="-3.92674">
        <ele>341</ele>
        <time>2017-01-15T10:44:14Z</time>
      </trkpt>
      <trkpt lat="48.40007" lon="-3.92718">
        <ele>340</ele>
        <time>2017-01-15T10:46:14Z</time>
      </trkpt>
      <trkpt lat="48.39989" lon="-3.92755">
        <ele>341</ele>
        <time>2017-01-15T10:48:14Z</time>
      </trkpt>
      <trkpt lat="48.39975" lon="-3.92798">
        <ele>341</ele>
        <time>2017-01-15T10:50:14Z</time>
      </trkpt>
      <trkpt lat="48.39961" lon="-3.92834">
        <ele>341</ele>
        <time>2017-01-15T10:52:14Z</time>
      </trkpt>
      <trkpt lat="48.39944" lon="-3.92873">
        <ele>342</ele>
        <time>2017-01-15T10:54:14Z</time>
      </trkpt>
      <trkpt lat="48.39933" lon="-3.92904">
        <ele>343</ele>
        <time>2017-01-15T10:56:14Z</time>
      </trkpt>
      <trkpt lat="48.39921" lon="-3.92943">
        <ele>344</ele>
        <time>2017-01-15T10:58:14Z</time>
      </trkpt>
      <trkpt lat="48.39905" lon="-3.92982">
        <ele>345</ele>
        <time>2017-01-15T11:00:14Z</time>
      </trkpt>
      <trkpt lat="48.39895" lon="-3.93011">
        <ele>346</ele>
        <time>2017-01-15T11:02:14Z</time>
      </trkpt>
      <trkpt lat="48.39879" lon="-3.93027">
        <ele>346</ele>
        <time>2017-01-15T11:04:14Z</time>
      </trkpt>
      <trkpt lat="48.39862" lon="-3.93049">
        <ele>347</ele>
        <time>2017-01-15T11:06:14Z</time>
      </trkpt>
      <trkpt lat="48.39842" lon="-3.93088">
        <ele>349</ele>
        <time>2017-01-15T11:08:14Z</time>
      </trkpt>
      <trkpt lat="48.39824" lon="-3.93113">
        <ele>351</ele>
        <time>2017-01-15T11:10:14Z</time>
      </trkpt>
      <trkpt lat="48.39817" lon="-3.93118">
        <ele>351</ele>
        <time>2017-01-15T11:12:14Z</time>
      </trkpt>
      <trkpt lat="48.39815" lon="-3.93121">
        <ele>351</ele>
        <time>2017-01-15T11:14:14Z</time>
      </trkpt>
      <trkpt lat="48.39813" lon="-3.93126">
        <ele>351</ele>
        <time>2017-01-15T11:16:14Z</time>
      </trkpt>
      <trkpt lat="48.39791" lon="-3.93156">
        <ele>353</ele>
        <time>2017-01-15T11:18:14Z</time>
      </trkpt>
      <trkpt lat="48.39786" lon="-3.93164">
        <ele>353</ele>
        <time>2017-01-15T11:20:14Z</time>
      </trkpt>
      <trkpt lat="48.39766" lon="-3.93189">
        <ele>354</ele>
        <time>2017-01-15T11:22:14Z</time>
      </trkpt>
      <trkpt lat="48.39748" lon="-3.93225">
        <ele>355</ele>
        <time>2017-01-15T11:24:14Z</time>
      </trkpt>
      <trkpt lat="48.39729" lon="-3.9326">
        <ele>355</ele>
        <time>2017-01-15T11:26:14Z</time>
      </trkpt>
      <trkpt lat="48.39712" lon="-3.93305">
        <ele>354</ele>
        <time>2017-01-15T11:28:14Z</time>
      </trkpt>
      <trkpt lat="48.39702" lon="-3.93338">
        <ele>354</ele>
        <time>2017-01-15T11:30:14Z</time>
      </trkpt>
      <trkpt lat="48.3969" lon="-3.93374">
        <ele>353</ele>
        <time>2017-01-15T11:32:14Z</time>
      </trkpt>
      <trkpt lat="48.39679" lon="-3.93414">
        <ele>353</ele>
        <time>2017-01-15T11:34:14Z</time>
      </trkpt>
      <trkpt lat="48.39673" lon="-3.9345">
        <ele>352</ele>
        <time>2017-01-15T11:36:14Z</time>
      </trkpt>
      <trkpt lat="48.39671" lon="-3.93465">
        <ele>352</ele>
        <time>2017-01-15T11:38:14Z</time>
      </trkpt>
      <trkpt lat="48.39669" lon="-3.93477">
        <ele>352</ele>
        <time>2017-01-15T11:40:14Z</time>
      </trkpt>
      <trkpt lat="48.39669" lon="-3.93481">
        <ele>351</ele>
        <time>2017-01-15T11:42:14Z</time>
      </trkpt>
      <trkpt lat="48.39665" lon="-3.93513">
        <ele>351</ele>
        <time>2017-01-15T11:44:14Z</time>
      </trkpt>
      <trkpt lat="48.39665" lon="-3.93548">
        <ele>351</ele>
        <time>2017-01-15T11:46:14Z</time>
      </trkpt>
      <trkpt lat="48.39666" lon="-3.9358">
        <ele>351</ele>
        <time>2017-01-15T11:48:14Z</time>
      </trkpt>
      <trkpt lat="48.39667" lon="-3.93622">
        <ele>350</ele>
        <time>2017-01-15T11:50:14Z</time>
      </trkpt>
      <trkpt lat="48.39657" lon="-3.93647">
        <ele>350</ele>
        <time>2017-01-15T11:52:14Z</time>
      </trkpt>
      <trkpt lat="48.39642" lon="-3.93666">
        <ele>351</ele>
        <time>2017-01-15T11:54:14Z</time>
      </trkpt>
      <trkpt lat="48.39623" lon="-3.93692">
        <ele>352</ele>
        <time>2017-01-15T11:56:14Z</time>
      </trkpt>
      <trkpt lat="48.39556" lon="-3.93801">
        <ele>354</ele>
        <time>2017-01-15T11:58:14Z</time>
      </trkpt>
      <trkpt lat="48.39542" lon="-3.93837">
        <ele>354</ele>
        <time>2017-01-15T12:00:14Z</time>
      </trkpt>
      <trkpt lat="48.39524" lon="-3.93874">
        <ele>355</ele>
        <time>2017-01-15T12:02:14Z</time>
      </trkpt>
      <trkpt lat="48.39507" lon="-3.93906">
        <ele>356</ele>
        <time>2017-01-15T12:04:14Z</time>
      </trkpt>
      <trkpt lat="48.39492" lon="-3.93931">
        <ele>356</ele>
        <time>2017-01-15T12:06:14Z</time>
      </trkpt>
      <trkpt lat="48.3948" lon="-3.93953">
        <ele>354</ele>
        <time>2017-01-15T12:08:14Z</time>
      </trkpt>
      <trkpt lat="48.39478" lon="-3.9396">
        <ele>354</ele>
        <time>2017-01-15T12:10:14Z</time>
      </trkpt>
      <trkpt lat="48.39476" lon="-3.93984">
        <ele>352</ele>
        <time>2017-01-15T12:12:14Z</time>
      </trkpt>
      <trkpt lat="48.39466" lon="-3.94016">
        <ele>350</ele>
        <time>2017-01-15T12:14:14Z</time>
      </trkpt>
      <trkpt lat="48.39456" lon="-3.94049">
        <ele>348</ele>
        <time>2017-01-15T12:16:14Z</time>
      </trkpt>
      <trkpt lat="48.39447" lon="-3.94064">
        <ele>348</ele>
        <time>2017-01-15T12:18:14Z</time>
      </trkpt>
      <trkpt lat="48.39434" lon="-3.94085">
        <ele>346</ele>
        <time>2017-01-15T12:20:14Z</time>
      </trkpt>
      <trkpt lat="48.39412" lon="-3.94134">
        <ele>341</ele>
        <time>2017-01-15T12:22:14Z</time>
      </trkpt>
      <trkpt lat="48.394" lon="-3.94163">
        <ele>338</ele>
        <time>2017-01-15T12:24:14Z</time>
      </trkpt>
      <trkpt lat="48.39395" lon="-3.94192">
        <ele>336</ele>
        <time>2017-01-15T12:26:14Z</time>
      </trkpt>
      <trkpt lat="48.39386" lon="-3.94216">
        <ele>334</ele>
        <time>2017-01-15T12:28:14Z</time>
      </trkpt>
      <trkpt lat="48.39378" lon="-3.94245">
        <ele>331</ele>
        <time>2017-01-15T12:30:14Z</time>
      </trkpt>
      <trkpt lat="48.39367" lon="-3.94266">
        <ele>329</ele>
        <time>2017-01-15T12:32:14Z</time>
      </trkpt>
      <trkpt lat="48.39366" lon="-3.94268">
        <ele>329</ele>
        <time>2017-01-15T12:34:14Z</time>
      </trkpt>
      <trkpt lat="48.39364" lon="-3.94272">
        <ele>329</ele>
        <time>2017-01-15T12:36:14Z</time>
      </trkpt>
      <trkpt lat="48.39361" lon="-3.94278">
        <ele>328</ele>
        <time>2017-01-15T12:38:14Z</time>
      </trkpt>
      <trkpt lat="48.39355" lon="-3.94286">
        <ele>327</ele>
        <time>2017-01-15T12:40:14Z</time>
      </trkpt>
      <trkpt lat="48.39339" lon="-3.94314">
        <ele>325</ele>
        <time>2017-01-15T12:42:14Z</time>
      </trkpt>
      <trkpt lat="48.39336" lon="-3.9435">
        <ele>323</ele>
        <time>2017-01-15T12:44:14Z</time>
      </trkpt>
      <trkpt lat="48.39323" lon="-3.94371">
        <ele>322</ele>
        <time>2017-01-15T12:46:14Z</time>
      </trkpt>
      <trkpt lat="48.3931" lon="-3.94401">
        <ele>320</ele>
        <time>2017-01-15T12:48:14Z</time>
      </trkpt>
      <trkpt lat="48.39297" lon="-3.94424">
        <ele>319</ele>
        <time>2017-01-15T12:50:14Z</time>
      </trkpt>
      <trkpt lat="48.39276" lon="-3.94444">
        <ele>318</ele>
        <time>2017-01-15T12:52:14Z</time>
      </trkpt>
      <trkpt lat="48.39263" lon="-3.94475">
        <ele>318</ele>
        <time>2017-01-15T12:54:14Z</time>
      </trkpt>
      <trkpt lat="48.39245" lon="-3.94491">
        <ele>318</ele>
        <time>2017-01-15T12:56:14Z</time>
      </trkpt>
      <trkpt lat="48.39223" lon="-3.94494">
        <ele>318</ele>
        <time>2017-01-15T12:58:14Z</time>
      </trkpt>
      <trkpt lat="48.39204" lon="-3.94514">
        <ele>319</ele>
        <time>2017-01-15T13:00:14Z</time>
      </trkpt>
      <trkpt lat="48.39202" lon="-3.94518">
        <ele>319</ele>
        <time>2017-01-15T13:02:14Z</time>
      </trkpt>
      <trkpt lat="48.392" lon="-3.94523">
        <ele>319</ele>
        <time>2017-01-15T13:04:14Z</time>
      </trkpt>
      <trkpt lat="48.39195" lon="-3.94531">
        <ele>319</ele>
        <time>2017-01-15T13:06:14Z</time>
      </trkpt>
      <trkpt lat="48.39196" lon="-3.94531">
        <ele>319</ele>
        <time>2017-01-15T13:08:14Z</time>
      </trkpt>
      <trkpt lat="48.39194" lon="-3.94531">
        <ele>319</ele>
        <time>2017-01-15T13:10:14Z</time>
      </trkpt>
      <trkpt lat="48.39191" lon="-3.94526">
        <ele>319</ele>
        <time>2017-01-15T13:12:14Z</time>
      </trkpt>
      <trkpt lat="48.3919" lon="-3.94521">
        <ele>319</ele>
        <time>2017-01-15T13:14:14Z</time>
      </trkpt>
      <trkpt lat="48.39186" lon="-3.94517">
        <ele>319</ele>
        <time>2017-01-15T13:16:14Z</time>
      </trkpt>
      <trkpt lat="48.39183" lon="-3.94515">
        <ele>319</ele>
        <time>2017-01-15T13:18:14Z</time>
      </trkpt>
      <trkpt lat="48.39175" lon="-3.94512">
        <ele>319</ele>
        <time>2017-01-15T13:20:14Z</time>
      </trkpt>
      <trkpt lat="48.39171" lon="-3.94509">
        <ele>319</ele>
        <time>2017-01-15T13:22:14Z</time>
      </trkpt>
      <trkpt lat="48.39154" lon="-3.94501">
        <ele>318</ele>
        <time>2017-01-15T13:24:14Z</time>
      </trkpt>
      <trkpt lat="48.39132" lon="-3.94485">
        <ele>316</ele>
        <time>2017-01-15T13:26:14Z</time>
      </trkpt>
      <trkpt lat="48.39117" lon="-3.94472">
        <ele>315</ele>
        <time>2017-01-15T13:28:14Z</time>
      </trkpt>
      <trkpt lat="48.39114" lon="-3.94468">
        <ele>314</ele>
        <time>2017-01-15T13:30:14Z</time>
      </trkpt>
      <trkpt lat="48.39106" lon="-3.94453">
        <ele>313</ele>
        <time>2017-01-15T13:32:14Z</time>
      </trkpt>
      <trkpt lat="48.39087" lon="-3.94444">
        <ele>311</ele>
        <time>2017-01-15T13:34:14Z</time>
      </trkpt>
      <trkpt lat="48.39066" lon="-3.94427">
        <ele>309</ele>
        <time>2017-01-15T13:36:14Z</time>
      </trkpt>
      <trkpt lat="48.39054" lon="-3.94412">
        <ele>308</ele>
        <time>2017-01-15T13:38:14Z</time>
      </trkpt>
      <trkpt lat="48.39042" lon="-3.94405">
        <ele>307</ele>
        <time>2017-01-15T13:40:14Z</time>
      </trkpt>
      <trkpt lat="48.39036" lon="-3.94402">
        <ele>307</ele>
        <time>2017-01-15T13:42:14Z</time>
      </trkpt>
      <trkpt lat="48.39014" lon="-3.94389">
        <ele>305</ele>
        <time>2017-01-15T13:44:14Z</time>
      </trkpt>
      <trkpt lat="48.38995" lon="-3.9437">
        <ele>304</ele>
        <time>2017-01-15T13:46:14Z</time>
      </trkpt>
      <trkpt lat="48.38982" lon="-3.94366">
        <ele>303</ele>
        <time>2017-01-15T13:48:14Z</time>
      </trkpt>
      <trkpt lat="48.38968" lon="-3.94357">
        <ele>302</ele>
        <time>2017-01-15T13:50:14Z</time>
      </trkpt>
      <trkpt lat="48.38959" lon="-3.94362">
        <ele>301</ele>
        <time>2017-01-15T13:52:14Z</time>
      </trkpt>
      <trkpt lat="48.38934" lon="-3.94352">
        <ele>300</ele>
        <time>2017-01-15T13:54:14Z</time>
      </trkpt>
      <trkpt lat="48.38911" lon="-3.94338">
        <ele>299</ele>
        <time>2017-01-15T13:56:14Z</time>
      </trkpt>
      <trkpt lat="48.38881" lon="-3.94327">
        <ele>297</ele>
        <time>2017-01-15T13:58:14Z</time>
      </trkpt>
      <trkpt lat="48.38857" lon="-3.94318">
        <ele>296</ele>
        <time>2017-01-15T14:00:14Z</time>
      </trkpt>
      <trkpt lat="48.3884" lon="-3.94314">
        <ele>295</ele>
        <time>2017-01-15T14:02:14Z</time>
      </trkpt>
      <trkpt lat="48.38825" lon="-3.94311">
        <ele>294</ele>
        <time>2017-01-15T14:04:14Z</time>
      </trkpt>
      <trkpt lat="48.38806" lon="-3.94308">
        <ele>293</ele>
        <time>2017-01-15T14:06:14Z</time>
      </trkpt>
      <trkpt lat="48.38793" lon="-3.94309">
        <ele>293</ele>
        <time>2017-01-15T14:08:14Z</time>
      </trkpt>
      <trkpt lat="48.38767" lon="-3.94309">
        <ele>292</ele>
        <time>2017-01-15T14:10:14Z</time>
      </trkpt>
      <trkpt lat="48.38765" lon="-3.94306">
        <ele>292</ele>
        <time>2017-01-15T14:12:14Z</time>
      </trkpt>
      <trkpt lat="48.38757" lon="-3.94269">
        <ele>293</ele>
        <time>2017-01-15T14:14:14Z</time>
      </trkpt>
      <trkpt lat="48.38751" lon="-3.9426">
        <ele>293</ele>
        <time>2017-01-15T14:16:14Z</time>
      </trkpt>
      <trkpt lat="48.38738" lon="-3.94252">
        <ele>293</ele>
        <time>2017-01-15T14:18:14Z</time>
      </trkpt>
      <trkpt lat="48.38705" lon="-3.94262">
        <ele>294</ele>
        <time>2017-01-15T14:20:14Z</time>
      </trkpt>
      <trkpt lat="48.387" lon="-3.94265">
        <ele>294</ele>
        <time>2017-01-15T14:22:14Z</time>
      </trkpt>
      <trkpt lat="48.38679" lon="-3.94276">
        <ele>294</ele>
        <time>2017-01-15T14:24:14Z</time>
      </trkpt>
      <trkpt lat="48.38671" lon="-3.94281">
        <ele>294</ele>
        <time>2017-01-15T14:26:14Z</time>
      </trkpt>
      <trkpt lat="48.38662" lon="-3.94288">
        <ele>294</ele>
        <time>2017-01-15T14:28:14Z</time>
      </trkpt>
      <trkpt lat="48.38661" lon="-3.94289">
        <ele>294</ele>
        <time>2017-01-15T14:30:14Z</time>
      </trkpt>
      <trkpt lat="48.38642" lon="-3.94301">
        <ele>294</ele>
        <time>2017-01-15T14:32:14Z</time>
      </trkpt>
      <trkpt lat="48.38616" lon="-3.94311">
        <ele>294</ele>
        <time>2017-01-15T14:34:14Z</time>
      </trkpt>
      <trkpt lat="48.38585" lon="-3.94323">
        <ele>294</ele>
        <time>2017-01-15T14:36:14Z</time>
      </trkpt>
      <trkpt lat="48.3856" lon="-3.94331">
        <ele>294</ele>
        <time>2017-01-15T14:38:14Z</time>
      </trkpt>
      <trkpt lat="48.38555" lon="-3.94333">
        <ele>294</ele>
        <time>2017-01-15T14:40:14Z</time>
      </trkpt>
      <trkpt lat="48.38526" lon="-3.94338">
        <ele>296</ele>
        <time>2017-01-15T14:42:14Z</time>
      </trkpt>
      <trkpt lat="48.38497" lon="-3.94335">
        <ele>297</ele>
        <time>2017-01-15T14:44:14Z</time>
      </trkpt>
      <trkpt lat="48.38472" lon="-3.94332">
        <ele>297</ele>
        <time>2017-01-15T14:46:14Z</time>
      </trkpt>
      <trkpt lat="48.38446" lon="-3.94326">
        <ele>297</ele>
        <time>2017-01-15T14:48:14Z</time>
      </trkpt>
      <trkpt lat="48.38419" lon="-3.94326">
        <ele>297</ele>
        <time>2017-01-15T14:50:14Z</time>
      </trkpt>
      <trkpt lat="48.38412" lon="-3.94328">
        <ele>297</ele>
        <time>2017-01-15T14:52:14Z</time>
      </trkpt>
      <trkpt lat="48.38396" lon="-3.94326">
        <ele>296</ele>
        <time>2017-01-15T14:54:14Z</time>
      </trkpt>
      <trkpt lat="48.38373" lon="-3.9433">
        <ele>295</ele>
        <time>2017-01-15T14:56:14Z</time>
      </trkpt>
      <trkpt lat="48.38358" lon="-3.94335">
        <ele>295</ele>
        <time>2017-01-15T14:58:14Z</time>
      </trkpt>
      <trkpt lat="48.38352" lon="-3.9434">
        <ele>295</ele>
        <time>2017-01-15T15:00:14Z</time>
      </trkpt>
      <trkpt lat="48.38329" lon="-3.94356">
        <ele>294</ele>
        <time>2017-01-15T15:02:14Z</time>
      </trkpt>
      <trkpt lat="48.38321" lon="-3.94359">
        <ele>294</ele>
        <time>2017-01-15T15:04:14Z</time>
      </trkpt>
      <trkpt lat="48.38311" lon="-3.94345">
        <ele>294</ele>
        <time>2017-01-15T15:06:14Z</time>
      </trkpt>
      <trkpt lat="48.38304" lon="-3.9435">
        <ele>294</ele>
        <time>2017-01-15T15:08:14Z</time>
      </trkpt>
      <trkpt lat="48.38269" lon="-3.94369">
        <ele>294</ele>
        <time>2017-01-15T15:10:14Z</time>
      </trkpt>
      <trkpt lat="48.38245" lon="-3.94381">
        <ele>294</ele>
        <time>2017-01-15T15:12:14Z</time>
      </trkpt>
      <trkpt lat="48.38229" lon="-3.94384">
        <ele>293</ele>
        <time>2017-01-15T15:14:14Z</time>
      </trkpt>
      <trkpt lat="48.38227" lon="-3.94381">
        <ele>293</ele>
        <time>2017-01-15T15:16:14Z</time>
      </trkpt>
      <trkpt lat="48.38225" lon="-3.94377">
        <ele>293</ele>
        <time>2017-01-15T15:18:14Z</time>
      </trkpt>
      <trkpt lat="48.38224" lon="-3.94362">
        <ele>292</ele>
        <time>2017-01-15T15:20:14Z</time>
      </trkpt>
      <trkpt lat="48.38226" lon="-3.94356">
        <ele>291</ele>
        <time>2017-01-15T15:22:14Z</time>
      </trkpt>
      <trkpt lat="48.38238" lon="-3.94322">
        <ele>290</ele>
        <time>2017-01-15T15:24:14Z</time>
      </trkpt>
      <trkpt lat="48.38241" lon="-3.94302">
        <ele>288</ele>
        <time>2017-01-15T15:26:14Z</time>
      </trkpt>
      <trkpt lat="48.38229" lon="-3.94301">
        <ele>288</ele>
        <time>2017-01-15T15:28:14Z</time>
      </trkpt>
      <trkpt lat="48.38227" lon="-3.94312">
        <ele>288</ele>
        <time>2017-01-15T15:30:14Z</time>
      </trkpt>
      <trkpt lat="48.38227" lon="-3.94311">
        <ele>288</ele>
        <time>2017-01-15T15:32:14Z</time>
      </trkpt>
      <trkpt lat="48.38226" lon="-3.94312">
        <ele>288</ele>
        <time>2017-01-15T15:34:14Z</time>
      </trkpt>
      <trkpt lat="48.38226" lon="-3.94312">
        <ele>288</ele>
        <time>2017-01-15T15:36:14Z</time>
      </trkpt>
      <trkpt lat="48.38229" lon="-3.94304">
        <ele>288</ele>
        <time>2017-01-15T15:38:14Z</time>
      </trkpt>
      <trkpt lat="48.38228" lon="-3.94313">
        <ele>288</ele>
        <time>2017-01-15T15:40:14Z</time>
      </trkpt>
      <trkpt lat="48.38227" lon="-3.94312">
        <ele>288</ele>
        <time>2017-01-15T15:42:14Z</time>
      </trkpt>
      <trkpt lat="48.3823" lon="-3.94303">
        <ele>288</ele>
        <time>2017-01-15T15:44:14Z</time>
      </trkpt>
      <trkpt lat="48.38238" lon="-3.94304">
        <ele>288</ele>
        <time>2017-01-15T15:46:14Z</time>
      </trkpt>
      <trkpt lat="48.38238" lon="-3.94308">
        <ele>289</ele>
        <time>2017-01-15T15:48:14Z</time>
      </trkpt>
      <trkpt lat="48.38232" lon="-3.94331">
        <ele>290</ele>
        <time>2017-01-15T15:50:14Z</time>
      </trkpt>
      <trkpt lat="48.38229" lon="-3.94346">
        <ele>291</ele>
        <time>2017-01-15T15:52:14Z</time>
      </trkpt>
      <trkpt lat="48.38224" lon="-3.94365">
        <ele>292</ele>
        <time>2017-01-15T15:54:14Z</time>
      </trkpt>
      <trkpt lat="48.38228" lon="-3.94371">
        <ele>292</ele>
        <time>2017-01-15T15:56:14Z</time>
      </trkpt>
      <trkpt lat="48.3823" lon="-3.94371">
        <ele>293</ele>
        <time>2017-01-15T15:58:14Z</time>
      </trkpt>
      <trkpt lat="48.38234" lon="-3.94366">
        <ele>292</ele>
        <time>2017-01-15T16:00:14Z</time>
      </trkpt>
      <trkpt lat="48.38231" lon="-3.94362">
        <ele>292</ele>
        <time>2017-01-15T16:02:14Z</time>
      </trkpt>
      <trkpt lat="48.38232" lon="-3.94359">
        <ele>292</ele>
        <time>2017-01-15T16:04:14Z</time>
      </trkpt>
      <trkpt lat="48.38234" lon="-3.9436">
        <ele>292</ele>
        <time>2017-01-15T16:06:14Z</time>
      </trkpt>
      <trkpt lat="48.38243" lon="-3.94357">
        <ele>292</ele>
        <time>2017-01-15T16:08:14Z</time>
      </trkpt>
      <trkpt lat="48.38235" lon="-3.94347">
        <ele>291</ele>
        <time>2017-01-15T16:10:14Z</time>
      </trkpt>
      <trkpt lat="48.3824" lon="-3.94348">
        <ele>292</ele>
        <time>2017-01-15T16:12:14Z</time>
      </trkpt>
      <trkpt lat="48.38221" lon="-3.94339">
        <ele>290</ele>
        <time>2017-01-15T16:14:14Z</time>
      </trkpt>
      <trkpt lat="48.38239" lon="-3.94356">
        <ele>292</ele>
        <time>2017-01-15T16:16:14Z</time>
      </trkpt>
      <trkpt lat="48.38232" lon="-3.94355">
        <ele>292</ele>
        <time>2017-01-15T16:18:14Z</time>
      </trkpt>
      <trkpt lat="48.38233" lon="-3.94372">
        <ele>293</ele>
        <time>2017-01-15T16:20:14Z</time>
      </trkpt>
      <trkpt lat="48.38223" lon="-3.9438">
        <ele>293</ele>
        <time>2017-01-15T16:22:14Z</time>
      </trkpt>
      <trkpt lat="48.38222" lon="-3.94382">
        <ele>293</ele>
        <time>2017-01-15T16:24:14Z</time>
      </trkpt>
      <trkpt lat="48.38224" lon="-3.94399">
        <ele>294</ele>
        <time>2017-01-15T16:26:14Z</time>
      </trkpt>
      <trkpt lat="48.38228" lon="-3.94359">
        <ele>292</ele>
        <time>2017-01-15T16:28:14Z</time>
      </trkpt>
      <trkpt lat="48.38226" lon="-3.94356">
        <ele>291</ele>
        <time>2017-01-15T16:30:14Z</time>
      </trkpt>
      <trkpt lat="48.38227" lon="-3.94349">
        <ele>291</ele>
        <time>2017-01-15T16:32:14Z</time>
      </trkpt>
      <trkpt lat="48.3823" lon="-3.9432">
        <ele>289</ele>
        <time>2017-01-15T16:34:14Z</time>
      </trkpt>
      <trkpt lat="48.38234" lon="-3.94292">
        <ele>287</ele>
        <time>2017-01-15T16:36:14Z</time>
      </trkpt>
      <trkpt lat="48.38228" lon="-3.94296">
        <ele>287</ele>
        <time>2017-01-15T16:38:14Z</time>
      </trkpt>
      <trkpt lat="48.38227" lon="-3.94301">
        <ele>287</ele>
        <time>2017-01-15T16:40:14Z</time>
      </trkpt>
      <trkpt lat="48.38227" lon="-3.94302">
        <ele>288</ele>
        <time>2017-01-15T16:42:14Z</time>
      </trkpt>
      <trkpt lat="48.38225" lon="-3.94312">
        <ele>288</ele>
        <time>2017-01-15T16:44:14Z</time>
      </trkpt>
      <trkpt lat="48.38227" lon="-3.94314">
        <ele>289</ele>
        <time>2017-01-15T16:46:14Z</time>
      </trkpt>
      <trkpt lat="48.38226" lon="-3.94313">
        <ele>288</ele>
        <time>2017-01-15T16:48:14Z</time>
      </trkpt>
      <trkpt lat="48.38227" lon="-3.94314">
        <ele>289</ele>
        <time>2017-01-15T16:50:14Z</time>
      </trkpt>
      <trkpt lat="48.38228" lon="-3.94314">
        <ele>289</ele>
        <time>2017-01-15T16:52:14Z</time>
      </trkpt>
      <trkpt lat="48.38229" lon="-3.94313">
        <ele>289</ele>
        <time>2017-01-15T16:54:14Z</time>
      </trkpt>
      <trkpt lat="48.38228" lon="-3.94313">
        <ele>288</ele>
        <time>2017-01-15T16:56:14Z</time>
      </trkpt>
      <trkpt lat="48.38234" lon="-3.94301">
        <ele>288</ele>
        <time>2017-01-15T16:58:14Z</time>
      </trkpt>
      <trkpt lat="48.38242" lon="-3.94307">
        <ele>289</ele>
        <time>2017-01-15T17:00:14Z</time>
      </trkpt>
      <trkpt lat="48.38241" lon="-3.94314">
        <ele>289</ele>
        <time>2017-01-15T17:02:14Z</time>
      </trkpt>
      <trkpt lat="48.38236" lon="-3.9433">
        <ele>290</ele>
        <time>2017-01-15T17:04:14Z</time>
      </trkpt>
      <trkpt lat="48.38229" lon="-3.94349">
        <ele>291</ele>
        <time>2017-01-15T17:06:14Z</time>
      </trkpt>
      <trkpt lat="48.38228" lon="-3.94358">
        <ele>292</ele>
        <time>2017-01-15T17:08:14Z</time>
      </trkpt>
      <trkpt lat="48.38229" lon="-3.94381">
        <ele>293</ele>
        <time>2017-01-15T17:10:14Z</time>
      </trkpt>
      <trkpt lat="48.38231" lon="-3.94382">
        <ele>293</ele>
        <time>2017-01-15T17:12:14Z</time>
      </trkpt>
      <trkpt lat="48.38235" lon="-3.94381">
        <ele>293</ele>
        <time>2017-01-15T17:14:14Z</time>
      </trkpt>
      <trkpt lat="48.38256" lon="-3.94368">
        <ele>293</ele>
        <time>2017-01-15T17:16:14Z</time>
      </trkpt>
      <trkpt lat="48.38271" lon="-3.94359">
        <ele>293</ele>
        <time>2017-01-15T17:18:14Z</time>
      </trkpt>
      <trkpt lat="48.38286" lon="-3.94352">
        <ele>293</ele>
        <time>2017-01-15T17:20:14Z</time>
      </trkpt>
      <trkpt lat="48.38294" lon="-3.94347">
        <ele>293</ele>
        <time>2017-01-15T17:22:14Z</time>
      </trkpt>
      <trkpt lat="48.38305" lon="-3.94343">
        <ele>293</ele>
        <time>2017-01-15T17:24:14Z</time>
      </trkpt>
      <trkpt lat="48.38314" lon="-3.94346">
        <ele>294</ele>
        <time>2017-01-15T17:26:14Z</time>
      </trkpt>
      <trkpt lat="48.38318" lon="-3.9435">
        <ele>294</ele>
        <time>2017-01-15T17:28:14Z</time>
      </trkpt>
      <trkpt lat="48.38315" lon="-3.94395">
        <ele>295</ele>
        <time>2017-01-15T17:30:14Z</time>
      </trkpt>
      <trkpt lat="48.38314" lon="-3.94403">
        <ele>296</ele>
        <time>2017-01-15T17:32:14Z</time>
      </trkpt>
      <trkpt lat="48.38303" lon="-3.94419">
        <ele>296</ele>
        <time>2017-01-15T17:34:14Z</time>
      </trkpt>
      <trkpt lat="48.38301" lon="-3.94422">
        <ele>296</ele>
        <time>2017-01-15T17:36:14Z</time>
      </trkpt>
      <trkpt lat="48.383" lon="-3.94421">
        <ele>296</ele>
        <time>2017-01-15T17:38:14Z</time>
      </trkpt>
      <trkpt lat="48.38295" lon="-3.94425">
        <ele>296</ele>
        <time>2017-01-15T17:40:14Z</time>
      </trkpt>
      <trkpt lat="48.38295" lon="-3.94425">
        <ele>296</ele>
        <time>2017-01-15T17:42:14Z</time>
      </trkpt>
      <trkpt lat="48.38293" lon="-3.94426">
        <ele>296</ele>
        <time>2017-01-15T17:44:14Z</time>
      </trkpt>
      <trkpt lat="48.38274" lon="-3.94441">
        <ele>296</ele>
        <time>2017-01-15T17:46:14Z</time>
      </trkpt>
      <trkpt lat="48.38271" lon="-3.94443">
        <ele>297</ele>
        <time>2017-01-15T17:48:14Z</time>
      </trkpt>
      <trkpt lat="48.38263" lon="-3.94449">
        <ele>297</ele>
        <time>2017-01-15T17:50:14Z</time>
      </trkpt>
      <trkpt lat="48.3826" lon="-3.94451">
        <ele>297</ele>
        <time>2017-01-15T17:52:14Z</time>
      </trkpt>
      <trkpt lat="48.38255" lon="-3.94459">
        <ele>297</ele>
        <time>2017-01-15T17:54:14Z</time>
      </trkpt>
      <trkpt lat="48.38252" lon="-3.94462">
        <ele>297</ele>
        <time>2017-01-15T17:56:14Z</time>
      </trkpt>
      <trkpt lat="48.38249" lon="-3.94467">
        <ele>297</ele>
        <time>2017-01-15T17:58:14Z</time>
      </trkpt>
      <trkpt lat="48.38242" lon="-3.94479">
        <ele>298</ele>
        <time>2017-01-15T18:00:14Z</time>
      </trkpt>
      <trkpt lat="48.38238" lon="-3.94486">
        <ele>298</ele>
        <time>2017-01-15T18:02:14Z</time>
      </trkpt>
      <trkpt lat="48.38233" lon="-3.94492">
        <ele>298</ele>
        <time>2017-01-15T18:04:14Z</time>
      </trkpt>
      <trkpt lat="48.38245" lon="-3.94472">
        <ele>297</ele>
        <time>2017-01-15T18:06:14Z</time>
      </trkpt>
      <trkpt lat="48.38258" lon="-3.94454">
        <ele>297</ele>
        <time>2017-01-15T18:08:14Z</time>
      </trkpt>
      <trkpt lat="48.38281" lon="-3.94433">
        <ele>296</ele>
        <time>2017-01-15T18:10:14Z</time>
      </trkpt>
      <trkpt lat="48.38282" lon="-3.94433">
        <ele>296</ele>
        <time>2017-01-15T18:12:14Z</time>
      </trkpt>
      <trkpt lat="48.383" lon="-3.94422">
        <ele>296</ele>
        <time>2017-01-15T18:14:14Z</time>
      </trkpt>
      <trkpt lat="48.38308" lon="-3.94448">
        <ele>296</ele>
        <time>2017-01-15T18:16:14Z</time>
      </trkpt>
      <trkpt lat="48.38297" lon="-3.94496">
        <ele>297</ele>
        <time>2017-01-15T18:18:14Z</time>
      </trkpt>
      <trkpt lat="48.38289" lon="-3.94538">
        <ele>297</ele>
        <time>2017-01-15T18:20:14Z</time>
      </trkpt>
      <trkpt lat="48.38282" lon="-3.94579">
        <ele>297</ele>
        <time>2017-01-15T18:22:14Z</time>
      </trkpt>
      <trkpt lat="48.38276" lon="-3.94603">
        <ele>298</ele>
        <time>2017-01-15T18:24:14Z</time>
      </trkpt>
      <trkpt lat="48.3827" lon="-3.94635">
        <ele>299</ele>
        <time>2017-01-15T18:26:14Z</time>
      </trkpt>
      <trkpt lat="48.38261" lon="-3.94683">
        <ele>299</ele>
        <time>2017-01-15T18:28:14Z</time>
      </trkpt>
      <trkpt lat="48.38248" lon="-3.94734">
        <ele>297</ele>
        <time>2017-01-15T18:30:14Z</time>
      </trkpt>
      <trkpt lat="48.3823" lon="-3.94777">
        <ele>297</ele>
        <time>2017-01-15T18:32:14Z</time>
      </trkpt>
      <trkpt lat="48.38208" lon="-3.94828">
        <ele>297</ele>
        <time>2017-01-15T18:34:14Z</time>
      </trkpt>
      <trkpt lat="48.38172" lon="-3.94912">
        <ele>295</ele>
        <time>2017-01-15T18:36:14Z</time>
      </trkpt>
      <trkpt lat="48.38154" lon="-3.94959">
        <ele>295</ele>
        <time>2017-01-15T18:38:14Z</time>
      </trkpt>
      <trkpt lat="48.38138" lon="-3.95003">
        <ele>294</ele>
        <time>2017-01-15T18:40:14Z</time>
      </trkpt>
      <trkpt lat="48.38125" lon="-3.95035">
        <ele>294</ele>
        <time>2017-01-15T18:42:14Z</time>
      </trkpt>
      <trkpt lat="48.38111" lon="-3.95072">
        <ele>293</ele>
        <time>2017-01-15T18:44:14Z</time>
      </trkpt>
      <trkpt lat="48.38102" lon="-3.95095">
        <ele>293</ele>
        <time>2017-01-15T18:46:14Z</time>
      </trkpt>
      <trkpt lat="48.3809" lon="-3.95138">
        <ele>294</ele>
        <time>2017-01-15T18:48:14Z</time>
      </trkpt>
      <trkpt lat="48.38075" lon="-3.9517">
        <ele>295</ele>
        <time>2017-01-15T18:50:14Z</time>
      </trkpt>
      <trkpt lat="48.38059" lon="-3.952">
        <ele>295</ele>
        <time>2017-01-15T18:52:14Z</time>
      </trkpt>
      <trkpt lat="48.3804" lon="-3.95224">
        <ele>296</ele>
        <time>2017-01-15T18:54:14Z</time>
      </trkpt>
      <trkpt lat="48.38034" lon="-3.95228">
        <ele>296</ele>
        <time>2017-01-15T18:56:14Z</time>
      </trkpt>
      <trkpt lat="48.38026" lon="-3.95229">
        <ele>297</ele>
        <time>2017-01-15T18:58:14Z</time>
      </trkpt>
      <trkpt lat="48.38" lon="-3.95222">
        <ele>300</ele>
        <time>2017-01-15T19:00:14Z</time>
      </trkpt>
      <trkpt lat="48.37974" lon="-3.9523">
        <ele>301</ele>
        <time>2017-01-15T19:02:14Z</time>
      </trkpt>
      <trkpt lat="48.37956" lon="-3.95251">
        <ele>302</ele>
        <time>2017-01-15T19:04:14Z</time>
      </trkpt>
      <trkpt lat="48.37949" lon="-3.95291">
        <ele>300</ele>
        <time>2017-01-15T19:06:14Z</time>
      </trkpt>
      <trkpt lat="48.37944" lon="-3.95324">
        <ele>299</ele>
        <time>2017-01-15T19:08:14Z</time>
      </trkpt>
      <trkpt lat="48.37929" lon="-3.95349">
        <ele>299</ele>
        <time>2017-01-15T19:10:14Z</time>
      </trkpt>
      <trkpt lat="48.37924" lon="-3.95341">
        <ele>300</ele>
        <time>2017-01-15T19:12:14Z</time>
      </trkpt>
      <trkpt lat="48.37922" lon="-3.95338">
        <ele>300</ele>
        <time>2017-01-15T19:14:14Z</time>
      </trkpt>
      <trkpt lat="48.37907" lon="-3.95324">
        <ele>303</ele>
        <time>2017-01-15T19:16:14Z</time>
      </trkpt>
      <trkpt lat="48.37896" lon="-3.95334">
        <ele>303</ele>
        <time>2017-01-15T19:18:14Z</time>
      </trkpt>
      <trkpt lat="48.37873" lon="-3.9534">
        <ele>306</ele>
        <time>2017-01-15T19:20:14Z</time>
      </trkpt>
      <trkpt lat="48.37858" lon="-3.95354">
        <ele>306</ele>
        <time>2017-01-15T19:22:14Z</time>
      </trkpt>
      <trkpt lat="48.37857" lon="-3.95358">
        <ele>306</ele>
        <time>2017-01-15T19:24:14Z</time>
      </trkpt>
      <trkpt lat="48.37857" lon="-3.95357">
        <ele>306</ele>
        <time>2017-01-15T19:26:14Z</time>
      </trkpt>
      <trkpt lat="48.37858" lon="-3.95352">
        <ele>306</ele>
        <time>2017-01-15T19:28:14Z</time>
      </trkpt>
      <trkpt lat="48.3786" lon="-3.95344">
        <ele>307</ele>
        <time>2017-01-15T19:30:14Z</time>
      </trkpt>
      <trkpt lat="48.37861" lon="-3.95341">
        <ele>307</ele>
        <time>2017-01-15T19:32:14Z</time>
      </trkpt>
      <trkpt lat="48.37864" lon="-3.95329">
        <ele>308</ele>
        <time>2017-01-15T19:34:14Z</time>
      </trkpt>
      <trkpt lat="48.37865" lon="-3.95302">
        <ele>310</ele>
        <time>2017-01-15T19:36:14Z</time>
      </trkpt>
      <trkpt lat="48.37868" lon="-3.95288">
        <ele>310</ele>
        <time>2017-01-15T19:38:14Z</time>
      </trkpt>
      <trkpt lat="48.37871" lon="-3.95276">
        <ele>311</ele>
        <time>2017-01-15T19:40:14Z</time>
      </trkpt>
      <trkpt lat="48.37872" lon="-3.9527">
        <ele>311</ele>
        <time>2017-01-15T19:42:14Z</time>
      </trkpt>
      <trkpt lat="48.37873" lon="-3.95265">
        <ele>311</ele>
        <time>2017-01-15T19:44:14Z</time>
      </trkpt>
      <trkpt lat="48.37873" lon="-3.9526">
        <ele>312</ele>
        <time>2017-01-15T19:46:14Z</time>
      </trkpt>
      <trkpt lat="48.37873" lon="-3.95258">
        <ele>312</ele>
        <time>2017-01-15T19:48:14Z</time>
      </trkpt>
      <trkpt lat="48.37865" lon="-3.95228">
        <ele>315</ele>
        <time>2017-01-15T19:50:14Z</time>
      </trkpt>
      <trkpt lat="48.37858" lon="-3.95206">
        <ele>317</ele>
        <time>2017-01-15T19:52:14Z</time>
      </trkpt>
      <trkpt lat="48.37847" lon="-3.95177">
        <ele>320</ele>
        <time>2017-01-15T19:54:14Z</time>
      </trkpt>
      <trkpt lat="48.37835" lon="-3.95166">
        <ele>323</ele>
        <time>2017-01-15T19:56:14Z</time>
      </trkpt>
      <trkpt lat="48.37817" lon="-3.95145">
        <ele>327</ele>
        <time>2017-01-15T19:58:14Z</time>
      </trkpt>
      <trkpt lat="48.37806" lon="-3.95118">
        <ele>330</ele>
        <time>2017-01-15T20:00:14Z</time>
      </trkpt>
      <trkpt lat="48.37797" lon="-3.95104">
        <ele>332</ele>
        <time>2017-01-15T20:02:14Z</time>
      </trkpt>
      <trkpt lat="48.37796" lon="-3.95102">
        <ele>333</ele>
        <time>2017-01-15T20:04:14Z</time>
      </trkpt>
      <trkpt lat="48.37785" lon="-3.95083">
        <ele>335</ele>
        <time>2017-01-15T20:06:14Z</time>
      </trkpt>
      <trkpt lat="48.37772" lon="-3.95065">
        <ele>338</ele>
        <time>2017-01-15T20:08:14Z</time>
      </trkpt>
      <trkpt lat="48.37764" lon="-3.95055">
        <ele>340</ele>
        <time>2017-01-15T20:10:14Z</time>
      </trkpt>
      <trkpt lat="48.37757" lon="-3.95056">
        <ele>341</ele>
        <time>2017-01-15T20:12:14Z</time>
      </trkpt>
      <trkpt lat="48.37753" lon="-3.95063">
        <ele>342</ele>
        <time>2017-01-15T20:14:14Z</time>
      </trkpt>
      <trkpt lat="48.37733" lon="-3.95084">
        <ele>344</ele>
        <time>2017-01-15T20:16:14Z</time>
      </trkpt>
      <trkpt lat="48.37712" lon="-3.95107">
        <ele>344</ele>
        <time>2017-01-15T20:18:14Z</time>
      </trkpt>
      <trkpt lat="48.3769" lon="-3.95108">
        <ele>346</ele>
        <time>2017-01-15T20:20:14Z</time>
      </trkpt>
      <trkpt lat="48.37664" lon="-3.95101">
        <ele>347</ele>
        <time>2017-01-15T20:22:14Z</time>
      </trkpt>
      <trkpt lat="48.37637" lon="-3.95102">
        <ele>349</ele>
        <time>2017-01-15T20:24:14Z</time>
      </trkpt>
      <trkpt lat="48.37628" lon="-3.95101">
        <ele>350</ele>
        <time>2017-01-15T20:26:14Z</time>
      </trkpt>
      <trkpt lat="48.3762" lon="-3.95102">
        <ele>350</ele>
        <time>2017-01-15T20:28:14Z</time>
      </trkpt>
      <trkpt lat="48.37596" lon="-3.95118">
        <ele>352</ele>
        <time>2017-01-15T20:30:14Z</time>
      </trkpt>
      <trkpt lat="48.37581" lon="-3.95127">
        <ele>354</ele>
        <time>2017-01-15T20:32:14Z</time>
      </trkpt>
      <trkpt lat="48.37573" lon="-3.95131">
        <ele>355</ele>
        <time>2017-01-15T20:34:14Z</time>
      </trkpt>
      <trkpt lat="48.37555" lon="-3.95148">
        <ele>357</ele>
        <time>2017-01-15T20:36:14Z</time>
      </trkpt>
      <trkpt lat="48.37535" lon="-3.95176">
        <ele>360</ele>
        <time>2017-01-15T20:38:14Z</time>
      </trkpt>
      <trkpt lat="48.37506" lon="-3.95193">
        <ele>363</ele>
        <time>2017-01-15T20:40:14Z</time>
      </trkpt>
      <trkpt lat="48.37479" lon="-3.9521">
        <ele>364</ele>
        <time>2017-01-15T20:42:14Z</time>
      </trkpt>
      <trkpt lat="48.37458" lon="-3.95216">
        <ele>366</ele>
        <time>2017-01-15T20:44:14Z</time>
      </trkpt>
      <trkpt lat="48.37455" lon="-3.95217">
        <ele>366</ele>
        <time>2017-01-15T20:46:14Z</time>
      </trkpt>
      <trkpt lat="48.37448" lon="-3.95218">
        <ele>366</ele>
        <time>2017-01-15T20:48:14Z</time>
      </trkpt>
      <trkpt lat="48.37443" lon="-3.95219">
        <ele>367</ele>
        <time>2017-01-15T20:50:14Z</time>
      </trkpt>
      <trkpt lat="48.3741" lon="-3.95232">
        <ele>369</ele>
        <time>2017-01-15T20:52:14Z</time>
      </trkpt>
      <trkpt lat="48.37388" lon="-3.95243">
        <ele>371</ele>
        <time>2017-01-15T20:54:14Z</time>
      </trkpt>
      <trkpt lat="48.37366" lon="-3.9525">
        <ele>372</ele>
        <time>2017-01-15T20:56:14Z</time>
      </trkpt>
      <trkpt lat="48.37339" lon="-3.95263">
        <ele>373</ele>
        <time>2017-01-15T20:58:14Z</time>
      </trkpt>
      <trkpt lat="48.37316" lon="-3.95274">
        <ele>375</ele>
        <time>2017-01-15T21:00:14Z</time>
      </trkpt>
      <trkpt lat="48.37294" lon="-3.95295">
        <ele>376</ele>
        <time>2017-01-15T21:02:14Z</time>
      </trkpt>
      <trkpt lat="48.37272" lon="-3.95316">
        <ele>377</ele>
        <time>2017-01-15T21:04:14Z</time>
      </trkpt>
      <trkpt lat="48.37251" lon="-3.95334">
        <ele>379</ele>
        <time>2017-01-15T21:06:14Z</time>
      </trkpt>
      <trkpt lat="48.37226" lon="-3.95344">
        <ele>378</ele>
        <time>2017-01-15T21:08:14Z</time>
      </trkpt>
      <trkpt lat="48.37197" lon="-3.95349">
        <ele>378</ele>
        <time>2017-01-15T21:10:14Z</time>
      </trkpt>
      <trkpt lat="48.37196" lon="-3.95351">
        <ele>378</ele>
        <time>2017-01-15T21:12:14Z</time>
      </trkpt>
      <trkpt lat="48.37172" lon="-3.95362">
        <ele>378</ele>
        <time>2017-01-15T21:14:14Z</time>
      </trkpt>
      <trkpt lat="48.37144" lon="-3.95382">
        <ele>376</ele>
        <time>2017-01-15T21:16:14Z</time>
      </trkpt>
      <trkpt lat="48.37118" lon="-3.95397">
        <ele>374</ele>
        <time>2017-01-15T21:18:14Z</time>
      </trkpt>
      <trkpt lat="48.37094" lon="-3.95418">
        <ele>373</ele>
        <time>2017-01-15T21:20:14Z</time>
      </trkpt>
      <trkpt lat="48.3707" lon="-3.95431">
        <ele>371</ele>
        <time>2017-01-15T21:22:14Z</time>
      </trkpt>
      <trkpt lat="48.37042" lon="-3.95443">
        <ele>370</ele>
        <time>2017-01-15T21:24:14Z</time>
      </trkpt>
      <trkpt lat="48.37017" lon="-3.95452">
        <ele>370</ele>
        <time>2017-01-15T21:26:14Z</time>
      </trkpt>
      <trkpt lat="48.37004" lon="-3.95461">
        <ele>370</ele>
        <time>2017-01-15T21:28:14Z</time>
      </trkpt>
      <trkpt lat="48.36999" lon="-3.95463">
        <ele>370</ele>
        <time>2017-01-15T21:30:14Z</time>
      </trkpt>
      <trkpt lat="48.36995" lon="-3.95467">
        <ele>370</ele>
        <time>2017-01-15T21:32:14Z</time>
      </trkpt>
      <trkpt lat="48.36966" lon="-3.95481">
        <ele>369</ele>
        <time>2017-01-15T21:34:14Z</time>
      </trkpt>
      <trkpt lat="48.36949" lon="-3.95493">
        <ele>369</ele>
        <time>2017-01-15T21:36:14Z</time>
      </trkpt>
      <trkpt lat="48.36921" lon="-3.95506">
        <ele>368</ele>
        <time>2017-01-15T21:38:14Z</time>
      </trkpt>
      <trkpt lat="48.36895" lon="-3.95523">
        <ele>367</ele>
        <time>2017-01-15T21:40:14Z</time>
      </trkpt>
      <trkpt lat="48.36865" lon="-3.95539">
        <ele>365</ele>
        <time>2017-01-15T21:42:14Z</time>
      </trkpt>
      <trkpt lat="48.3684" lon="-3.95544">
        <ele>364</ele>
        <time>2017-01-15T21:44:14Z</time>
      </trkpt>
      <trkpt lat="48.36812" lon="-3.95542">
        <ele>364</ele>
        <time>2017-01-15T21:46:14Z</time>
      </trkpt>
      <trkpt lat="48.36777" lon="-3.95539">
        <ele>363</ele>
        <time>2017-01-15T21:48:14Z</time>
      </trkpt>
      <trkpt lat="48.36753" lon="-3.95548">
        <ele>363</ele>
        <time>2017-01-15T21:50:14Z</time>
      </trkpt>
      <trkpt lat="48.36736" lon="-3.95549">
        <ele>362</ele>
        <time>2017-01-15T21:52:14Z</time>
      </trkpt>
      <trkpt lat="48.36715" lon="-3.95555">
        <ele>361</ele>
        <time>2017-01-15T21:54:14Z</time>
      </trkpt>
      <trkpt lat="48.36694" lon="-3.95564">
        <ele>360</ele>
        <time>2017-01-15T21:56:14Z</time>
      </trkpt>
      <trkpt lat="48.36673" lon="-3.95564">
        <ele>360</ele>
        <time>2017-01-15T21:58:14Z</time>
      </trkpt>
      <trkpt lat="48.36667" lon="-3.95566">
        <ele>359</ele>
        <time>2017-01-15T22:00:14Z</time>
      </trkpt>
      <trkpt lat="48.36665" lon="-3.95566">
        <ele>359</ele>
        <time>2017-01-15T22:02:14Z</time>
      </trkpt>
      <trkpt lat="48.36655" lon="-3.95568">
        <ele>358</ele>
        <time>2017-01-15T22:04:14Z</time>
      </trkpt>
      <trkpt lat="48.36645" lon="-3.95573">
        <ele>356</ele>
        <time>2017-01-15T22:06:14Z</time>
      </trkpt>
      <trkpt lat="48.36637" lon="-3.95577">
        <ele>355</ele>
        <time>2017-01-15T22:08:14Z</time>
      </trkpt>
      <trkpt lat="48.36631" lon="-3.95571">
        <ele>354</ele>
        <time>2017-01-15T22:10:14Z</time>
      </trkpt>
      <trkpt lat="48.36629" lon="-3.95571">
        <ele>354</ele>
        <time>2017-01-15T22:12:14Z</time>
      </trkpt>
      <trkpt lat="48.36619" lon="-3.95574">
        <ele>353</ele>
        <time>2017-01-15T22:14:14Z</time>
      </trkpt>
      <trkpt lat="48.36617" lon="-3.95576">
        <ele>353</ele>
        <time>2017-01-15T22:16:14Z</time>
      </trkpt>
      <trkpt lat="48.36608" lon="-3.95575">
        <ele>351</ele>
        <time>2017-01-15T22:18:14Z</time>
      </trkpt>
      <trkpt lat="48.3659" lon="-3.95584">
        <ele>349</ele>
        <time>2017-01-15T22:20:14Z</time>
      </trkpt>
      <trkpt lat="48.36574" lon="-3.95587">
        <ele>347</ele>
        <time>2017-01-15T22:22:14Z</time>
      </trkpt>
      <trkpt lat="48.36561" lon="-3.95586">
        <ele>345</ele>
        <time>2017-01-15T22:24:14Z</time>
      </trkpt>
      <trkpt lat="48.36549" lon="-3.95598">
        <ele>343</ele>
        <time>2017-01-15T22:26:14Z</time>
      </trkpt>
      <trkpt lat="48.36526" lon="-3.95616">
        <ele>341</ele>
        <time>2017-01-15T22:28:14Z</time>
      </trkpt>
      <trkpt lat="48.36519" lon="-3.9562">
        <ele>340</ele>
        <time>2017-01-15T22:30:14Z</time>
      </trkpt>
      <trkpt lat="48.36509" lon="-3.9562">
        <ele>339</ele>
        <time>2017-01-15T22:32:14Z</time>
      </trkpt>
      <trkpt lat="48.36503" lon="-3.95647">
        <ele>338</ele>
        <time>2017-01-15T22:34:14Z</time>
      </trkpt>
      <trkpt lat="48.365" lon="-3.95656">
        <ele>338</ele>
        <time>2017-01-15T22:36:14Z</time>
      </trkpt>
      <trkpt lat="48.36495" lon="-3.95697">
        <ele>336</ele>
        <time>2017-01-15T22:38:14Z</time>
      </trkpt>
      <trkpt lat="48.36476" lon="-3.95723">
        <ele>334</ele>
        <time>2017-01-15T22:40:14Z</time>
      </trkpt>
      <trkpt lat="48.36453" lon="-3.95743">
        <ele>331</ele>
        <time>2017-01-15T22:42:14Z</time>
      </trkpt>
      <trkpt lat="48.3643" lon="-3.95766">
        <ele>330</ele>
        <time>2017-01-15T22:44:14Z</time>
      </trkpt>
      <trkpt lat="48.36412" lon="-3.95799">
        <ele>328</ele>
        <time>2017-01-15T22:46:14Z</time>
      </trkpt>
      <trkpt lat="48.36389" lon="-3.95829">
        <ele>327</ele>
        <time>2017-01-15T22:48:14Z</time>
      </trkpt>
      <trkpt lat="48.36372" lon="-3.95857">
        <ele>326</ele>
        <time>2017-01-15T22:50:14Z</time>
      </trkpt>
      <trkpt lat="48.36349" lon="-3.95885">
        <ele>325</ele>
        <time>2017-01-15T22:52:14Z</time>
      </trkpt>
      <trkpt lat="48.36323" lon="-3.95909">
        <ele>323</ele>
        <time>2017-01-15T22:54:14Z</time>
      </trkpt>
      <trkpt lat="48.36299" lon="-3.95928">
        <ele>322</ele>
        <time>2017-01-15T22:56:14Z</time>
      </trkpt>
      <trkpt lat="48.36269" lon="-3.95949">
        <ele>321</ele>
        <time>2017-01-15T22:58:14Z</time>
      </trkpt>
      <trkpt lat="48.36241" lon="-3.95965">
        <ele>320</ele>
        <time>2017-01-15T23:00:14Z</time>
      </trkpt>
      <trkpt lat="48.36212" lon="-3.95985">
        <ele>319</ele>
        <time>2017-01-15T23:02:14Z</time>
      </trkpt>
      <trkpt lat="48.36185" lon="-3.96004">
        <ele>318</ele>
        <time>2017-01-15T23:04:14Z</time>
      </trkpt>
      <trkpt lat="48.36168" lon="-3.96014">
        <ele>317</ele>
        <time>2017-01-15T23:06:14Z</time>
      </trkpt>
      <trkpt lat="48.36146" lon="-3.96034">
        <ele>317</ele>
        <time>2017-01-15T23:08:14Z</time>
      </trkpt>
      <trkpt lat="48.36121" lon="-3.9605">
        <ele>316</ele>
        <time>2017-01-15T23:10:14Z</time>
      </trkpt>
      <trkpt lat="48.36096" lon="-3.96066">
        <ele>315</ele>
        <time>2017-01-15T23:12:14Z</time>
      </trkpt>
      <trkpt lat="48.36072" lon="-3.96072">
        <ele>315</ele>
        <time>2017-01-15T23:14:14Z</time>
      </trkpt>
      <trkpt lat="48.36059" lon="-3.96073">
        <ele>314</ele>
        <time>2017-01-15T23:16:14Z</time>
      </trkpt>
      <trkpt lat="48.36054" lon="-3.96074">
        <ele>314</ele>
        <time>2017-01-15T23:18:14Z</time>
      </trkpt>
      <trkpt lat="48.36044" lon="-3.96076">
        <ele>314</ele>
        <time>2017-01-15T23:20:14Z</time>
      </trkpt>
      <trkpt lat="48.3604" lon="-3.96077">
        <ele>314</ele>
        <time>2017-01-15T23:22:14Z</time>
      </trkpt>
      <trkpt lat="48.36037" lon="-3.96077">
        <ele>314</ele>
        <time>2017-01-15T23:24:14Z</time>
      </trkpt>
      <trkpt lat="48.36013" lon="-3.96082">
        <ele>313</ele>
        <time>2017-01-15T23:26:14Z</time>
      </trkpt>
      <trkpt lat="48.35984" lon="-3.96091">
        <ele>312</ele>
        <time>2017-01-15T23:28:14Z</time>
      </trkpt>
      <trkpt lat="48.35967" lon="-3.96097">
        <ele>312</ele>
        <time>2017-01-15T23:30:14Z</time>
      </trkpt>
      <trkpt lat="48.35943" lon="-3.96111">
        <ele>311</ele>
        <time>2017-01-15T23:32:14Z</time>
      </trkpt>
      <trkpt lat="48.35936" lon="-3.9611">
        <ele>311</ele>
        <time>2017-01-15T23:34:14Z</time>
      </trkpt>
      <trkpt lat="48.35928" lon="-3.9611">
        <ele>310</ele>
        <time>2017-01-15T23:36:14Z</time>
      </trkpt>
      <trkpt lat="48.35902" lon="-3.96099">
        <ele>309</ele>
        <time>2017-01-15T23:38:14Z</time>
      </trkpt>
      <trkpt lat="48.35896" lon="-3.96097">
        <ele>309</ele>
        <time>2017-01-15T23:40:14Z</time>
      </trkpt>
      <trkpt lat="48.3589" lon="-3.96097">
        <ele>308</ele>
        <time>2017-01-15T23:42:14Z</time>
      </trkpt>
      <trkpt lat="48.35887" lon="-3.96096">
        <ele>308</ele>
        <time>2017-01-15T23:44:14Z</time>
      </trkpt>
      <trkpt lat="48.35833" lon="-3.96088">
        <ele>305</ele>
        <time>2017-01-15T23:46:14Z</time>
      </trkpt>
      <trkpt lat="48.35807" lon="-3.96093">
        <ele>304</ele>
        <time>2017-01-15T23:48:14Z</time>
      </trkpt>
      <trkpt lat="48.35784" lon="-3.96092">
        <ele>303</ele>
        <time>2017-01-15T23:50:14Z</time>
      </trkpt>
      <trkpt lat="48.35775" lon="-3.96094">
        <ele>302</ele>
        <time>2017-01-15T23:52:14Z</time>
      </trkpt>
      <trkpt lat="48.35746" lon="-3.96097">
        <ele>301</ele>
        <time>2017-01-15T23:54:14Z</time>
      </trkpt>
      <trkpt lat="48.35722" lon="-3.96095">
        <ele>301</ele>
        <time>2017-01-15T23:56:14Z</time>
      </trkpt>
      <trkpt lat="48.35696" lon="-3.96099">
        <ele>300</ele>
        <time>2017-01-15T23:58:14Z</time>
      </trkpt>
      <trkpt lat="48.35687" lon="-3.96103">
        <ele>300</ele>
        <time>2017-01-16T00:00:14Z</time>
      </trkpt>
      <trkpt lat="48.35698" lon="-3.96134">
        <ele>301</ele>
        <time>2017-01-16T00:02:14Z</time>
      </trkpt>
      <trkpt lat="48.35709" lon="-3.96173">
        <ele>303</ele>
        <time>2017-01-16T00:04:14Z</time>
      </trkpt>
      <trkpt lat="48.35726" lon="-3.96205">
        <ele>303</ele>
        <time>2017-01-16T00:06:14Z</time>
      </trkpt>
      <trkpt lat="48.35745" lon="-3.96233">
        <ele>304</ele>
        <time>2017-01-16T00:08:14Z</time>
      </trkpt>
      <trkpt lat="48.3576" lon="-3.9626">
        <ele>304</ele>
        <time>2017-01-16T00:10:14Z</time>
      </trkpt>
      <trkpt lat="48.35767" lon="-3.96282">
        <ele>304</ele>
        <time>2017-01-16T00:12:14Z</time>
      </trkpt>
      <trkpt lat="48.35786" lon="-3.96312">
        <ele>304</ele>
        <time>2017-01-16T00:14:14Z</time>
      </trkpt>
      <trkpt lat="48.35809" lon="-3.96344">
        <ele>304</ele>
        <time>2017-01-16T00:16:14Z</time>
      </trkpt>
      <trkpt lat="48.35831" lon="-3.96369">
        <ele>303</ele>
        <time>2017-01-16T00:18:14Z</time>
      </trkpt>
      <trkpt lat="48.35847" lon="-3.96392">
        <ele>303</ele>
        <time>2017-01-16T00:20:14Z</time>
      </trkpt>
      <trkpt lat="48.35867" lon="-3.96417">
        <ele>302</ele>
        <time>2017-01-16T00:22:14Z</time>
      </trkpt>
      <trkpt lat="48.35889" lon="-3.96441">
        <ele>301</ele>
        <time>2017-01-16T00:24:14Z</time>
      </trkpt>
      <trkpt lat="48.35915" lon="-3.96462">
        <ele>301</ele>
        <time>2017-01-16T00:26:14Z</time>
      </trkpt>
      <trkpt lat="48.35919" lon="-3.96481">
        <ele>300</ele>
        <time>2017-01-16T00:28:14Z</time>
      </trkpt>
      <trkpt lat="48.35919" lon="-3.96508">
        <ele>299</ele>
        <time>2017-01-16T00:30:14Z</time>
      </trkpt>
      <trkpt lat="48.35918" lon="-3.9651">
        <ele>299</ele>
        <time>2017-01-16T00:32:14Z</time>
      </trkpt>
      <trkpt lat="48.35917" lon="-3.96545">
        <ele>297</ele>
        <time>2017-01-16T00:34:14Z</time>
      </trkpt>
      <trkpt lat="48.35919" lon="-3.96591">
        <ele>296</ele>
        <time>2017-01-16T00:36:14Z</time>
      </trkpt>
      <trkpt lat="48.35929" lon="-3.96626">
        <ele>295</ele>
        <time>2017-01-16T00:38:14Z</time>
      </trkpt>
      <trkpt lat="48.35939" lon="-3.9666">
        <ele>294</ele>
        <time>2017-01-16T00:40:14Z</time>
      </trkpt>
      <trkpt lat="48.35951" lon="-3.96701">
        <ele>293</ele>
        <time>2017-01-16T00:42:14Z</time>
      </trkpt>
      <trkpt lat="48.35977" lon="-3.96835">
        <ele>288</ele>
        <time>2017-01-16T00:44:14Z</time>
      </trkpt>
      <trkpt lat="48.35983" lon="-3.9687">
        <ele>285</ele>
        <time>2017-01-16T00:46:14Z</time>
      </trkpt>
      <trkpt lat="48.35989" lon="-3.96901">
        <ele>282</ele>
        <time>2017-01-16T00:48:14Z</time>
      </trkpt>
      <trkpt lat="48.35996" lon="-3.9693">
        <ele>280</ele>
        <time>2017-01-16T00:50:14Z</time>
      </trkpt>
      <trkpt lat="48.36001" lon="-3.96961">
        <ele>279</ele>
        <time>2017-01-16T00:52:14Z</time>
      </trkpt>
      <trkpt lat="48.36006" lon="-3.96971">
        <ele>278</ele>
        <time>2017-01-16T00:54:14Z</time>
      </trkpt>
      <trkpt lat="48.36007" lon="-3.96974">
        <ele>278</ele>
        <time>2017-01-16T00:56:14Z</time>
      </trkpt>
      <trkpt lat="48.36018" lon="-3.96998">
        <ele>276</ele>
        <time>2017-01-16T00:58:14Z</time>
      </trkpt>
      <trkpt lat="48.36022" lon="-3.97044">
        <ele>273</ele>
        <time>2017-01-16T01:00:14Z</time>
      </trkpt>
      <trkpt lat="48.36025" lon="-3.97079">
        <ele>271</ele>
        <time>2017-01-16T01:02:14Z</time>
      </trkpt>
      <trkpt lat="48.3603" lon="-3.97103">
        <ele>269</ele>
        <time>2017-01-16T01:04:14Z</time>
      </trkpt>
      <trkpt lat="48.36029" lon="-3.9713">
        <ele>266</ele>
        <time>2017-01-16T01:06:14Z</time>
      </trkpt>
      <trkpt lat="48.36032" lon="-3.97154">
        <ele>263</ele>
        <time>2017-01-16T01:08:14Z</time>
      </trkpt>
      <trkpt lat="48.36039" lon="-3.97176">
        <ele>261</ele>
        <time>2017-01-16T01:10:14Z</time>
      </trkpt>
      <trkpt lat="48.36045" lon="-3.97192">
        <ele>260</ele>
        <time>2017-01-16T01:12:14Z</time>
      </trkpt>
      <trkpt lat="48.36046" lon="-3.972">
        <ele>259</ele>
        <time>2017-01-16T01:14:14Z</time>
      </trkpt>
      <trkpt lat="48.36053" lon="-3.97234">
        <ele>256</ele>
        <time>2017-01-16T01:16:14Z</time>
      </trkpt>
      <trkpt lat="48.3606" lon="-3.97256">
        <ele>255</ele>
        <time>2017-01-16T01:18:14Z</time>
      </trkpt>
      <trkpt lat="48.36078" lon="-3.97289">
        <ele>252</ele>
        <time>2017-01-16T01:20:14Z</time>
      </trkpt>
      <trkpt lat="48.36089" lon="-3.97325">
        <ele>251</ele>
        <time>2017-01-16T01:22:14Z</time>
      </trkpt>
      <trkpt lat="48.36095" lon="-3.97354">
        <ele>249</ele>
        <time>2017-01-16T01:24:14Z</time>
      </trkpt>
      <trkpt lat="48.36102" lon="-3.97391">
        <ele>248</ele>
        <time>2017-01-16T01:26:14Z</time>
      </trkpt>
      <trkpt lat="48.36106" lon="-3.97406">
        <ele>248</ele>
        <time>2017-01-16T01:28:14Z</time>
      </trkpt>
      <trkpt lat="48.36109" lon="-3.9741">
        <ele>248</ele>
        <time>2017-01-16T01:30:14Z</time>
      </trkpt>
      <trkpt lat="48.3611" lon="-3.97406">
        <ele>248</ele>
        <time>2017-01-16T01:32:14Z</time>
      </trkpt>
      <trkpt lat="48.3611" lon="-3.97406">
        <ele>248</ele>
        <time>2017-01-16T01:34:14Z</time>
      </trkpt>
      <trkpt lat="48.36113" lon="-3.97434">
        <ele>247</ele>
        <time>2017-01-16T01:36:14Z</time>
      </trkpt>
      <trkpt lat="48.36112" lon="-3.9747">
        <ele>246</ele>
        <time>2017-01-16T01:38:14Z</time>
      </trkpt>
      <trkpt lat="48.36113" lon="-3.97511">
        <ele>245</ele>
        <time>2017-01-16T01:40:14Z</time>
      </trkpt>
      <trkpt lat="48.36114" lon="-3.97562">
        <ele>244</ele>
        <time>2017-01-16T01:42:14Z</time>
      </trkpt>
      <trkpt lat="48.36123" lon="-3.97608">
        <ele>244</ele>
        <time>2017-01-16T01:44:14Z</time>
      </trkpt>
      <trkpt lat="48.36126" lon="-3.97619">
        <ele>244</ele>
        <time>2017-01-16T01:46:14Z</time>
      </trkpt>
      <trkpt lat="48.36132" lon="-3.9766">
        <ele>243</ele>
        <time>2017-01-16T01:48:14Z</time>
      </trkpt>
      <trkpt lat="48.36131" lon="-3.9767">
        <ele>243</ele>
        <time>2017-01-16T01:50:14Z</time>
      </trkpt>
      <trkpt lat="48.36132" lon="-3.9767">
        <ele>243</ele>
        <time>2017-01-16T01:52:14Z</time>
      </trkpt>
      <trkpt lat="48.36131" lon="-3.9767">
        <ele>243</ele>
        <time>2017-01-16T01:54:14Z</time>
      </trkpt>
      <trkpt lat="48.36132" lon="-3.9767">
        <ele>243</ele>
        <time>2017-01-16T01:56:14Z</time>
      </trkpt>
      <trkpt lat="48.3613" lon="-3.97671">
        <ele>243</ele>
        <time>2017-01-16T01:58:14Z</time>
      </trkpt>
      <trkpt lat="48.36105" lon="-3.97681">
        <ele>242</ele>
        <time>2017-01-16T02:00:14Z</time>
      </trkpt>
      <trkpt lat="48.36086" lon="-3.97686">
        <ele>240</ele>
        <time>2017-01-16T02:02:14Z</time>
      </trkpt>
      <trkpt lat="48.36082" lon="-3.97687">
        <ele>240</ele>
        <time>2017-01-16T02:04:14Z</time>
      </trkpt>
      <trkpt lat="48.36056" lon="-3.9769">
        <ele>239</ele>
        <time>2017-01-16T02:06:14Z</time>
      </trkpt>
      <trkpt lat="48.36036" lon="-3.97693">
        <ele>237</ele>
        <time>2017-01-16T02:08:14Z</time>
      </trkpt>
      <trkpt lat="48.36018" lon="-3.97693">
        <ele>236</ele>
        <time>2017-01-16T02:10:14Z</time>
      </trkpt>
      <trkpt lat="48.36014" lon="-3.97692">
        <ele>236</ele>
        <time>2017-01-16T02:12:14Z</time>
      </trkpt>
      <trkpt lat="48.36003" lon="-3.97691">
        <ele>236</ele>
        <time>2017-01-16T02:14:14Z</time>
      </trkpt>
      <trkpt lat="48.35996" lon="-3.9769">
        <ele>235</ele>
        <time>2017-01-16T02:16:14Z</time>
      </trkpt>
      <trkpt lat="48.3599" lon="-3.97688">
        <ele>235</ele>
        <time>2017-01-16T02:18:14Z</time>
      </trkpt>
      <trkpt lat="48.35946" lon="-3.97675">
        <ele>231</ele>
        <time>2017-01-16T02:20:14Z</time>
      </trkpt>
      <trkpt lat="48.35937" lon="-3.9767">
        <ele>231</ele>
        <time>2017-01-16T02:22:14Z</time>
      </trkpt>
      <trkpt lat="48.35913" lon="-3.97661">
        <ele>229</ele>
        <time>2017-01-16T02:24:14Z</time>
      </trkpt>
      <trkpt lat="48.35887" lon="-3.97654">
        <ele>228</ele>
        <time>2017-01-16T02:26:14Z</time>
      </trkpt>
      <trkpt lat="48.3586" lon="-3.97641">
        <ele>228</ele>
        <time>2017-01-16T02:28:14Z</time>
      </trkpt>
      <trkpt lat="48.35858" lon="-3.97641">
        <ele>227</ele>
        <time>2017-01-16T02:30:14Z</time>
      </trkpt>
      <trkpt lat="48.35827" lon="-3.97641">
        <ele>226</ele>
        <time>2017-01-16T02:32:14Z</time>
      </trkpt>
      <trkpt lat="48.35803" lon="-3.97644">
        <ele>224</ele>
        <time>2017-01-16T02:34:14Z</time>
      </trkpt>
      <trkpt lat="48.35778" lon="-3.97644">
        <ele>222</ele>
        <time>2017-01-16T02:36:14Z</time>
      </trkpt>
      <trkpt lat="48.35751" lon="-3.97638">
        <ele>221</ele>
        <time>2017-01-16T02:38:14Z</time>
      </trkpt>
      <trkpt lat="48.35729" lon="-3.97638">
        <ele>222</ele>
        <time>2017-01-16T02:40:14Z</time>
      </trkpt>
      <trkpt lat="48.35705" lon="-3.97633">
        <ele>224</ele>
        <time>2017-01-16T02:42:14Z</time>
      </trkpt>
      <trkpt lat="48.35699" lon="-3.97629">
        <ele>224</ele>
        <time>2017-01-16T02:44:14Z</time>
      </trkpt>
      <trkpt lat="48.35681" lon="-3.97621">
        <ele>226</ele>
        <time>2017-01-16T02:46:14Z</time>
      </trkpt>
      <trkpt lat="48.35656" lon="-3.97615">
        <ele>228</ele>
        <time>2017-01-16T02:48:14Z</time>
      </trkpt>
      <trkpt lat="48.35636" lon="-3.9761">
        <ele>229</ele>
        <time>2017-01-16T02:50:14Z</time>
      </trkpt>
      <trkpt lat="48.35611" lon="-3.97597">
        <ele>232</ele>
        <time>2017-01-16T02:52:14Z</time>
      </trkpt>
      <trkpt lat="48.356" lon="-3.97589">
        <ele>233</ele>
        <time>2017-01-16T02:54:14Z</time>
      </trkpt>
      <trkpt lat="48.35598" lon="-3.97587">
        <ele>233</ele>
        <time>2017-01-16T02:56:14Z</time>
      </trkpt>
      <trkpt lat="48.35573" lon="-3.97567">
        <ele>235</ele>
        <time>2017-01-16T02:58:14Z</time>
      </trkpt>
      <trkpt lat="48.35551" lon="-3.97559">
        <ele>236</ele>
        <time>2017-01-16T03:00:14Z</time>
      </trkpt>
      <trkpt lat="48.35525" lon="-3.97559">
        <ele>237</ele>
        <time>2017-01-16T03:02:14Z</time>
      </trkpt>
      <trkpt lat="48.3552" lon="-3.97561">
        <ele>237</ele>
        <time>2017-01-16T03:04:14Z</time>
      </trkpt>
      <trkpt lat="48.35493" lon="-3.97557">
        <ele>238</ele>
        <time>2017-01-16T03:06:14Z</time>
      </trkpt>
      <trkpt lat="48.35467" lon="-3.97546">
        <ele>239</ele>
        <time>2017-01-16T03:08:14Z</time>
      </trkpt>
      <trkpt lat="48.35438" lon="-3.97537">
        <ele>241</ele>
        <time>2017-01-16T03:10:14Z</time>
      </trkpt>
      <trkpt lat="48.35407" lon="-3.97532">
        <ele>242</ele>
        <time>2017-01-16T03:12:14Z</time>
      </trkpt>
      <trkpt lat="48.35378" lon="-3.97524">
        <ele>244</ele>
        <time>2017-01-16T03:14:14Z</time>
      </trkpt>
      <trkpt lat="48.35372" lon="-3.97523">
        <ele>244</ele>
        <time>2017-01-16T03:16:14Z</time>
      </trkpt>
      <trkpt lat="48.35371" lon="-3.97523">
        <ele>244</ele>
        <time>2017-01-16T03:18:14Z</time>
      </trkpt>
      <trkpt lat="48.35354" lon="-3.97541">
        <ele>243</ele>
        <time>2017-01-16T03:20:14Z</time>
      </trkpt>
      <trkpt lat="48.3534" lon="-3.9758">
        <ele>241</ele>
        <time>2017-01-16T03:22:14Z</time>
      </trkpt>
      <trkpt lat="48.35327" lon="-3.97617">
        <ele>239</ele>
        <time>2017-01-16T03:24:14Z</time>
      </trkpt>
      <trkpt lat="48.35314" lon="-3.97655">
        <ele>237</ele>
        <time>2017-01-16T03:26:14Z</time>
      </trkpt>
      <trkpt lat="48.35306" lon="-3.97699">
        <ele>237</ele>
        <time>2017-01-16T03:28:14Z</time>
      </trkpt>
      <trkpt lat="48.35305" lon="-3.97745">
        <ele>236</ele>
        <time>2017-01-16T03:30:14Z</time>
      </trkpt>
      <trkpt lat="48.35308" lon="-3.97801">
        <ele>234</ele>
        <time>2017-01-16T03:32:14Z</time>
      </trkpt>
      <trkpt lat="48.35296" lon="-3.97843">
        <ele>233</ele>
        <time>2017-01-16T03:34:14Z</time>
      </trkpt>
      <trkpt lat="48.35266" lon="-3.97881">
        <ele>234</ele>
        <time>2017-01-16T03:36:14Z</time>
      </trkpt>
      <trkpt lat="48.35256" lon="-3.97892">
        <ele>234</ele>
        <time>2017-01-16T03:38:14Z</time>
      </trkpt>
      <trkpt lat="48.35236" lon="-3.97918">
        <ele>235</ele>
        <time>2017-01-16T03:40:14Z</time>
      </trkpt>
      <trkpt lat="48.3522" lon="-3.97954">
        <ele>237</ele>
        <time>2017-01-16T03:42:14Z</time>
      </trkpt>
      <trkpt lat="48.35209" lon="-3.97994">
        <ele>237</ele>
        <time>2017-01-16T03:44:14Z</time>
      </trkpt>
      <trkpt lat="48.35202" lon="-3.98043">
        <ele>238</ele>
        <time>2017-01-16T03:46:14Z</time>
      </trkpt>
      <trkpt lat="48.35196" lon="-3.98097">
        <ele>238</ele>
        <time>2017-01-16T03:48:14Z</time>
      </trkpt>
      <trkpt lat="48.35192" lon="-3.98133">
        <ele>239</ele>
        <time>2017-01-16T03:50:14Z</time>
      </trkpt>
      <trkpt lat="48.35184" lon="-3.98187">
        <ele>241</ele>
        <time>2017-01-16T03:52:14Z</time>
      </trkpt>
      <trkpt lat="48.35179" lon="-3.98232">
        <ele>240</ele>
        <time>2017-01-16T03:54:14Z</time>
      </trkpt>
      <trkpt lat="48.35171" lon="-3.98274">
        <ele>241</ele>
        <time>2017-01-16T03:56:14Z</time>
      </trkpt>
      <trkpt lat="48.35166" lon="-3.98317">
        <ele>241</ele>
        <time>2017-01-16T03:58:14Z</time>
      </trkpt>
      <trkpt lat="48.35163" lon="-3.98328">
        <ele>241</ele>
        <time>2017-01-16T04:00:14Z</time>
      </trkpt>
      <trkpt lat="48.35163" lon="-3.98336">
        <ele>241</ele>
        <time>2017-01-16T04:02:14Z</time>
      </trkpt>
      <trkpt lat="48.35162" lon="-3.98341">
        <ele>241</ele>
        <time>2017-01-16T04:04:14Z</time>
      </trkpt>
      <trkpt lat="48.35163" lon="-3.98383">
        <ele>241</ele>
        <time>2017-01-16T04:06:14Z</time>
      </trkpt>
      <trkpt lat="48.35152" lon="-3.98429">
        <ele>241</ele>
        <time>2017-01-16T04:08:14Z</time>
      </trkpt>
      <trkpt lat="48.35146" lon="-3.98466">
        <ele>241</ele>
        <time>2017-01-16T04:10:14Z</time>
      </trkpt>
      <trkpt lat="48.35142" lon="-3.98503">
        <ele>240</ele>
        <time>2017-01-16T04:12:14Z</time>
      </trkpt>
      <trkpt lat="48.35137" lon="-3.98529">
        <ele>240</ele>
        <time>2017-01-16T04:14:14Z</time>
      </trkpt>
      <trkpt lat="48.35137" lon="-3.98587">
        <ele>239</ele>
        <time>2017-01-16T04:16:14Z</time>
      </trkpt>
      <trkpt lat="48.35138" lon="-3.98615">
        <ele>238</ele>
        <time>2017-01-16T04:18:14Z</time>
      </trkpt>
      <trkpt lat="48.35136" lon="-3.98653">
        <ele>237</ele>
        <time>2017-01-16T04:20:14Z</time>
      </trkpt>
      <trkpt lat="48.35133" lon="-3.98701">
        <ele>235</ele>
        <time>2017-01-16T04:22:14Z</time>
      </trkpt>
      <trkpt lat="48.35133" lon="-3.98729">
        <ele>234</ele>
        <time>2017-01-16T04:24:14Z</time>
      </trkpt>
      <trkpt lat="48.35131" lon="-3.98755">
        <ele>233</ele>
        <time>2017-01-16T04:26:14Z</time>
      </trkpt>
      <trkpt lat="48.35125" lon="-3.98786">
        <ele>231</ele>
        <time>2017-01-16T04:28:14Z</time>
      </trkpt>
      <trkpt lat="48.35124" lon="-3.98797">
        <ele>230</ele>
        <time>2017-01-16T04:30:14Z</time>
      </trkpt>
      <trkpt lat="48.35124" lon="-3.98824">
        <ele>229</ele>
        <time>2017-01-16T04:32:14Z</time>
      </trkpt>
      <trkpt lat="48.35125" lon="-3.9883">
        <ele>229</ele>
        <time>2017-01-16T04:34:14Z</time>
      </trkpt>
      <trkpt lat="48.35117" lon="-3.98871">
        <ele>227</ele>
        <time>2017-01-16T04:36:14Z</time>
      </trkpt>
      <trkpt lat="48.35114" lon="-3.98904">
        <ele>226</ele>
        <time>2017-01-16T04:38:14Z</time>
      </trkpt>
      <trkpt lat="48.35114" lon="-3.98928">
        <ele>224</ele>
        <time>2017-01-16T04:40:14Z</time>
      </trkpt>
      <trkpt lat="48.35113" lon="-3.98953">
        <ele>223</ele>
        <time>2017-01-16T04:42:14Z</time>
      </trkpt>
      <trkpt lat="48.35106" lon="-3.98987">
        <ele>220</ele>
        <time>2017-01-16T04:44:14Z</time>
      </trkpt>
      <trkpt lat="48.35106" lon="-3.98993">
        <ele>220</ele>
        <time>2017-01-16T04:46:14Z</time>
      </trkpt>
      <trkpt lat="48.35105" lon="-3.99008">
        <ele>219</ele>
        <time>2017-01-16T04:48:14Z</time>
      </trkpt>
      <trkpt lat="48.35106" lon="-3.99011">
        <ele>219</ele>
        <time>2017-01-16T04:50:14Z</time>
      </trkpt>
      <trkpt lat="48.35105" lon="-3.99018">
        <ele>218</ele>
        <time>2017-01-16T04:52:14Z</time>
      </trkpt>
      <trkpt lat="48.35101" lon="-3.99046">
        <ele>217</ele>
        <time>2017-01-16T04:54:14Z</time>
      </trkpt>
      <trkpt lat="48.35093" lon="-3.99079">
        <ele>215</ele>
        <time>2017-01-16T04:56:14Z</time>
      </trkpt>
      <trkpt lat="48.35085" lon="-3.99108">
        <ele>214</ele>
        <time>2017-01-16T04:58:14Z</time>
      </trkpt>
      <trkpt lat="48.35068" lon="-3.99143">
        <ele>211</ele>
        <time>2017-01-16T05:00:14Z</time>
      </trkpt>
      <trkpt lat="48.35061" lon="-3.99166">
        <ele>210</ele>
        <time>2017-01-16T05:02:14Z</time>
      </trkpt>
      <trkpt lat="48.35053" lon="-3.99188">
        <ele>209</ele>
        <time>2017-01-16T05:04:14Z</time>
      </trkpt>
      <trkpt lat="48.35041" lon="-3.99225">
        <ele>207</ele>
        <time>2017-01-16T05:06:14Z</time>
      </trkpt>
      <trkpt lat="48.35039" lon="-3.99231">
        <ele>207</ele>
        <time>2017-01-16T05:08:14Z</time>
      </trkpt>
      <trkpt lat="48.35028" lon="-3.99263">
        <ele>205</ele>
        <time>2017-01-16T05:10:14Z</time>
      </trkpt>
      <trkpt lat="48.35021" lon="-3.9927">
        <ele>204</ele>
        <time>2017-01-16T05:12:14Z</time>
      </trkpt>
      <trkpt lat="48.3502" lon="-3.99287">
        <ele>203</ele>
        <time>2017-01-16T05:14:14Z</time>
      </trkpt>
      <trkpt lat="48.35015" lon="-3.99321">
        <ele>200</ele>
        <time>2017-01-16T05:16:14Z</time>
      </trkpt>
      <trkpt lat="48.35013" lon="-3.99331">
        <ele>199</ele>
        <time>2017-01-16T05:18:14Z</time>
      </trkpt>
      <trkpt lat="48.35007" lon="-3.99354">
        <ele>198</ele>
        <time>2017-01-16T05:20:14Z</time>
      </trkpt>
      <trkpt lat="48.35003" lon="-3.99381">
        <ele>196</ele>
        <time>2017-01-16T05:22:14Z</time>
      </trkpt>
      <trkpt lat="48.34995" lon="-3.99412">
        <ele>195</ele>
        <time>2017-01-16T05:24:14Z</time>
      </trkpt>
      <trkpt lat="48.34988" lon="-3.99438">
        <ele>192</ele>
        <time>2017-01-16T05:26:14Z</time>
      </trkpt>
      <trkpt lat="48.34982" lon="-3.99466">
        <ele>189</ele>
        <time>2017-01-16T05:28:14Z</time>
      </trkpt>
      <trkpt lat="48.34972" lon="-3.99518">
        <ele>185</ele>
        <time>2017-01-16T05:30:14Z</time>
      </trkpt>
      <trkpt lat="48.34967" lon="-3.99541">
        <ele>183</ele>
        <time>2017-01-16T05:32:14Z</time>
      </trkpt>
      <trkpt lat="48.34964" lon="-3.99572">
        <ele>181</ele>
        <time>2017-01-16T05:34:14Z</time>
      </trkpt>
      <trkpt lat="48.34954" lon="-3.99601">
        <ele>179</ele>
        <time>2017-01-16T05:36:14Z</time>
      </trkpt>
      <trkpt lat="48.34949" lon="-3.99618">
        <ele>178</ele>
        <time>2017-01-16T05:38:14Z</time>
      </trkpt>
      <trkpt lat="48.3493" lon="-3.99617">
        <ele>177</ele>
        <time>2017-01-16T05:40:14Z</time>
      </trkpt>
      <trkpt lat="48.34909" lon="-3.99612">
        <ele>175</ele>
        <time>2017-01-16T05:42:14Z</time>
      </trkpt>
      <trkpt lat="48.34896" lon="-3.99613">
        <ele>174</ele>
        <time>2017-01-16T05:44:14Z</time>
      </trkpt>
      <trkpt lat="48.34891" lon="-3.99634">
        <ele>173</ele>
        <time>2017-01-16T05:46:14Z</time>
      </trkpt>
      <trkpt lat="48.34892" lon="-3.99642">
        <ele>172</ele>
        <time>2017-01-16T05:48:14Z</time>
      </trkpt>
      <trkpt lat="48.34894" lon="-3.99666">
        <ele>172</ele>
        <time>2017-01-16T05:50:14Z</time>
      </trkpt>
      <trkpt lat="48.349" lon="-3.99698">
        <ele>172</ele>
        <time>2017-01-16T05:52:14Z</time>
      </trkpt>
      <trkpt lat="48.34904" lon="-3.99737">
        <ele>171</ele>
        <time>2017-01-16T05:54:14Z</time>
      </trkpt>
      <trkpt lat="48.34937" lon="-3.99803">
        <ele>169</ele>
        <time>2017-01-16T05:56:14Z</time>
      </trkpt>
      <trkpt lat="48.34959" lon="-3.99858">
        <ele>166</ele>
        <time>2017-01-16T05:58:14Z</time>
      </trkpt>
      <trkpt lat="48.34963" lon="-3.99885">
        <ele>165</ele>
        <time>2017-01-16T06:00:14Z</time>
      </trkpt>
      <trkpt lat="48.34954" lon="-3.99912">
        <ele>163</ele>
        <time>2017-01-16T06:02:14Z</time>
      </trkpt>
      <trkpt lat="48.34955" lon="-3.99933">
        <ele>162</ele>
        <time>2017-01-16T06:04:14Z</time>
      </trkpt>
      <trkpt lat="48.34954" lon="-3.99932">
        <ele>162</ele>
        <time>2017-01-16T06:06:14Z</time>
      </trkpt>
      <trkpt lat="48.34956" lon="-3.99932">
        <ele>162</ele>
        <time>2017-01-16T06:08:14Z</time>
      </trkpt>
      <trkpt lat="48.34958" lon="-3.99933">
        <ele>162</ele>
        <time>2017-01-16T06:10:14Z</time>
      </trkpt>
      <trkpt lat="48.34957" lon="-3.99933">
        <ele>162</ele>
        <time>2017-01-16T06:12:14Z</time>
      </trkpt>
      <trkpt lat="48.34958" lon="-3.99933">
        <ele>162</ele>
        <time>2017-01-16T06:14:14Z</time>
      </trkpt>
      <trkpt lat="48.34958" lon="-3.99935">
        <ele>162</ele>
        <time>2017-01-16T06:16:14Z</time>
      </trkpt>
      <trkpt lat="48.3496" lon="-3.99931">
        <ele>162</ele>
        <time>2017-01-16T06:18:14Z</time>
      </trkpt>
      <trkpt lat="48.34961" lon="-3.99933">
        <ele>162</ele>
        <time>2017-01-16T06:20:14Z</time>
      </trkpt>
      <trkpt lat="48.34961" lon="-3.99933">
        <ele>162</ele>
        <time>2017-01-16T06:22:14Z</time>
      </trkpt>
      <trkpt lat="48.34961" lon="-3.99933">
        <ele>162</ele>
        <time>2017-01-16T06:24:14Z</time>
      </trkpt>
      <trkpt lat="48.34962" lon="-3.99932">
        <ele>162</ele>
        <time>2017-01-16T06:26:14Z</time>
      </trkpt>
      <trkpt lat="48.34962" lon="-3.99932">
        <ele>162</ele>
        <time>2017-01-16T06:28:14Z</time>
      </trkpt>
      <trkpt lat="48.34962" lon="-3.99932">
        <ele>162</ele>
        <time>2017-01-16T06:30:14Z</time>
      </trkpt>
      <trkpt lat="48.34961" lon="-3.99931">
        <ele>162</ele>
        <time>2017-01-16T06:32:14Z</time>
      </trkpt>
      <trkpt lat="48.34961" lon="-3.9993">
        <ele>162</ele>
        <time>2017-01-16T06:34:14Z</time>
      </trkpt>
      <trkpt lat="48.34962" lon="-3.9993">
        <ele>162</ele>
        <time>2017-01-16T06:36:14Z</time>
      </trkpt>
      <trkpt lat="48.34962" lon="-3.99931">
        <ele>162</ele>
        <time>2017-01-16T06:38:14Z</time>
      </trkpt>
      <trkpt lat="48.34961" lon="-3.99931">
        <ele>162</ele>
        <time>2017-01-16T06:40:14Z</time>
      </trkpt>
      <trkpt lat="48.34961" lon="-3.99932">
        <ele>162</ele>
        <time>2017-01-16T06:42:14Z</time>
      </trkpt>
      <trkpt lat="48.34962" lon="-3.99931">
        <ele>162</ele>
        <time>2017-01-16T06:44:14Z</time>
      </trkpt>
      <trkpt lat="48.34962" lon="-3.99931">
        <ele>162</ele>
        <time>2017-01-16T06:46:14Z</time>
      </trkpt>
      <trkpt lat="48.34962" lon="-3.9993">
        <ele>162</ele>
        <time>2017-01-16T06:48:14Z</time>
      </trkpt>
      <trkpt lat="48.34963" lon="-3.9993">
        <ele>162</ele>
        <time>2017-01-16T06:50:14Z</time>
      </trkpt>
      <trkpt lat="48.34963" lon="-3.99931">
        <ele>162</ele>
        <time>2017-01-16T06:52:14Z</time>
      </trkpt>
      <trkpt lat="48.34978" lon="-3.99926">
        <ele>163</ele>
        <time>2017-01-16T06:54:14Z</time>
      </trkpt>
      <trkpt lat="48.34978" lon="-3.99925">
        <ele>163</ele>
        <time>2017-01-16T06:56:14Z</time>
      </trkpt>
      <trkpt lat="48.34977" lon="-3.99926">
        <ele>163</ele>
        <time>2017-01-16T06:58:14Z</time>
      </trkpt>
      <trkpt lat="48.34976" lon="-3.99926">
        <ele>163</ele>
        <time>2017-01-16T07:00:14Z</time>
      </trkpt>
      <trkpt lat="48.34967" lon="-3.99921">
        <ele>163</ele>
        <time>2017-01-16T07:02:14Z</time>
      </trkpt>
      <trkpt lat="48.34968" lon="-3.99923">
        <ele>163</ele>
        <time>2017-01-16T07:04:14Z</time>
      </trkpt>
      <trkpt lat="48.34967" lon="-3.99929">
        <ele>163</ele>
        <time>2017-01-16T07:06:14Z</time>
      </trkpt>
      <trkpt lat="48.34966" lon="-3.99929">
        <ele>163</ele>
        <time>2017-01-16T07:08:14Z</time>
      </trkpt>
    </trkseg>
  </trk>
</gpx>